[[{"header":{"parameterUnit":"m.s-1","parameterCategory":1,"la1":30.6,"la2":28.766,"lo1":-90.7593,"lo2":-88.6598,"dy":0.0162,"dx":0.0183,"nx":116,"ny":114,"refTime":"2023-07-20T12:00:00:Z","depth":0,"parameterNumber":2,"parameterNumberName":"U-component_of_WINDS"},"data":[0.0,0.0,0.0,0.0,0.0,0.0,0.0,0.0,0.0,0.0,0.0,0.0,0.0,0.0,0.0,0.0,0.0,0.0,0.0,0.0,0.0,0.0,0.0,0.0,0.0,0.0,0.0,0.0,0.0,0.0,0.0,0.0,0.0,0.0,0.0,0.0,0.0,0.0,0.0,0.0,0.0,0.0,0.0,0.0,0.0,0.0,0.0,0.0,0.0,0.0,0.0,0.0,0.0,0.0,0.0,0.0,0.0,0.0,0.0,0.0,0.0,0.0,0.0,0.0,0.0,0.0,0.0,0.0,0.0,0.0,0.0,0.0,0.0,0.0,0.0,0.0,0.0,0.0,0.0,0.0,0.0,0.0,0.0,0.0,0.0,0.0,0.0,0.0,0.0,0.0,0.0,0.0,0.0,0.0,0.0,0.0,0.0,0.0,0.0,0.0,0.0,0.0,0.0,0.0,0.0,0.0,0.0,0.0,0.0,0.0,0.0,0.0,0.0,0.0,0.0,0.0,0.0,0.0,0.0,0.0,0.0,0.0,0.0,0.0,0.0,0.0,0.0,0.0,0.0,0.0,0.0,0.0,0.0,0.0,0.0,0.0,0.0,0.0,0.0,0.0,0.0,0.0,0.0,0.0,0.0,0.0,0.0,0.0,0.0,0.0,0.0,0.0,0.0,0.0,0.0,0.0,0.0,0.0,0.0,0.0,0.0,0.0,0.0,0.0,0.0,0.0,0.0,0.0,0.0,0.0,0.0,0.0,0.0,0.0,0.0,0.0,0.0,0.0,0.0,0.0,0.0,0.0,0.0,0.0,0.0,0.0,0.0,0.0,0.0,0.0,0.0,0.0,0.0,0.0,0.0,0.0,0.0,0.0,0.0,0.0,0.0,0.0,0.0,0.0,0.0,0.0,0.0,0.0,0.0,0.0,0.0,0.0,0.0,0.0,0.0,0.0,0.0,0.0,0.0,0.0,0.0,0.0,0.0,0.0,0.0,0.0,0.0,0.0,0.0,0.0,0.0,0.0,0.0,0.0,0.0,0.0,0.0,0.0,0.0,0.0,0.0,0.0,0.0,0.0,0.0,0.0,0.0,0.0,0.0,0.0,0.0,0.0,0.0,0.0,0.0,0.0,0.0,0.0,0.0,0.0,0.0,0.0,0.0,0.0,0.0,0.0,0.0,0.0,0.0,0.0,0.0,0.0,0.0,0.0,0.0,0.0,0.0,0.0,0.0,0.0,0.0,0.0,0.0,0.0,0.0,0.0,0.0,0.0,0.0,0.0,0.0,0.0,0.0,0.0,0.0,0.0,0.0,0.0,0.0,0.0,0.0,0.0,0.0,0.0,0.0,0.0,0.0,0.0,0.0,0.0,0.0,0.0,0.0,0.0,0.0,0.0,0.0,0.0,0.0,0.0,0.0,0.0,0.0,0.0,0.0,0.0,0.0,0.0,0.0,0.0,0.0,0.0,0.0,0.0,0.0,0.0,0.0,0.0,0.0,0.0,0.0,0.0,0.0,0.0,0.0,0.0,0.0,0.0,0.0,0.0,0.0,0.0,0.0,0.0,0.0,0.0,0.0,0.0,0.0,0.0,0.0,0.0,0.0,0.0,0.0,0.0,0.0,0.0,0.0,0.0,0.0,0.0,0.0,0.0,0.0,0.0,0.0,0.0,0.0,0.0,0.0,0.0,0.0,0.0,0.0,0.0,0.0,0.0,0.0,0.0,0.0,0.0,0.0,0.0,0.0,0.0,0.0,0.0,0.0,0.0,0.0,0.0,0.0,0.0,0.0,0.0,0.0,0.0,0.0,0.0,0.0,0.0,0.0,0.0,0.0,0.0,0.0,0.0,0.0,0.0,0.0,0.0,0.0,0.0,0.0,0.0,0.0,0.0,0.0,0.0,0.0,0.0,0.0,0.0,0.0,0.0,0.0,0.0,0.0,0.0,0.0,0.0,0.0,0.0,0.0,0.0,0.0,0.0,0.0,0.0,0.0,0.0,0.0,0.0,0.0,0.0,0.0,0.0,0.0,0.0,0.0,0.0,0.0,0.0,0.0,0.0,0.0,0.0,0.0,0.0,0.0,0.0,0.0,0.0,0.0,0.0,0.0,0.0,0.0,0.0,0.0,0.0,0.0,0.0,0.0,0.0,0.0,0.0,0.0,0.0,0.0,0.0,0.0,0.0,0.0,0.0,0.0,0.0,0.0,0.0,0.0,0.0,0.0,0.0,0.0,0.0,0.0,0.0,0.0,0.0,0.0,0.0,0.0,0.0,0.0,0.0,0.0,0.0,0.0,0.0,0.0,0.0,0.0,0.0,0.0,0.0,0.0,0.0,0.0,0.0,0.0,0.0,0.0,0.0,0.0,0.0,0.0,0.0,0.0,0.0,0.0,0.0,0.0,0.0,0.0,0.0,0.0,0.0,0.0,0.0,0.0,0.0,0.0,0.0,0.0,0.0,0.0,0.0,0.0,0.0,0.0,0.0,0.0,0.0,0.0,0.0,0.0,0.0,0.0,0.0,0.0,0.0,0.0,0.0,0.0,0.0,0.0,0.0,0.0,0.0,0.0,0.0,0.0,0.0,0.0,0.0,0.0,0.0,0.0,0.0,0.0,0.0,0.0,0.0,0.0,0.0,0.0,0.0,0.0,0.0,0.0,0.0,0.0,0.0,0.0,0.0,0.0,0.0,0.0,0.0,0.0,0.0,0.0,0.0,0.0,0.0,0.0,0.0,0.0,0.0,0.0,0.0,0.0,0.0,0.0,0.0,0.0,0.0,0.0,0.0,0.0,0.0,0.0,0.0,0.0,0.0,0.0,0.0,0.0,0.0,0.0,0.0,0.0,0.0,0.0,0.0,0.0,0.0,0.0,0.0,0.0,0.0,0.0,0.0,0.0,0.0,0.0,0.0,0.0,0.0,0.0,0.0,0.0,0.0,0.0,0.0,0.0,0.0,0.0,0.0,0.0,0.0,0.0,0.0,0.0,0.0,0.0,0.0,0.0,0.0,0.0,0.0,0.0,0.0,0.0,0.0,0.0,0.0,0.0,0.0,0.0,0.0,0.0,0.0,0.0,0.0,0.0,0.0,0.0,0.0,0.0,0.0,0.0,0.0,0.0,0.0,0.0,0.0,0.0,0.0,0.0,0.0,0.0,0.0,0.0,0.0,0.0,0.0,0.0,0.0,0.0,0.0,0.0,0.0,0.0,0.0,0.0,0.0,0.0,0.0,0.0,0.0,0.0,0.0,0.0,0.0,0.0,0.0,0.0,0.0,0.0,0.0,0.0,0.0,0.0,0.0,0.0,0.0,0.0,0.0,0.0,0.0,0.0,0.0,0.0,0.0,0.0,0.0,0.0,0.0,0.0,0.0,0.0,0.0,0.0,0.0,0.0,0.0,0.0,0.0,0.0,0.0,0.0,0.0,0.0,0.0,0.0,0.0,0.0,0.0,0.0,0.0,0.0,0.0,0.0,0.0,0.0,0.0,0.0,0.0,0.0,0.0,0.0,0.0,0.0,0.0,0.0,0.0,0.0,0.0,0.0,0.0,0.0,0.0,0.0,0.0,0.0,0.0,0.0,0.0,0.0,0.0,0.0,0.0,0.0,0.0,0.0,0.0,0.0,0.0,0.0,0.0,0.0,0.0,0.0,0.0,0.0,0.0,0.0,0.0,0.0,0.0,0.0,0.0,0.0,0.0,0.0,0.0,0.0,0.0,0.0,0.0,0.0,0.0,0.0,0.0,0.0,0.0,0.0,0.0,0.0,0.0,0.0,0.0,0.0,0.0,0.0,0.0,0.0,0.0,0.0,0.0,0.0,0.0,0.0,0.0,0.0,0.0,0.0,0.0,0.0,0.0,0.0,0.0,0.0,0.0,0.0,0.0,0.0,0.0,0.0,0.0,0.0,0.0,0.0,0.0,0.0,0.0,0.0,0.0,0.0,0.0,0.0,0.0,0.0,0.0,0.0,0.0,0.0,0.0,0.0,0.0,0.0,0.0,0.0,0.0,0.0,0.0,0.0,0.0,0.0,0.0,0.0,0.0,0.0,0.0,0.0,0.0,0.0,0.0,0.0,0.0,0.0,0.0,0.0,0.0,0.0,0.0,0.0,0.0,0.0,0.0,0.0,0.0,0.0,0.0,0.0,0.0,0.0,0.0,0.0,0.0,0.0,0.0,0.0,0.0,0.0,0.0,0.0,0.0,0.0,0.0,0.0,0.0,0.0,0.0,0.0,0.0,0.0,0.0,0.0,0.0,0.0,0.0,0.0,0.0,0.0,0.0,0.0,0.0,0.0,0.0,0.0,0.0,0.0,0.0,0.0,0.0,0.0,0.0,0.0,0.0,0.0,0.0,0.0,0.0,0.0,0.0,0.0,0.0,0.0,0.0,0.0,0.0,0.0,0.0,0.0,0.0,0.0,0.0,0.0,0.0,0.0,0.0,0.0,0.0,0.0,0.0,0.0,0.0,0.0,0.0,0.0,0.0,0.0,0.0,0.0,0.0,0.0,0.0,0.0,0.0,0.0,0.0,0.0,0.0,0.0,0.0,0.0,0.0,0.0,0.0,0.0,0.0,0.0,0.0,0.0,0.0,0.0,0.0,0.0,0.0,0.0,0.0,0.0,0.0,0.0,0.0,0.0,0.0,0.0,0.0,0.0,0.0,0.0,0.0,0.0,0.0,0.0,0.0,0.0,0.0,0.0,0.0,0.0,0.0,0.0,0.0,0.0,0.0,0.0,0.0,0.0,0.0,0.0,0.0,0.0,0.0,0.0,0.0,0.0,0.0,0.0,0.0,0.0,0.0,0.0,0.0,0.0,0.0,0.0,0.0,0.0,0.0,0.0,0.0,0.0,0.0,0.0,0.0,0.0,0.0,0.0,0.0,0.0,0.0,0.0,0.0,0.0,0.0,0.0,0.0,0.0,0.0,0.0,0.0,0.0,0.0,0.0,0.0,0.0,0.0,0.0,0.0,0.0,0.0,0.0,0.0,0.0,0.0,0.0,0.0,0.0,0.0,0.0,0.0,0.0,0.0,0.0,0.0,0.0,0.0,0.0,0.0,0.0,0.0,0.0,0.0,0.0,0.0,0.0,0.0,0.0,0.0,0.0,0.0,0.0,0.0,0.0,0.0,0.0,0.0,0.0,0.0,0.0,0.0,0.0,0.0,0.0,0.0,0.0,0.0,0.0,0.0,0.0,0.0,0.0,0.0,0.0,0.0,0.0,0.0,0.0,0.0,0.0,0.0,0.0,0.0,0.0,0.0,0.0,0.0,0.0,0.0,0.0,0.0,0.0,0.0,0.0,0.0,0.0,0.0,0.0,0.0,0.0,0.0,0.0,0.0,0.0,0.0,0.0,0.0,0.0,0.0,0.0,0.0,0.0,0.0,0.0,0.0,0.0,0.0,0.0,0.0,0.0,0.0,0.0,0.0,0.0,0.0,0.0,0.0,0.0,0.0,0.0,0.0,0.0,0.0,0.0,0.0,0.0,0.0,0.0,0.0,0.0,0.0,0.0,0.0,0.0,0.0,0.0,0.0,0.0,0.0,0.0,0.0,0.0,0.0,0.0,0.0,0.0,0.0,0.0,0.0,0.0,0.0,0.0,0.0,0.0,0.0,0.0,0.0,0.0,0.0,0.0,0.0,0.0,0.0,0.0,0.0,0.0,0.0,0.0,0.0,0.0,0.0,0.0,0.0,0.0,0.0,0.0,0.0,0.0,0.0,0.0,0.0,0.0,0.0,0.0,0.0,0.0,0.0,0.0,0.0,0.0,0.0,0.0,0.0,0.0,0.0,0.0,0.0,0.0,0.0,0.0,0.0,0.0,0.0,0.0,0.0,0.0,0.0,0.0,0.0,0.0,0.0,0.0,0.0,0.0,0.0,0.0,0.0,0.0,0.0,0.0,0.0,0.0,0.0,0.0,0.0,0.0,0.0,0.0,0.0,0.0,0.0,0.0,0.0,0.0,0.0,0.0,0.0,0.0,0.0,0.0,0.0,0.0,0.0,0.0,0.0,0.0,0.0,0.0,0.0,0.0,0.0,0.0,0.0,0.0,0.0,0.0,0.0,0.0,0.0,0.0,0.0,0.0,0.0,0.0,0.0,-0.8843,0.0,0.0,0.0,0.0,0.0,0.0,0.0,0.0,0.0,0.0,0.0,0.0,0.0,0.0,0.0,0.0,0.0,0.0,0.0,0.0,0.0,0.0,0.0,0.0,0.0,0.0,0.0,0.0,0.0,0.0,0.0,0.0,0.0,0.0,0.0,0.0,0.0,0.0,0.0,0.0,0.0,0.0,0.0,0.0,0.0,0.0,0.0,0.0,0.0,0.0,0.0,0.0,0.0,0.0,0.0,0.0,0.0,0.0,0.0,0.0,0.0,0.0,0.0,0.0,0.0,0.0,0.0,0.0,0.0,0.0,0.0,0.0,0.0,0.0,0.0,0.0,0.0,0.0,0.0,0.0,0.0,0.0,0.0,0.0,0.0,0.0,0.0,0.0,0.0,0.0,0.0,0.0,0.0,0.0,0.0,0.0,0.0,0.0,0.0,0.0,0.0,0.0,0.0,0.0,0.0,0.0,0.0,0.0,0.0,0.0,0.0,0.0,0.0,0.0,0.0,0.0,-0.8541,0.0,0.0,0.0,0.0,0.0,0.0,0.0,0.0,0.0,0.0,0.0,0.0,0.0,0.0,0.0,0.0,0.0,0.0,0.0,0.0,0.0,0.0,0.0,0.0,0.0,0.0,0.0,0.0,0.0,0.0,0.0,0.0,0.0,0.0,0.0,0.0,0.0,0.0,0.0,0.0,0.0,0.0,0.0,0.0,0.0,0.0,0.0,0.0,0.0,0.0,0.0,0.0,0.0,0.0,0.0,0.0,0.0,0.0,0.0,0.0,0.0,0.0,0.0,0.0,0.0,0.0,0.0,0.0,0.0,0.0,0.0,0.0,0.0,0.0,0.0,0.0,0.0,0.0,0.0,0.0,0.0,0.0,0.0,0.0,0.0,0.0,0.0,0.0,0.0,0.0,0.0,0.0,0.0,0.0,0.0,0.0,0.0,0.0,0.0,0.0,0.0,0.0,0.0,0.0,0.0,0.0,0.0,0.0,-0.8418,-0.8438,-0.902,-0.9056,-0.9025,-0.8909,-0.8065,-0.7886,-0.8318,-0.8383,0.0,0.0,0.0,0.0,0.0,0.0,0.0,0.0,0.0,0.0,0.0,0.0,0.0,0.0,0.0,0.0,0.0,0.0,0.0,0.0,0.0,0.0,0.0,0.0,0.0,0.0,0.0,0.0,0.0,0.0,0.0,0.0,0.0,0.0,0.0,0.0,0.0,0.0,-0.5081,-0.5348,-0.5528,-0.5603,-0.5131,0.0,0.0,0.0,0.0,0.0,0.0,0.0,0.0,0.0,0.0,0.0,0.0,0.0,0.0,0.0,0.0,0.0,0.0,0.0,0.0,0.0,0.0,0.0,0.0,0.0,0.0,0.0,0.0,0.0,0.0,0.0,0.0,0.0,0.0,0.0,0.0,0.0,0.0,0.0,0.0,0.0,0.0,0.0,-0.909,-0.8891,0.0,0.0,0.0,0.0,0.0,0.0,0.0,0.0,0.0,0.0,0.0,0.0,0.0,-1.0258,-0.9639,-0.9819,-0.9538,-0.8742,-0.9322,-0.8926,-0.7852,-0.798,-0.8193,-0.8347,-0.807,0.0,-0.7785,-0.6816,0.0,0.0,0.0,0.0,0.0,0.0,0.0,0.0,0.0,0.0,0.0,0.0,0.0,0.0,0.0,0.0,0.0,0.0,0.0,0.0,0.0,0.0,0.0,0.0,0.0,0.0,0.0,0.0,0.0,0.0,0.0,0.0,0.0,0.0,0.0,0.0,-0.4614,-0.506,-0.5511,-0.5647,-0.5878,-0.6166,-0.5908,-0.5762,-0.5701,-0.5589,0.0,0.0,0.0,0.0,0.0,0.0,0.0,0.0,0.0,0.0,0.0,0.0,0.0,0.0,0.0,0.0,0.0,0.0,0.0,0.0,0.0,0.0,0.0,0.0,0.0,0.0,0.0,0.0,0.0,0.0,0.0,0.0,0.0,0.0,0.0,0.0,0.0,0.0,0.0,-0.994,-1.012,-0.9826,-0.9697,-0.9676,0.0,0.0,0.0,0.0,0.0,0.0,0.0,0.0,0.0,-0.9441,-0.9346,-0.9206,-0.8999,-0.9013,-0.8839,-0.8575,-0.8951,-0.8906,-0.8353,-0.8418,-0.9086,-1.0035,-0.9965,-1.0399,-1.1049,-0.9016,-0.8922,-1.0098,0.0,0.0,0.0,0.0,-1.2542,-1.2152,0.0,0.0,0.0,0.0,0.0,0.0,0.0,0.0,0.0,0.0,0.0,0.0,0.0,0.0,0.0,-0.4545,0.0,0.0,0.0,0.0,0.0,0.0,0.0,0.0,0.0,0.0,0.0,0.0,-0.5135,-0.5488,-0.6034,-0.6108,-0.6363,-0.6759,-0.6759,-0.6552,-0.62,-0.6159,-0.604,0.0,0.0,0.0,0.0,0.0,0.0,0.0,0.0,0.0,0.0,0.0,0.0,0.0,0.0,0.0,0.0,0.0,0.0,0.0,0.0,0.0,0.0,0.0,0.0,0.0,0.0,0.0,0.0,0.0,0.0,0.0,0.0,0.0,0.0,0.0,0.0,0.0,0.0,-1.0514,-1.0704,-1.0153,-0.9852,-0.981,0.0,0.0,0.0,0.0,0.0,0.0,-0.9135,-0.9423,-0.9555,-0.9256,-0.8962,-0.869,-0.8619,-0.8319,-0.8323,-0.8655,-0.8808,-0.9179,-0.9662,-0.9622,-1.0575,-1.2185,-1.209,-1.2755,-1.3804,-1.1444,-1.0966,-1.1796,-1.2447,-1.2924,-1.3336,-1.4045,-1.4047,-1.3773,0.0,0.0,0.0,0.0,0.0,0.0,0.0,0.0,0.0,0.0,0.0,0.0,0.0,0.0,-0.4256,-0.4847,-0.4911,-0.4911,0.0,0.0,0.0,0.0,0.0,0.0,0.0,0.0,0.0,-0.5121,-0.5694,-0.6207,-0.6661,-0.6943,-0.7241,-0.7543,-0.7543,-0.7451,-0.7255,-0.6688,-0.6525,-0.6607,0.0,0.0,0.0,0.0,0.0,0.0,0.0,0.0,0.0,0.0,0.0,0.0,0.0,0.0,0.0,0.0,0.0,0.0,0.0,0.0,0.0,0.0,0.0,0.0,0.0,0.0,0.0,0.0,0.0,0.0,0.0,0.0,0.0,0.0,0.0,0.0,0.0,0.0,0.0,-0.886,-0.9093,0.0,0.0,0.0,0.0,-0.7919,-0.9155,-0.9914,-0.9675,-1.0612,-1.0658,-0.957,-1.0003,-0.9854,-0.8859,-0.9008,-0.9096,-0.912,-0.9273,-1.0226,-1.1883,-1.1718,-1.2653,-1.422,-1.4101,-1.4004,-1.4025,-1.2882,-1.311,-1.4078,-1.3453,-1.3844,-1.4917,-1.4917,-1.5104,-1.5259,0.0,0.0,0.0,0.0,0.0,0.0,0.0,0.0,0.0,0.0,0.0,0.0,0.0,-0.4426,-0.4721,-0.503,-0.5318,-0.5406,-0.5216,0.0,0.0,0.0,0.0,0.0,0.0,0.0,-0.5318,-0.5857,-0.6166,-0.6597,-0.7136,-0.7241,-0.7448,-0.7736,-0.7736,-0.776,-0.777,-0.7265,-0.6973,-0.6807,-0.6359,-0.6023,0.0,0.0,0.0,0.0,0.0,0.0,0.0,0.0,0.0,0.0,0.0,0.0,0.0,0.0,0.0,0.0,0.0,0.0,0.0,0.0,0.0,0.0,0.0,0.0,0.0,0.0,0.0,0.0,0.0,0.0,0.0,0.0,0.0,0.0,0.0,0.0,0.0,-1.1531,-1.0757,0.0,-1.0085,-0.8773,-0.8058,-0.848,-0.8955,-0.9084,-0.8954,-0.9411,-0.9523,-0.9367,-0.9482,-0.956,-0.9367,-0.9422,-1.0072,-1.1102,-1.1165,-1.2052,-1.3651,-1.3579,-1.4524,-1.6121,-1.6025,-1.6576,-1.7461,-1.6929,-1.6031,-1.5039,-1.5329,-1.5691,-1.6086,-1.6086,-1.6273,-1.6526,0.0,0.0,0.0,0.0,0.0,0.0,0.0,0.0,0.0,0.0,0.0,-0.3906,-0.4097,-0.4524,-0.4904,-0.5254,-0.5511,-0.5572,-0.5439,0.0,0.0,0.0,0.0,0.0,0.0,-0.5335,-0.5806,-0.641,-0.6654,-0.7031,-0.7519,-0.7519,-0.7651,-0.7889,-0.7889,-0.7943,-0.8021,-0.7723,-0.7394,-0.7048,-0.6698,-0.6468,-0.6274,0.0,0.0,0.0,0.0,0.0,0.0,0.0,0.0,0.0,0.0,0.0,0.0,0.0,0.0,0.0,0.0,0.0,0.0,0.0,0.0,0.0,0.0,0.0,0.0,0.0,0.0,0.0,0.0,0.0,0.0,0.0,0.0,0.0,0.0,0.0,-1.2524,-1.2276,-1.1576,-1.088,-1.0614,-0.908,-0.8333,-0.8811,-0.8851,-0.8823,-0.876,-0.893,-0.9123,-0.9371,-0.9378,-0.9707,-1.0506,-1.0509,-1.1391,-1.3053,-1.3053,-1.3885,-1.5429,-1.5429,-1.6262,-1.7806,-1.7806,-1.8402,-1.9345,-1.9045,-1.7942,-1.6522,-1.6918,-1.7094,-1.7001,-1.7001,-1.7128,-1.7281,0.0,0.0,0.0,0.0,0.0,0.0,0.0,0.0,0.0,0.0,-0.35,-0.3704,-0.3995,-0.43,-0.4841,-0.5525,-0.545,-0.5428,-0.5435,-0.5081,0.0,0.0,0.0,0.0,-0.5155,-0.5891,-0.642,-0.6722,-0.7166,-0.7533,-0.7818,-0.7818,-0.7896,-0.8038,-0.8038,-0.8038,-0.8038,-0.8038,-0.779,-0.7387,-0.7214,-0.7061,-0.6885,0.0,0.0,0.0,0.0,0.0,0.0,0.0,0.0,0.0,0.0,0.0,0.0,0.0,0.0,0.0,0.0,0.0,0.0,0.0,0.0,0.0,0.0,0.0,0.0,0.0,0.0,0.0,0.0,0.0,0.0,0.0,0.0,0.0,-1.1049,-1.2826,-1.3162,-1.0763,-1.1356,-1.0909,-0.8368,-0.8333,-0.8567,-0.8726,-0.9005,-0.9235,-0.9388,-0.9537,-0.968,-0.9819,-0.9822,-1.066,-1.2213,-1.2213,-1.3053,-1.4723,-1.4723,-1.5548,-1.7085,-1.7085,-1.7923,-1.9366,-1.9366,-1.9366,-1.9345,-1.9058,-1.8764,-1.8464,-1.8163,-1.7856,-1.7582,-1.7582,-1.7582,-1.7542,0.0,0.0,0.0,0.0,0.0,0.0,0.0,0.0,0.0,0.0,-0.3774,-0.4084,-0.4113,-0.464,-0.5121,-0.5552,-0.545,-0.541,-0.5518,0.0,0.0,0.0,0.0,0.0,-0.5772,-0.6305,-0.678,-0.7187,-0.7522,-0.7787,-0.7977,-0.7977,-0.7997,-0.8038,-0.8038,-0.8038,-0.8038,-0.8038,-0.8035,-0.798,-0.7502,-0.7217,-0.7034,0.0,0.0,0.0,0.0,0.0,0.0,0.0,0.0,0.0,0.0,0.0,0.0,0.0,0.0,0.0,0.0,0.0,0.0,0.0,0.0,0.0,0.0,0.0,0.0,0.0,0.0,0.0,0.0,0.0,0.0,0.0,0.0,-1.3387,-1.3253,-1.3058,-1.298,-1.3232,-1.1914,-1.0813,-1.0329,-0.9464,-0.9079,-0.934,-0.9439,-0.9547,-0.9693,-0.9741,-0.9781,-0.9819,-1.0899,-1.1736,-1.2213,-1.3407,-1.4718,-1.6374,-1.6374,-1.7208,-1.8765,-1.8765,-1.9004,-1.9366,-1.9366,-1.9366,-1.9359,-1.9279,-1.8945,-1.8464,-1.8163,-1.7856,-1.7582,-1.7582,-1.7582,-1.7569,0.0,0.0,0.0,0.0,0.0,0.0,0.0,0.0,0.0,0.0,-0.3756,-0.4089,-0.4056,-0.4589,-0.5067,-0.5372,-0.526,-0.5213,-0.5301,0.0,0.0,0.0,0.0,-0.5694,-0.6298,-0.6753,-0.717,-0.7556,-0.779,-0.795,-0.8038,-0.8038,-0.8038,-0.8041,-0.8106,-0.8099,-0.8048,-0.8174,-0.8245,-0.8245,-0.7953,-0.7784,-0.7648,-0.7139,-0.7282,-0.7735,-0.6694,-0.6912,-0.7511,-0.651,0.0,0.0,0.0,0.0,0.0,0.0,0.0,0.0,0.0,0.0,0.0,0.0,0.0,0.0,0.0,0.0,0.0,0.0,0.0,0.0,0.0,0.0,0.0,0.0,-1.2729,-1.3705,-1.3567,-1.3576,-1.3391,-1.3041,-1.1819,-1.085,-1.0456,-0.9799,-0.9442,-0.968,-0.9696,-0.9734,-0.9819,-1.0418,-1.0811,-1.1,-1.2371,-1.3569,-1.437,-1.5235,-1.638,-1.8046,-1.8046,-1.8525,-1.9366,-1.9366,-1.9366,-1.9366,-1.9366,-1.9366,-1.9366,-1.9366,-1.9018,0.0,0.0,0.0,0.0,0.0,-1.7508,-1.7402,0.0,0.0,0.0,0.0,0.0,0.0,0.0,0.0,0.0,0.0,0.0,-0.3959,-0.3851,-0.4355,-0.4889,-0.5213,-0.5104,-0.5033,0.0,0.0,0.0,-0.5192,-0.562,-0.6135,-0.6736,-0.7177,-0.7626,-0.8,-0.7963,-0.8038,-0.8233,-0.8038,-0.8038,-0.8045,-0.8201,-0.8194,-0.8082,-0.8364,-0.8522,-0.8635,-0.856,-0.8476,-0.8377,-0.7868,-0.7645,-0.7546,-0.7146,-0.6939,-0.682,-0.6637,0.0,0.0,0.0,0.0,0.0,0.0,0.0,0.0,0.0,0.0,0.0,0.0,0.0,0.0,0.0,0.0,0.0,0.0,0.0,0.0,0.0,0.0,0.0,0.0,-1.2679,-1.2646,-1.2661,-1.3967,-1.3946,-1.1426,-1.1245,-1.0841,-0.9737,-0.9635,-0.9686,-0.9812,-0.994,-1.0061,-1.0061,0.0,0.0,0.0,0.0,-1.5688,-1.7343,-1.7363,-1.8089,-1.9412,-1.9379,-1.9366,-1.9366,-1.9366,-1.9366,-1.9366,-1.9366,-1.9366,-1.9366,-1.9366,-1.9018,-1.8484,-1.8417,-1.8083,-1.7629,-1.7595,-1.7422,-1.7201,0.0,0.0,0.0,0.0,0.0,0.0,0.0,0.0,0.0,-0.2968,-0.3652,-0.4128,-0.3995,-0.4575,-0.5296,-0.5947,-0.5869,-0.5727,0.0,0.0,-0.5114,-0.5647,-0.5993,-0.6447,-0.7041,-0.7383,-0.82,-0.9431,-0.8448,-0.8528,-0.9608,-0.8528,-0.8038,-0.8045,-0.8201,-0.8255,-0.8238,-0.8411,-0.9264,-1.0302,-0.9183,-0.8448,-0.8126,-0.8136,-0.7916,-0.759,-0.7502,-0.7604,-0.7719,-0.7329,-0.7261,-0.7465,-0.817,0.0,0.0,0.0,0.0,0.0,0.0,0.0,0.0,0.0,0.0,0.0,0.0,0.0,0.0,0.0,0.0,0.0,0.0,0.0,0.0,-1.2619,-1.2884,-1.2925,-1.2046,-1.2508,-1.2601,-1.1749,-1.0707,-0.9972,-0.9764,-0.9781,-0.9791,-0.9819,-1.102,-1.1736,-1.1736,-1.3287,-1.4143,-1.4187,-1.5872,-1.7051,-1.7349,-1.8639,-1.947,-1.9713,0.0,0.0,-1.9366,-1.9366,-1.9366,-1.9366,-1.9366,-1.9366,-1.9366,-1.9366,-1.9018,-1.8444,-1.7949,-1.7842,-1.7923,-1.7675,-1.7549,-1.7502,0.0,0.0,0.0,0.0,0.0,0.0,0.0,0.0,0.0,0.0,-0.4027,-0.4511,-0.4655,-0.5268,-0.5803,-0.6173,-0.6259,0.0,0.0,-0.6087,-0.6193,-0.5888,-0.6736,-0.7252,-0.7353,-0.8158,-0.9013,-0.9858,-0.9951,-1.0336,-1.1227,-1.0531,-0.9883,-0.9372,-1.0261,-1.019,-0.9511,-1.0497,-1.1349,-1.1884,-1.1246,-1.0847,-1.0403,-0.9598,-0.9534,-0.9627,-0.906,-0.8878,-0.8871,-0.7879,-0.7641,-0.7827,-0.8236,-0.8207,-0.7959,0.0,0.0,0.0,0.0,0.0,0.0,0.0,0.0,0.0,0.0,0.0,0.0,0.0,0.0,-1.1997,0.0,0.0,-1.24,-1.2205,-1.2456,-1.216,-1.1225,-1.1832,-1.2028,-1.0928,-1.0978,-1.0668,-0.9819,-1.1257,-1.1856,-1.1016,-1.2453,-1.3407,-1.3407,-1.4955,-1.5893,-1.6255,-1.7721,-1.8709,-1.9101,-1.9574,-1.98,-1.98,-1.9506,-1.9366,-1.9366,-1.9366,-1.9366,-1.9366,-1.9366,-1.9279,-1.9125,-1.8824,-1.8704,-1.8631,-1.7876,-1.7675,-1.7796,-1.7642,-1.7495,-1.7368,0.0,0.0,0.0,0.0,0.0,0.0,0.0,0.0,0.0,0.0,-0.444,-0.4925,-0.522,-0.5809,-0.6265,0.0,0.0,0.0,0.0,-0.7238,-0.7465,-0.6708,-0.7894,-0.851,-0.8322,-0.9376,-1.0216,-1.0774,-1.1556,-1.216,-1.2778,-1.2479,-1.1991,-1.1169,-1.2406,-1.2302,-1.1241,-1.271,-1.3408,-1.343,-1.3455,-1.3592,-1.364,-1.1898,-1.1586,-1.182,-1.0879,-1.0378,-0.9921,-0.8635,-0.8083,-0.8051,-0.8215,-0.8255,-0.8229,-0.8317,-0.859,0.0,0.0,0.0,0.0,0.0,0.0,0.0,0.0,0.0,-1.1376,-1.333,-1.2337,-1.1767,-1.3539,-1.3082,-1.2468,-1.2315,-1.2093,-1.172,-1.1147,-1.2077,-1.2302,-1.0917,-1.1987,-1.226,-1.0914,-1.3053,-1.4004,-1.2813,-1.4123,-1.5074,-1.5074,-1.6615,-1.7666,-1.8264,-1.9361,-2.014,-2.0675,-2.0207,-1.9973,-1.9967,-1.9619,-1.9452,-1.9452,-1.9392,-1.9366,-1.9366,-1.9305,-1.9145,-1.8878,-1.829,-1.8323,-1.8677,-1.7889,-1.7582,-1.7582,-1.7582,-1.7435,-1.7235,0.0,0.0,0.0,0.0,0.0,0.0,0.0,0.0,0.0,0.0,0.0,0.0,0.0,0.0,0.0,0.0,0.0,0.0,-0.8108,-0.8239,-0.8518,-0.8905,-0.9958,-1.0649,-1.0905,-1.1283,-1.2067,-1.3488,-1.2425,-1.2644,-1.4057,-1.2972,-1.2496,-1.2617,-1.2825,-1.2906,-1.281,-1.3366,-1.419,-1.5074,-1.4014,-1.4928,-1.6613,-1.511,-1.355,-1.2368,-1.2354,-1.1497,-1.0409,-0.99,-0.9254,-0.8567,-0.8208,-0.7852,-0.766,-0.7379,0.0,-0.7919,-0.7596,-0.8714,-1.0307,-1.1397,-1.1177,-1.1242,0.0,0.0,-1.1352,-1.2394,-1.369,-1.4389,-1.3431,-1.3441,-1.364,-1.403,-1.3048,-1.259,-1.3952,-1.4333,-1.4353,-1.4152,-1.4267,-1.4272,-1.4128,-1.4366,-1.4485,-1.4361,-1.5784,-1.6733,-1.6733,-1.8286,-1.9272,-1.9589,-1.994,-2.0341,-2.0675,-2.0608,-2.0581,-2.0568,-2.0013,-1.9753,-1.974,-1.9486,-1.9366,-1.9352,-1.9085,-1.8951,-1.8878,-1.829,-1.809,-1.8103,-1.7729,-1.7582,-1.7582,-1.7582,-1.7562,-1.7535,0.0,0.0,0.0,0.0,0.0,0.0,0.0,0.0,0.0,0.0,0.0,0.0,0.0,0.0,0.0,0.0,0.0,0.0,-0.8375,-0.9194,-0.9485,-0.9049,-1.0449,-1.1176,-1.0985,-1.2043,-1.3006,-1.3878,-1.4076,-1.4686,-1.5706,-1.5102,-1.4712,-1.4361,-1.5311,-1.5253,-1.4518,-1.5487,-1.6371,-1.687,-1.6435,-1.6788,-1.7543,-1.6826,-1.558,-1.4219,-1.3239,-1.2008,0.0,0.0,-0.944,-0.9013,-0.9427,-0.9031,-0.8355,-0.7901,-0.7488,0.0,-0.8037,-0.8836,0.0,0.0,-1.1914,-1.2683,-1.2968,-1.3207,-1.3771,-1.462,-1.4673,-1.4852,-1.5626,-1.5001,-1.4485,0.0,-1.4245,-1.4005,-1.4739,-1.544,-1.5844,-1.5609,-1.6391,-1.6299,-1.4697,-1.6267,-1.6979,-1.6026,-1.7449,-1.8402,-1.8402,-1.9004,-1.9579,-2.004,-2.0167,-2.0454,-2.0922,-2.0762,-2.0675,-2.0668,-2.008,-1.98,-1.9786,-1.9499,-1.9272,-1.9092,-1.8798,-1.8671,-1.8624,-1.8023,-1.7883,-1.8016,-1.7702,-1.7582,-1.7582,-1.7582,-1.7582,-1.7582,0.0,0.0,0.0,0.0,0.0,0.0,0.0,0.0,0.0,0.0,0.0,0.0,0.0,0.0,0.0,0.0,0.0,0.0,0.0,-0.9752,-1.0158,-0.9543,-1.1112,-1.1934,-1.1827,-1.3146,-1.4007,-1.4459,-1.5343,-1.6086,-1.6587,-1.6587,-1.6335,-1.5848,-1.6997,-1.6924,-1.5964,-1.7205,-1.7749,-1.7809,-1.7883,-1.7822,-1.7635,-1.7248,-1.6466,-1.5438,-1.4079,-1.2539,0.0,0.0,-0.9269,-0.8717,-0.9653,-0.9362,-0.8748,-0.8677,-0.8036,-0.7513,-0.8321,0.0,0.0,-1.1079,-1.2363,-1.3164,-1.3177,-1.3879,-1.4702,-1.5814,-1.5473,-1.5311,-1.6546,-1.5975,-1.5293,-1.5528,-1.5507,-1.5592,-1.5957,-1.6802,-1.7135,-1.6863,-1.7623,-1.7499,-1.5588,-1.7802,-1.8764,-1.7573,-1.8719,-1.9366,-1.9366,-1.9366,-1.9633,-2.0214,-2.0154,-2.0434,-2.1102,-2.0822,-2.0675,-2.0668,-2.016,-1.9873,-1.9786,-1.9419,-1.9125,-1.8905,-1.8531,-1.837,-1.833,-1.7802,-1.7716,-1.7896,-1.7669,-1.7582,-1.7687,-1.7989,-1.8199,-1.8094,0.0,0.0,0.0,0.0,0.0,0.0,0.0,0.0,0.0,0.0,0.0,0.0,0.0,0.0,0.0,0.0,0.0,0.0,0.0,-0.9646,-1.0458,-1.1259,-1.2496,-1.3539,-1.4409,-1.4993,-1.5431,-1.573,-1.5825,-1.5985,-1.6286,-1.6286,-1.6446,-1.664,-1.7034,-1.7161,-1.7201,-1.7789,-1.7702,-1.7201,-1.7482,-1.7255,-1.668,-1.6106,-1.5511,-1.499,-1.497,0.0,0.0,0.0,-0.8751,-0.7405,-0.793,-0.8024,0.0,-0.9554,-0.9216,0.0,0.0,0.0,-0.9531,-1.3084,-1.2149,-1.1428,-1.549,-1.4372,-1.2937,-1.4736,-1.6233,-1.676,-1.4883,-1.5604,-1.6455,-1.6721,-1.6547,-1.6966,-1.861,-1.8592,-1.8287,-1.7968,-1.7782,-1.7615,0.0,-1.8313,-1.8938,-1.8818,-1.9205,-1.9366,-1.9366,-1.9366,-1.9633,-2.0214,-1.996,-2.0227,-2.1102,-2.0822,-2.0675,-2.0675,-2.0368,-2.0067,-1.978,-1.9199,-1.8931,-1.8891,-1.831,-1.8063,-1.8036,-1.7716,-1.7589,-1.7595,-1.7589,-1.7582,-1.7786,-1.9013,-1.9524,-1.9324,0.0,0.0,0.0,0.0,0.0,0.0,0.0,0.0,0.0,0.0,0.0,0.0,0.0,0.0,0.0,0.0,0.0,0.0,0.0,-0.9265,-0.984,-1.0528,-1.169,-1.2552,-1.3039,-1.3828,-1.4469,-1.4963,-1.4963,-1.5211,-1.5691,-1.5691,-1.5845,-1.6126,-1.6226,-1.6273,-1.6286,-1.6486,-1.668,-1.6827,-1.654,-1.6533,-1.658,-1.5404,-1.4596,-1.3961,0.0,0.0,0.0,0.0,0.0,-0.8576,-1.0131,-1.001,-0.9299,-0.8585,-0.8788,-0.903,0.0,0.0,-1.1711,-1.2403,-1.3811,-1.5074,-1.5435,-1.6442,-1.7078,-1.6516,-1.7159,-1.7565,-1.6888,-1.6842,-1.7066,-1.7239,-1.7366,-1.7727,-1.8492,-1.8551,-1.823,-1.7522,-1.7709,0.0,0.0,0.0,0.0,-1.8617,-1.8905,-1.9158,-1.9359,-1.9366,-1.9633,-2.0214,-1.9953,-2.0221,-2.1102,-2.0822,-2.0675,-2.0668,-2.018,-1.9793,-1.9499,-1.9105,-1.8818,-1.8611,-1.8217,-1.7929,-1.7729,-1.7622,-1.8094,-1.8916,-1.8916,-1.9524,-2.0428,-2.0837,-2.155,-2.2165,0.0,0.0,0.0,0.0,0.0,0.0,0.0,0.0,0.0,0.0,0.0,0.0,0.0,0.0,0.0,0.0,0.0,0.0,0.0,0.0,-0.9192,-0.978,-1.0728,-1.1476,-1.1977,-1.2659,-1.3247,-1.3728,-1.3728,-1.3921,-1.4289,-1.4289,-1.4389,-1.4576,-1.4676,-1.479,-1.4897,-1.4897,-1.511,-1.5411,-1.4923,-1.489,-1.5003,-1.3854,-1.3113,0.0,0.0,0.0,0.0,0.0,0.0,0.0,-1.0405,-1.0918,-1.0587,-0.92,-0.9792,-1.0849,0.0,-1.1668,-1.3466,-1.4288,-1.5631,-1.6788,-1.6867,-1.7986,-1.8684,-1.7749,-1.774,-1.7749,-1.7315,-1.6673,-1.6406,-1.7014,-1.7108,-1.7348,-1.8063,-1.8076,-1.7836,-1.7361,-1.7555,-1.7542,0.0,0.0,0.0,-1.847,-1.8858,-1.9212,-1.9506,-1.9426,-1.9679,-2.0368,-1.9907,-2.0067,-2.0949,-2.0561,-2.0361,-2.0361,-1.9873,-1.9546,-1.9352,-1.8951,-1.8664,-1.847,-1.8056,-1.7769,-1.7687,-1.8094,-1.8812,-1.9627,-2.0135,-2.0939,-2.1752,-2.2257,-2.2968,-2.3484,0.0,0.0,0.0,0.0,0.0,0.0,0.0,0.0,0.0,0.0,0.0,0.0,0.0,0.0,0.0,0.0,0.0,0.0,0.0,0.0,0.0,-0.9145,-0.9805,-1.0517,-1.1364,-1.1776,-1.2087,-1.2304,-1.2304,-1.2311,-1.2325,-1.2325,-1.2325,-1.2412,-1.2702,-1.2993,-1.3198,-1.3198,-1.3205,-1.3192,-1.2862,-1.258,-1.2211,-1.159,0.0,0.0,0.0,0.0,0.0,0.0,0.0,0.0,0.0,0.0,-1.219,-1.1358,-1.2143,-1.3517,-1.4272,-1.4344,-1.4998,-1.8423,-1.7572,-1.6648,-1.9511,-1.8801,-1.7733,-1.8276,-1.7869,-1.7074,0.0,0.0,-1.4877,-1.6019,-1.5805,-1.5985,-1.7408,-1.7395,-1.7328,0.0,0.0,0.0,0.0,0.0,0.0,-1.8537,0.0,-1.9499,-1.9806,-1.9559,-1.98,-2.0648,-1.9853,-1.9826,-2.0688,-2.0114,-1.9813,-1.98,-1.9506,-1.9366,-1.9352,-1.8778,-1.8504,-1.8457,-1.797,-1.7701,-1.7786,-1.9117,-1.9731,-1.993,-2.1245,-2.1853,-2.2055,-2.3285,-2.3791,-2.3592,0.0,0.0,0.0,0.0,0.0,0.0,0.0,0.0,0.0,0.0,0.0,0.0,0.0,0.0,0.0,0.0,0.0,0.0,0.0,0.0,0.0,0.0,0.0,0.0,0.0,0.0,0.0,0.0,0.0,-1.2967,-1.3218,-1.3218,-1.3218,-1.3226,-1.3309,-1.3331,-1.3414,-1.3414,-1.3282,-1.2956,0.0,-1.2124,-1.187,0.0,0.0,0.0,0.0,0.0,0.0,0.0,0.0,0.0,0.0,0.0,-1.2692,-1.2675,-1.3997,-1.5318,-1.4657,-1.6482,-1.8538,-1.8335,-1.884,-1.947,-1.9628,-1.8892,-1.7961,-1.7025,-1.6019,-1.501,0.0,0.0,0.0,-1.5177,-1.6086,0.0,-1.7816,-1.8243,0.0,0.0,0.0,-1.8417,-1.827,-1.8731,0.0,0.0,-1.9406,-1.9586,-2.0094,-2.0054,-2.0214,-2.0661,-2.0241,-2.0327,-2.0995,-2.0414,-2.0013,-1.98,-1.9506,-1.9366,-1.9359,-1.8978,-1.8698,-1.8574,-1.9134,-1.9342,-1.922,-2.0633,-2.1752,-2.2676,-2.3076,-2.3791,-2.4716,-2.502,-2.5226,-2.5118,0.0,0.0,0.0,0.0,0.0,0.0,0.0,0.0,0.0,0.0,0.0,0.0,0.0,0.0,0.0,0.0,0.0,0.0,0.0,0.0,0.0,0.0,0.0,0.0,0.0,0.0,0.0,0.0,0.0,0.0,0.0,-1.2107,-1.2178,-1.1887,-1.2178,-1.2386,-1.2522,-1.2069,0.0,0.0,0.0,0.0,0.0,0.0,0.0,0.0,0.0,0.0,0.0,0.0,0.0,-1.1422,-1.255,-1.3333,-1.4083,-1.4759,0.0,-1.7187,-1.6881,-1.8514,-2.0209,-1.9442,-1.9911,-2.0221,-1.9212,-1.8317,-1.7255,-1.5645,-1.4476,0.0,0.0,0.0,0.0,0.0,0.0,0.0,-1.7301,-1.7963,-1.831,0.0,-1.8644,0.0,-1.9058,-1.9366,-1.9733,0.0,-1.9913,-1.9947,-2.0401,-2.0301,-2.0428,-2.0855,-2.0454,-2.0327,-2.0535,-2.0207,-1.99,-1.9606,-1.9446,-1.9366,-1.9359,-1.9714,-1.9808,-1.9729,0.0,-2.0953,-2.0861,-2.2123,-2.2976,-2.3791,-2.4304,-2.502,-2.5742,-2.5742,-2.5742,-2.5742,0.0,0.0,0.0,0.0,0.0,0.0,0.0,0.0,0.0,0.0,0.0,0.0,0.0,0.0,0.0,0.0,0.0,0.0,0.0,0.0,0.0,0.0,0.0,0.0,0.0,0.0,0.0,0.0,0.0,0.0,0.0,0.0,0.0,0.0,0.0,0.0,0.0,0.0,0.0,0.0,0.0,0.0,0.0,0.0,0.0,0.0,0.0,0.0,0.0,0.0,-1.0379,-1.1729,-1.3644,-1.4917,-1.5912,-1.7048,-1.7996,-1.8844,-1.9686,-2.0321,-2.0775,-2.0949,-2.0548,-1.9793,-1.8537,-1.7335,-1.5972,-1.4215,0.0,-1.2419,-1.1797,0.0,-1.1911,-1.332,0.0,-1.4863,-1.658,-1.7328,-1.7916,-1.8477,-1.8804,-1.9199,-1.9746,-1.98,-2.0047,-2.0635,-2.0401,-2.0381,-2.0715,-2.0488,-2.0568,-2.1036,-2.0521,-2.0094,-1.9806,-1.98,-1.9659,-1.9366,-1.9366,-1.9482,-1.9693,-2.0747,-2.136,-2.149,-2.225,0.0,-2.2602,-2.3554,-2.3998,-2.4097,-2.5226,-2.5742,-2.5742,-2.5742,-2.5742,-2.5742,0.0,0.0,0.0,0.0,0.0,0.0,0.0,0.0,0.0,0.0,-0.5491,0.0,0.0,0.0,0.0,0.0,0.0,0.0,0.0,0.0,0.0,0.0,0.0,0.0,0.0,0.0,0.0,0.0,0.0,0.0,0.0,0.0,0.0,0.0,0.0,0.0,0.0,0.0,0.0,0.0,0.0,0.0,0.0,0.0,0.0,0.0,0.0,0.0,0.0,0.0,-1.2557,-1.3767,-1.4877,-1.6106,-1.7388,-1.8337,-1.9072,-1.9713,-2.0354,-2.0775,-2.0929,-2.0494,-1.9947,-1.9078,-1.7395,-1.6106,0.0,0.0,0.0,-1.1189,-1.0913,-1.1136,0.0,-1.332,0.0,0.0,0.0,0.0,-1.8464,0.0,0.0,0.0,0.0,0.0,0.0,0.0,0.0,-2.0468,-2.1002,-2.0989,-2.0895,-2.0755,-2.0414,-2.0094,-1.9806,-1.98,-1.9659,-1.9366,-1.9366,-2.0033,-2.1252,-2.1412,-2.2019,-2.3043,-2.4008,0.0,-2.4038,-2.4984,-2.5333,-2.5333,-2.5635,-2.5742,-2.5742,-2.5742,-2.5742,-2.5742,0.0,0.0,0.0,0.0,0.0,0.0,0.0,0.0,0.0,0.0,-0.5684,-0.546,0.0,0.0,0.0,0.0,0.0,0.0,0.0,0.0,0.0,0.0,0.0,0.0,0.0,0.0,0.0,0.0,0.0,0.0,0.0,0.0,0.0,0.0,0.0,0.0,0.0,0.0,0.0,0.0,0.0,0.0,0.0,0.0,0.0,0.0,0.0,0.0,0.0,0.0,-1.2087,-1.3941,-1.5738,-1.7007,-1.8003,-1.8891,-1.9459,-1.9927,-2.0514,-2.0889,-2.1002,-2.0575,-1.9679,-1.8444,-1.6653,0.0,0.0,0.0,0.0,-1.0267,-1.0127,0.0,0.0,0.0,0.0,0.0,0.0,0.0,0.0,0.0,0.0,0.0,0.0,0.0,0.0,0.0,0.0,-2.0421,-2.0862,-2.0735,-2.0661,-2.0675,-2.0541,-2.0254,-1.9806,-1.9953,-2.0142,-2.0594,-2.0594,-2.1373,-2.2814,-2.359,-2.4276,-2.4863,-2.5899,0.0,-2.5711,-2.5942,-2.5947,-2.5742,-2.5742,-2.5742,-2.5742,-2.5742,-2.5742,-2.5742,0.0,0.0,0.0,0.0,0.0,0.0,0.0,-0.5383,-0.5686,-0.6407,-0.6015,-0.5952,-0.6669,-0.6518,-0.6397,0.0,0.0,0.0,0.0,0.0,0.0,0.0,0.0,0.0,0.0,0.0,0.0,0.0,0.0,0.0,0.0,0.0,0.0,0.0,0.0,0.0,0.0,0.0,0.0,0.0,0.0,0.0,0.0,0.0,0.0,0.0,0.0,0.0,0.0,0.0,-1.1296,-1.3369,-1.5749,-1.7069,-1.7989,-1.8691,-1.9319,-1.9913,-2.0441,-2.0842,-2.1029,-2.0668,-1.9479,-1.7909,-1.6066,-1.4095,0.0,0.0,-0.9993,-0.9613,-0.9673,0.0,0.0,0.0,0.0,0.0,0.0,0.0,0.0,0.0,0.0,0.0,0.0,0.0,0.0,0.0,0.0,0.0,-2.0568,-2.0361,-2.0307,-2.0481,-2.0488,-2.0241,-1.9713,-2.0278,-2.0836,-2.1586,-2.1919,-2.2814,-2.4378,-2.5599,-2.6264,-2.658,-2.7401,0.0,0.0,-2.6562,-2.6133,-2.5742,-2.5742,-2.5742,-2.5742,-2.5742,-2.5742,-2.5742,0.0,0.0,0.0,0.0,0.0,0.0,0.0,-0.5844,-0.6018,-0.6457,-0.6747,-0.7089,-0.7539,-0.6617,0.0,0.0,0.0,0.0,0.0,0.0,0.0,0.0,0.0,0.0,0.0,0.0,0.0,0.0,0.0,0.0,0.0,0.0,0.0,0.0,0.0,0.0,0.0,0.0,0.0,0.0,0.0,0.0,0.0,0.0,0.0,0.0,0.0,0.0,0.0,0.0,0.0,-1.234,-1.3712,-1.5562,-1.7248,-1.7328,0.0,0.0,-2.0187,-2.0681,-2.0975,-2.0414,-1.9158,-1.7528,-1.5504,0.0,0.0,0.0,-0.9686,-0.9359,-0.9633,-0.9746,0.0,0.0,0.0,0.0,0.0,0.0,0.0,0.0,0.0,0.0,0.0,0.0,0.0,0.0,0.0,0.0,-2.0261,-2.0247,-2.0127,-1.9887,-1.988,-1.9726,-1.9412,-2.0773,-2.1531,-2.1586,-2.2927,-2.4378,-2.5927,-2.6045,-2.6825,-2.8048,-2.7851,0.0,0.0,-2.6562,-2.6133,-2.5742,-2.5742,-2.5742,-2.5742,-2.5742,-2.5742,-2.5742,0.0,0.0,0.0,0.0,0.0,0.0,0.0,-0.5865,-0.6224,-0.7097,-0.6937,-0.7097,-0.8025,-0.7211,-0.679,0.0,0.0,0.0,0.0,0.0,0.0,0.0,0.0,0.0,0.0,0.0,0.0,0.0,0.0,0.0,0.0,0.0,0.0,0.0,0.0,0.0,0.0,0.0,0.0,0.0,0.0,0.0,0.0,0.0,0.0,0.0,0.0,0.0,0.0,0.0,0.0,0.0,-1.165,-1.2963,0.0,0.0,-1.6967,-1.8196,-1.9386,-2.0267,-2.0708,-2.012,-1.8724,-1.7001,-1.5124,0.0,0.0,-1.0087,-0.9392,-0.9018,-0.9138,-0.9299,-0.9626,0.0,0.0,0.0,0.0,0.0,0.0,0.0,0.0,0.0,0.0,0.0,0.0,0.0,0.0,0.0,-1.9706,-1.9713,-1.974,-1.98,-1.98,-2.0116,-2.0702,-2.1443,-2.2671,-2.4369,-2.4931,-2.5936,-2.7394,-2.7394,-2.7726,-2.8271,-2.7851,0.0,0.0,-2.667,-2.6289,-2.6103,-2.584,-2.5742,-2.5742,-2.5742,-2.5742,-2.5742,0.0,0.0,0.0,0.0,0.0,0.0,-0.5533,-0.5967,-0.6492,-0.726,-0.7167,-0.7326,-0.8123,-0.7542,-0.7207,-0.75,0.0,0.0,0.0,0.0,0.0,0.0,0.0,0.0,0.0,0.0,0.0,0.0,0.0,0.0,0.0,0.0,0.0,0.0,0.0,0.0,0.0,0.0,0.0,0.0,0.0,0.0,0.0,0.0,0.0,0.0,0.0,0.0,0.0,0.0,0.0,0.0,0.0,0.0,0.0,0.0,-1.5393,-1.6627,-1.8063,-1.9285,-2.004,-1.9539,-1.8136,-1.6453,0.0,0.0,-1.0748,-0.9866,-0.9218,-0.8804,-0.8804,-0.9045,-0.9256,0.0,0.0,0.0,0.0,0.0,0.0,0.0,0.0,0.0,0.0,0.0,0.0,0.0,0.0,0.0,-2.004,-2.0033,-2.0129,-2.0344,-2.0434,-2.1017,-2.2258,-2.2938,-2.4174,-2.6155,-2.649,-2.7276,-2.8291,-2.8164,-2.8105,-2.8086,-2.7656,0.0,0.0,-2.6689,-2.6387,-2.6348,-2.5908,-2.5742,-2.5742,-2.5742,-2.5742,-2.5742,0.0,0.0,0.0,0.0,0.0,0.0,0.0,-0.6212,-0.6878,-0.6547,-0.7544,-0.8148,-0.7764,-0.7344,-0.7118,-0.7118,0.0,0.0,0.0,0.0,0.0,0.0,0.0,0.0,0.0,0.0,0.0,-0.8716,-0.8716,0.0,0.0,0.0,0.0,0.0,0.0,0.0,0.0,0.0,0.0,0.0,0.0,0.0,0.0,0.0,0.0,0.0,0.0,0.0,0.0,0.0,0.0,0.0,0.0,0.0,0.0,0.0,-1.3877,-1.5545,-1.6139,-1.7595,-1.8871,-1.8577,-1.7388,-1.5899,0.0,0.0,-1.0748,-0.9866,-0.9218,-0.8804,-0.8804,-0.9045,-0.9183,-0.919,-0.998,0.0,0.0,0.0,0.0,0.0,0.0,0.0,0.0,0.0,0.0,0.0,0.0,0.0,-2.1472,-2.1586,-2.1586,-2.1586,-2.1784,-2.259,-2.3822,-2.527,-2.6045,-2.6155,-2.7618,-2.8291,-2.8281,-2.7861,-2.7676,0.0,0.0,0.0,0.0,-2.6562,-2.6387,-2.6348,-2.5908,-2.5742,-2.5742,-2.5742,-2.5742,-2.5742,0.0,0.0,0.0,0.0,0.0,0.0,0.0,-0.6415,-0.6878,-0.7461,-0.7623,-0.7787,-0.8088,-0.7734,-0.7403,-0.7118,0.0,0.0,0.0,0.0,0.0,0.0,0.0,0.0,0.0,0.0,-0.7516,-0.7281,-0.7623,-0.7624,-0.7273,0.0,0.0,0.0,0.0,0.0,0.0,0.0,0.0,0.0,0.0,0.0,0.0,0.0,0.0,0.0,0.0,0.0,0.0,0.0,0.0,0.0,0.0,0.0,0.0,0.0,0.0,0.0,-1.4148,-1.5177,-1.5845,-1.5551,-1.4663,-1.3581,-1.2512,-1.1142,-0.996,-0.9479,-0.9437,-0.9361,-0.891,-0.9235,-0.9663,-0.9798,-1.0074,0.0,0.0,0.0,0.0,0.0,0.0,0.0,0.0,0.0,0.0,0.0,0.0,0.0,-2.3039,-2.3151,-2.3151,-2.3151,-2.3143,-2.3929,-2.538,-2.5827,-2.6608,-2.7609,-2.8067,-2.8144,-2.7861,-2.7725,-2.75,0.0,0.0,0.0,0.0,-2.624,-2.6123,-2.6348,-2.5908,-2.5742,-2.5742,-2.5742,-2.5742,-2.5742,0.0,0.0,0.0,0.0,0.0,0.0,0.0,-0.6231,-0.6608,-0.7098,-0.7209,-0.7338,-0.7564,-0.7217,-0.6943,-0.6883,0.0,0.0,0.0,0.0,0.0,0.0,0.0,0.0,0.0,-0.68,-0.6638,-0.6465,-0.687,-0.7025,-0.6854,-0.7138,-0.7104,0.0,0.0,0.0,0.0,0.0,0.0,0.0,0.0,0.0,-0.7868,0.0,0.0,0.0,0.0,0.0,0.0,0.0,0.0,0.0,0.0,0.0,0.0,0.0,-0.9811,0.0,0.0,-1.3385,-1.389,-1.3947,-1.3226,0.0,0.0,-1.0441,-0.9599,-0.925,-0.9314,-0.9309,-0.8857,-0.9159,-0.9589,-1.0186,-1.0146,0.0,0.0,0.0,0.0,0.0,0.0,0.0,0.0,0.0,0.0,0.0,0.0,0.0,-2.4599,-2.471,-2.4931,-2.5498,-2.4931,-2.538,-2.6943,-2.6943,-2.7384,-2.8291,-2.8135,-2.792,-2.7656,-2.7334,-2.7041,0.0,0.0,0.0,0.0,-2.6025,-2.5996,-2.6348,-2.5908,-2.5742,-2.5742,-2.5742,-2.5742,-2.5742,0.0,0.0,0.0,0.0,0.0,0.0,0.0,0.0,0.0,0.0,-0.65,-0.6837,-0.6518,-0.6126,-0.6045,0.0,0.0,0.0,0.0,0.0,0.0,0.0,0.0,0.0,0.0,-0.6092,-0.5852,-0.6162,-0.6478,-0.66,-0.6627,-0.6921,-0.6914,-0.666,-0.6934,-0.6894,-0.666,-0.7271,-0.718,-0.669,-0.7516,-0.7815,0.0,0.0,0.0,0.0,0.0,0.0,0.0,0.0,0.0,0.0,0.0,0.0,0.0,0.0,0.0,0.0,0.0,0.0,0.0,0.0,0.0,0.0,0.0,-1.0207,0.0,-0.921,-0.8991,-0.8864,-0.8831,-0.8937,-0.9358,-1.0406,0.0,0.0,0.0,0.0,0.0,0.0,0.0,0.0,0.0,0.0,0.0,0.0,0.0,0.0,-2.6155,-2.6264,-2.6825,-2.8291,-2.6915,-2.6896,-2.8252,-2.8281,-2.8281,-2.8242,-2.7851,-2.7646,-2.7588,-2.6768,-2.6367,0.0,0.0,0.0,0.0,-2.5908,-2.5977,-2.6299,-2.5898,-2.5742,-2.5742,-2.5742,-2.5742,-2.5742,0.0,0.0,0.0,0.0,0.0,0.0,0.0,0.0,0.0,0.0,0.0,-0.663,-0.7245,-0.7002,0.0,0.0,0.0,0.0,0.0,0.0,0.0,0.0,0.0,0.0,0.0,-0.5858,-0.5745,-0.5818,-0.6333,-0.67,-0.6927,-0.7221,-0.7372,-0.7305,-0.7372,-0.7194,-0.6941,-0.7308,-0.7291,-0.692,-0.7115,-0.7191,0.0,0.0,0.0,0.0,-0.709,-0.7105,0.0,0.0,0.0,0.0,0.0,0.0,0.0,0.0,-0.8146,-0.8659,-0.9739,0.0,-0.9791,-0.9966,0.0,0.0,0.0,0.0,0.0,0.0,0.0,0.0,0.0,0.0,0.0,0.0,0.0,0.0,0.0,0.0,0.0,0.0,0.0,0.0,0.0,0.0,0.0,0.0,0.0,-2.6164,-2.7726,-2.7736,-2.795,-2.8291,-2.7651,-2.7477,-2.7812,-2.8135,-2.8135,-2.7812,-2.7715,-2.749,-2.7148,-2.6631,-2.6201,0.0,0.0,0.0,-2.5889,-2.5781,-2.5791,-2.5879,-2.5781,-2.5742,-2.5742,-2.5742,-2.5742,-2.5742,0.0,0.0,0.0,0.0,0.0,0.0,0.0,0.0,0.0,0.0,0.0,0.0,0.0,0.0,0.0,0.0,0.0,0.0,0.0,0.0,0.0,0.0,0.0,0.0,-0.5913,-0.5651,-0.5645,-0.5919,-0.627,-0.6607,-0.6985,-0.7328,-0.7587,-0.7675,-0.7574,-0.7301,-0.7034,-0.7194,-0.7168,-0.6979,-0.6979,0.0,0.0,0.0,0.0,0.0,-0.6979,-0.6979,0.0,-0.6979,-0.6979,-0.6979,0.0,0.0,0.0,0.0,-0.7802,-0.8295,-0.882,-0.8982,-0.9059,-0.9428,-0.9213,-0.9005,0.0,0.0,0.0,0.0,0.0,0.0,0.0,0.0,0.0,0.0,0.0,0.0,0.0,0.0,0.0,0.0,0.0,0.0,0.0,0.0,0.0,0.0,0.0,-2.7501,-2.8291,-2.8291,-2.8291,-2.8291,-2.7881,-2.7666,-2.7666,-2.7695,-2.7588,-2.7363,-2.7168,-2.6953,-2.6709,-2.6289,-2.5967,0.0,0.0,0.0,-2.5742,-2.5742,-2.5742,-2.5742,-2.5742,-2.5742,-2.5742,-2.5742,-2.5742,-2.5742,0.0,0.0,0.0,0.0,0.0,0.0,0.0,0.0,0.0,0.0,0.0,0.0,0.0,0.0,0.0,0.0,0.0,0.0,0.0,0.0,0.0,0.0,0.0,-0.5831,-0.5863,-0.5529,-0.5645,-0.6196,-0.633,-0.6646,-0.7101,-0.7488,-0.7762,-0.7868,-0.7609,-0.7301,-0.6985,-0.7068,-0.7061,-0.6979,-0.6979,0.0,0.0,0.0,0.0,0.0,0.0,0.0,0.0,-0.6974,-0.7014,-0.7074,-0.6981,0.0,0.0,0.0,0.0,0.0,-0.8237,-0.8798,-0.9397,-0.9944,-0.974,-0.9398,0.0,0.0,0.0,0.0,0.0,0.0,0.0,0.0,0.0,0.0,0.0,0.0,0.0,0.0,0.0,0.0,0.0,0.0,0.0,0.0,0.0,0.0,0.0,-2.8223,-2.8291,-2.8232,-2.8223,-2.8291,-2.7822,-2.7568,-2.7568,-2.7197,-2.6982,-2.6914,-2.6562,-2.6387,-2.6367,-2.5937,-2.5742,-2.5742,0.0,0.0,-2.5742,-2.5742,-2.5742,-2.5742,-2.5742,-2.5742,-2.5742,-2.5742,-2.5693,-2.5635,0.0,0.0,0.0,0.0,0.0,0.0,0.0,0.0,0.0,0.0,0.0,0.0,0.0,0.0,0.0,0.0,0.0,0.0,0.0,0.0,0.0,0.0,-0.5472,-0.5553,-0.5732,-0.5678,-0.5812,-0.6196,-0.6942,-0.7352,-0.7459,-0.8223,-0.8363,-0.7868,-0.7609,-0.7301,-0.7034,-0.7295,-0.7255,-0.6979,-0.6979,0.0,0.0,0.0,0.0,0.0,0.0,0.0,0.0,-0.674,-0.6987,-0.7358,-0.6814,0.0,0.0,0.0,0.0,0.0,-0.7989,-0.8791,-0.9556,-0.9153,-0.9585,-1.0151,0.0,0.0,0.0,0.0,0.0,0.0,0.0,0.0,0.0,0.0,0.0,0.0,0.0,0.0,0.0,0.0,0.0,0.0,0.0,0.0,0.0,0.0,0.0,-2.792,-2.8271,-2.7959,-2.792,-2.8281,-2.7529,-2.7119,-2.7119,-2.7051,-2.6836,-2.6484,-2.6416,-2.6387,-2.6367,-2.5937,-2.5742,-2.5742,0.0,-2.5742,-2.5742,-2.5742,-2.5742,-2.5742,-2.5742,-2.5742,-2.5742,-2.5742,-2.5498,-2.5166,0.0,0.0,0.0,0.0,0.0,0.0,0.0,0.0,0.0,0.0,0.0,0.0,0.0,0.0,0.0,0.0,0.0,0.0,0.0,0.0,0.0,-0.5274,-0.5333,-0.5453,-0.5705,-0.5711,-0.6092,-0.6908,-0.7108,-0.7475,-0.8017,-0.8383,-0.8343,-0.7916,-0.7927,-0.7607,-0.7034,-0.7517,-0.7447,-0.6979,0.0,0.0,0.0,0.0,0.0,0.0,0.0,0.0,0.0,0.0,-0.7001,-0.7181,-0.6907,0.0,0.0,0.0,0.0,0.0,-0.8522,-0.9468,-1.0512,-1.0318,-1.0758,-1.1287,-1.1567,0.0,0.0,0.0,0.0,0.0,0.0,0.0,0.0,0.0,0.0,0.0,0.0,0.0,0.0,0.0,0.0,0.0,0.0,0.0,0.0,0.0,0.0,0.0,-2.7598,-2.7422,-2.7402,-2.7598,-2.7002,-2.668,-2.668,-2.6445,-2.623,-2.6035,-2.6035,-2.6035,-2.6025,-2.583,-2.5742,-2.5742,0.0,-2.5596,-2.54,-2.5635,-2.5596,-2.54,-2.5644,-2.5586,-2.5352,-2.5107,-2.5195,-2.54,0.0,0.0,0.0,0.0,0.0,0.0,0.0,0.0,0.0,0.0,0.0,0.0,0.0,0.0,0.0,0.0,0.0,0.0,0.0,0.0,-0.498,-0.5225,-0.5342,-0.5518,-0.5812,-0.5952,-0.6493,-0.7513,-0.7315,-0.7622,-0.842,-0.8279,-0.8076,-0.7909,-0.8119,-0.7845,-0.7238,-0.7821,-0.7739,-0.7196,0.0,0.0,0.0,0.0,0.0,0.0,0.0,0.0,0.0,0.0,0.0,0.0,0.0,0.0,0.0,-0.7759,-0.8645,-0.9619,-0.9338,-1.0258,-1.1341,-1.1513,0.0,-1.2297,-1.3109,0.0,0.0,0.0,0.0,0.0,0.0,0.0,0.0,0.0,0.0,0.0,0.0,0.0,0.0,0.0,0.0,0.0,0.0,0.0,0.0,0.0,0.0,0.0,-2.7021,-2.6924,-2.6914,-2.7012,-2.6602,-2.6387,-2.6387,-2.6241,-2.5964,-2.5586,-2.5684,-2.5684,-2.5586,-2.5684,-2.5742,-2.5742,-2.5742,-2.5547,-2.5244,-2.5757,-2.5563,-2.5192,-2.5727,-2.5553,-2.5,-2.4473,-2.4766,-2.5361,0.0,0.0,0.0,0.0,0.0,0.0,0.0,0.0,0.0,0.0,0.0,0.0,0.0,0.0,0.0,0.0,0.0,0.0,0.0,0.0,-0.5196,-0.53,-0.5524,-0.5818,-0.6156,-0.6653,-0.7108,-0.7513,-0.7736,-0.8036,-0.8363,-0.7842,-0.7675,-0.7903,-0.7939,-0.7893,-0.787,-0.8398,-0.8316,-0.7829,-0.7829,0.0,0.0,0.0,0.0,0.0,0.0,0.0,0.0,0.0,0.0,0.0,0.0,0.0,-0.8467,-0.9432,-0.969,-0.9768,-1.02,-1.0797,-1.1381,-1.1698,0.0,0.0,-1.4978,-1.5704,0.0,0.0,0.0,0.0,0.0,0.0,0.0,0.0,0.0,0.0,0.0,0.0,0.0,0.0,0.0,0.0,0.0,0.0,0.0,0.0,0.0,0.0,-2.6992,-2.665,-2.6611,-2.7002,-2.6602,-2.6387,-2.6387,-2.7074,-2.672,-2.5127,-2.5537,-2.5518,-2.5127,-2.5547,-2.5742,-2.5742,-2.5742,-2.5723,-2.5751,-2.637,-2.5999,-2.5163,-2.6186,-2.5999,-2.4971,-2.4141,-2.4121,-2.4536,0.0,0.0,0.0,0.0,0.0,0.0,0.0,0.0,0.0,0.0,0.0,0.0,0.0,0.0,0.0,0.0,0.0,0.0,0.0,0.0,-0.5223,-0.5295,-0.5558,-0.5852,-0.6189,-0.6546,-0.6987,-0.7513,-0.7776,-0.7941,-0.809,-0.7662,-0.7574,-0.7668,-0.8192,-0.8193,-0.7953,-0.8837,-0.8878,-0.8357,-0.8036,-0.7746,0.0,0.0,0.0,0.0,0.0,0.0,0.0,0.0,-0.7799,-0.8273,0.0,-0.8733,-0.9115,-0.9433,-1.0189,-1.0921,-1.0989,-1.2004,-1.3026,-1.2884,0.0,0.0,0.0,0.0,0.0,0.0,0.0,0.0,0.0,0.0,0.0,0.0,0.0,0.0,0.0,0.0,0.0,0.0,0.0,0.0,0.0,0.0,0.0,0.0,0.0,0.0,-2.6951,-2.7043,-2.7552,-2.8455,-2.8296,-2.8072,-2.7774,-2.8055,-2.7569,-2.637,-2.7136,-2.7253,-2.6706,-2.6886,-2.6971,-2.6971,-2.6971,-2.6801,-2.6647,-2.709,-2.6972,-2.636,-2.679,-2.6885,-2.6589,-2.5753,-2.5881,-2.6445,0.0,0.0,0.0,0.0,0.0,0.0,0.0,0.0,0.0,0.0,0.0,0.0,0.0,0.0,0.0,0.0,0.0,0.0,0.0,-0.5546,-0.5389,-0.5302,-0.5558,-0.5812,-0.6048,-0.6393,-0.688,-0.7513,-0.7682,-0.7782,-0.7776,-0.7468,-0.7555,-0.7944,-0.8464,-0.8766,-0.8837,-0.9506,-0.9511,-0.9079,-0.8602,-0.8316,0.0,0.0,0.0,0.0,0.0,0.0,0.0,0.0,-0.8398,-0.8741,0.0,-0.9374,-0.9767,-1.0117,-1.086,-1.1635,-1.1818,-1.2654,-1.3474,0.0,0.0,0.0,0.0,0.0,0.0,0.0,0.0,0.0,0.0,0.0,0.0,0.0,0.0,0.0,0.0,0.0,0.0,0.0,0.0,0.0,0.0,0.0,0.0,0.0,0.0,0.0,0.0,-2.75,-2.8039,-2.8846,-2.8846,-2.8679,-2.8344,-2.8697,-2.8453,-2.7622,-2.8757,-2.8637,-2.7509,-2.7665,-2.7732,-2.7732,-2.7732,-2.7542,-2.735,-2.7872,-2.7918,-2.7599,-2.7105,-2.7171,-2.7409,-2.6774,-2.6814,-2.7327,0.0,0.0,0.0,0.0,0.0,0.0,0.0,0.0,0.0,0.0,0.0,0.0,0.0,0.0,0.0,0.0,0.0,0.0,-0.654,-0.6129,-0.5734,-0.534,-0.5558,-0.5711,-0.5718,-0.633,-0.6922,-0.7506,-0.7506,-0.7506,-0.75,-0.7161,-0.7685,-0.889,-0.8786,-0.9502,-1.0774,-1.0433,-1.0229,-1.0062,-0.9672,-0.9199,-0.8716,0.0,0.0,0.0,0.0,0.0,0.0,0.0,-0.8724,-0.8864,0.0,0.0,0.0,-1.1782,-1.1914,-1.1802,-1.2637,-1.2578,0.0,0.0,0.0,0.0,0.0,0.0,0.0,0.0,0.0,0.0,0.0,0.0,0.0,0.0,0.0,0.0,0.0,0.0,0.0,0.0,0.0,0.0,0.0,0.0,0.0,0.0,0.0,0.0,0.0,-2.7732,-2.7732,-2.7732,-2.7732,-2.7732,-2.7732,-2.8951,-2.9308,-2.8786,-2.9998,-2.9407,-2.7115,-2.7498,-2.772,-2.772,-2.772,-2.772,-2.7774,-2.8489,-2.8798,-2.8657,-2.7158,-2.6763,-2.7048,-2.6651,-2.6565,-2.6719,0.0,0.0,0.0,0.0,0.0,0.0,0.0,0.0,0.0,0.0,0.0,0.0,0.0,0.0,0.0,0.0,0.0,0.0,-0.694,-0.6548,-0.6275,-0.616,-0.6131,-0.6419,-0.7009,-0.7718,-0.7975,-0.7801,-0.7801,-0.797,-0.8341,-0.8508,-0.8691,-0.8786,-0.9409,-0.9783,-0.9894,-1.0184,-1.0273,-1.0211,-0.9683,-0.9399,-0.9239,0.0,0.0,0.0,0.0,0.0,0.0,0.0,0.0,0.0,-1.087,0.0,-1.0874,-1.1882,-1.2139,-1.2158,-1.2725,-1.3223,0.0,0.0,0.0,0.0,0.0,0.0,0.0,0.0,0.0,0.0,0.0,0.0,0.0,0.0,0.0,0.0,0.0,0.0,0.0,0.0,0.0,0.0,0.0,0.0,0.0,0.0,0.0,0.0,0.0,-2.885,-2.9388,-3.0252,-3.0335,-3.0082,-2.9731,-3.0082,-3.0066,-2.9522,-2.9874,-2.9704,-2.9034,-2.91,-2.9173,-2.9173,-2.9173,-2.9173,-2.9161,-2.9426,-2.9522,-2.9431,-2.9022,-2.8889,-2.8998,-2.8852,-2.8791,-2.8882,0.0,0.0,0.0,0.0,0.0,0.0,0.0,0.0,0.0,0.0,0.0,0.0,0.0,0.0,0.0,0.0,0.0,0.0,0.0,0.0,-0.6725,-0.6725,-0.6519,-0.6827,-0.78,-0.8075,-0.8287,-0.8521,-0.8316,-0.8398,-0.8724,-0.9123,-0.9384,-0.957,-0.9935,-1.0279,-1.0545,-1.0379,-1.0518,-1.0762,-1.0094,-0.9897,-1.0037,0.0,0.0,0.0,0.0,0.0,0.0,0.0,0.0,0.0,-1.1439,0.0,0.0,-1.2034,-1.218,-1.2278,-1.2764,0.0,0.0,0.0,0.0,0.0,0.0,0.0,0.0,0.0,0.0,0.0,0.0,0.0,0.0,0.0,0.0,0.0,0.0,0.0,0.0,0.0,0.0,0.0,0.0,0.0,0.0,0.0,0.0,0.0,0.0,-2.9557,-2.9996,-3.0758,-3.0758,-3.0608,-3.0294,-3.0281,-3.0118,-2.9792,-2.9792,-2.9792,-2.9792,-2.9792,-2.9792,-2.9792,-2.9792,-2.9792,-2.9792,-2.9792,-2.9792,-2.9792,-2.9792,-2.9792,-2.9792,-2.9792,-2.9792,-2.9792,0.0,0.0,0.0,0.0,0.0,0.0,0.0,0.0,0.0,0.0,0.0,0.0,0.0,0.0,0.0,0.0,0.0,0.0,0.0,0.0,-0.7147,-0.7212,-0.6949,-0.7279,-0.8316,-0.7895,-0.8281,-0.9558,-0.9039,-0.8797,-0.8846,-0.9283,-0.9961,-1.0763,-1.0374,-1.0882,-1.1973,-1.0791,-1.0793,-1.1565,-1.0775,-1.0716,-1.1204,-1.1785,0.0,0.0,0.0,0.0,0.0,0.0,0.0,0.0,-1.1782,-1.1994,-1.2224,-1.2266,-1.2209,-1.2278,0.0,0.0,0.0,0.0,0.0,0.0,0.0,0.0,0.0,0.0,0.0,0.0,0.0,0.0,0.0,0.0,0.0,0.0,0.0,0.0,0.0,0.0,0.0,0.0,0.0,0.0,0.0,0.0,0.0,0.0,0.0,-2.9792,-2.9792,-2.9792,-2.9792,-2.9792,-2.9792,-2.9792,-2.9792,-2.9792,-2.9792,-2.9792,-2.9792,-2.9792,-2.9792,-2.9792,-2.9792,-2.9792,-2.9792,-2.9792,-2.9792,-2.9792,-2.9792,-2.9792,-2.9792,-2.9792,-2.9792,-2.9792,0.0,0.0,0.0,0.0,0.0,0.0,0.0,0.0,0.0,0.0,0.0,0.0,0.0,0.0,0.0,0.0,0.0,0.0,0.0,0.0,-0.7637,-0.8105,-0.8643,-0.9032,-0.9217,-0.9499,-0.9818,-1.0127,-0.9597,-0.9558,-0.998,-1.0761,-1.0851,-1.0416,-1.1026,-1.1068,-1.0684,-1.04,-1.0845,-1.1756,-1.1609,-1.209,-1.2869,-1.3003,-1.3017,0.0,0.0,0.0,0.0,0.0,0.0,0.0,-1.3254,-1.292,-1.249,-1.2681,-1.25,-1.2278,0.0,0.0,0.0,0.0,0.0,0.0,0.0,0.0,0.0,0.0,0.0,0.0,0.0,0.0,0.0,0.0,0.0,0.0,0.0,0.0,0.0,0.0,0.0,0.0,0.0,0.0,0.0,0.0,0.0,0.0,-2.9792,-2.9792,-2.9792,-2.9792,-2.9792,-2.9792,-2.9792,-2.9792,-2.9792,0.0,-2.9792,-2.9792,-2.9792,-2.9792,-2.9792,-2.9792,-2.9792,-2.9792,-2.9792,-2.9792,-2.9792,-2.9792,-2.9792,-2.9792,-2.9792,-2.9792,-2.9792,-2.9792,0.0,0.0,0.0,0.0,0.0,0.0,0.0,0.0,0.0,0.0,0.0,0.0,0.0,0.0,0.0,0.0,0.0,0.0,0.0,0.0,0.0,-0.827,-0.9115,-0.9657,-0.9873,-0.9922,-1.004,-1.0283,-1.0191,0.0,0.0,0.0,0.0,-1.123,-1.168,-1.1631,-1.1201,-1.1307,-1.1789,-1.2425,-1.2585,-1.3081,-1.3769,-1.4051,-1.3971,-1.3819,-1.4625,0.0,0.0,0.0,0.0,0.0,0.0,0.0,-1.2736,-1.284,-1.2725,-1.2635,0.0,0.0,0.0,0.0,0.0,0.0,0.0,0.0,0.0,0.0,0.0,0.0,0.0,0.0,0.0,0.0,0.0,0.0,0.0,0.0,0.0,0.0,0.0,0.0,0.0,0.0,0.0,0.0,0.0,-2.9792,-2.9792,-2.9792,-2.9792,-2.9792,-2.9792,-2.9792,-2.9792,-2.9792,-2.9792,-2.9792,-2.9792,-2.9792,-2.9792,-2.9792,-2.9792,-2.9792,-2.9792,-2.9792,-2.9792,-2.9792,-2.9792,-2.9792,-2.9792,-2.9792,-2.9792,-2.9792,-2.9792,-2.9792,0.0,0.0,0.0,0.0,0.0,0.0,0.0,0.0,0.0,0.0,0.0,0.0,0.0,0.0,0.0,0.0,0.0,0.0,0.0,0.0,0.0,-0.8396,-0.9181,-0.9843,-1.0283,-0.9883,-0.9872,-1.0391,0.0,0.0,0.0,0.0,0.0,-1.2246,0.0,-1.2488,-1.2443,-1.2572,-1.2958,-1.3433,-1.3606,-1.4006,-1.4583,-1.5054,-1.4933,-1.4696,-1.6001,-1.5838,-1.4955,-1.4969,0.0,0.0,0.0,0.0,-1.31,-1.3084,-1.3006,-1.31,0.0,0.0,0.0,0.0,0.0,0.0,0.0,0.0,0.0,0.0,0.0,0.0,0.0,0.0,0.0,0.0,0.0,0.0,0.0,0.0,0.0,0.0,0.0,0.0,0.0,0.0,0.0,0.0,0.0,-2.9641,-2.9641,-2.9641,-2.9641,-2.9641,-2.9641,-2.9691,-2.9792,-2.9792,-2.9741,-2.9641,-2.9553,-2.9553,-2.9641,-2.9641,-2.9691,-2.9792,-2.9792,-2.9792,-2.9792,-2.9792,-2.9792,-2.9792,-2.9792,-2.9792,-2.9792,-2.9792,-2.9792,-2.9792,0.0,0.0,0.0,0.0,0.0,0.0,0.0,0.0,0.0,0.0,0.0,0.0,0.0,0.0,0.0,0.0,0.0,0.0,-0.8199,0.0,0.0,-0.934,-0.9894,-1.0244,-1.0283,-1.0244,-1.0419,-1.082,0.0,0.0,0.0,0.0,0.0,-1.2509,0.0,0.0,-1.3248,-1.3264,-1.3857,-1.473,-1.4797,-1.535,-1.6182,-1.628,-1.6273,-1.6223,-1.6416,-1.6058,-1.5592,-1.6083,-1.5876,0.0,0.0,0.0,-1.3905,-1.371,-1.3403,0.0,0.0,0.0,0.0,0.0,0.0,0.0,0.0,0.0,0.0,0.0,0.0,0.0,0.0,0.0,0.0,0.0,0.0,0.0,0.0,0.0,0.0,0.0,0.0,0.0,0.0,0.0,0.0,0.0,-2.9327,-2.9038,-2.9038,-2.9038,-2.9038,-2.9038,-2.9038,-2.9289,-2.9779,-2.9792,-2.9541,-2.9038,-2.8561,-2.8586,-2.9038,-2.9038,-2.9315,-2.9792,-2.9792,-2.9792,-2.9792,-2.9792,-2.9792,-2.9792,-2.9792,-2.9792,-2.9792,-2.9792,-2.9792,-2.9792,0.0,0.0,0.0,0.0,0.0,0.0,0.0,0.0,0.0,0.0,0.0,0.0,0.0,0.0,0.0,-0.8437,-0.8223,-0.8242,-0.8611,-0.902,-0.9328,-0.95,-1.0,-1.0428,-1.0687,-1.0666,-1.0884,0.0,0.0,0.0,0.0,-1.3576,-1.3903,0.0,0.0,0.0,0.0,-1.4482,-1.4912,-1.5384,-1.5709,-1.6126,-1.6522,-1.6522,-1.6522,-1.6522,-1.6522,-1.6324,-1.6095,-1.6008,-1.582,-1.5499,-1.488,0.0,0.0,0.0,0.0,0.0,0.0,0.0,0.0,0.0,0.0,0.0,0.0,0.0,0.0,0.0,0.0,0.0,0.0,0.0,0.0,0.0,0.0,0.0,0.0,0.0,0.0,0.0,0.0,0.0,0.0,0.0,0.0,0.0,-2.8612,-2.8461,-2.8461,-2.8461,-2.8461,-2.8461,-2.8461,-2.8586,-2.885,-2.885,-2.8712,-2.8461,-2.8222,-2.8235,-2.8461,-2.8461,-2.8775,-2.9327,-2.9654,-2.9616,-2.934,-2.9666,-2.9792,-2.9792,-2.9792,-2.9792,-2.9792,-2.9792,-2.9792,-2.9792,0.0,0.0,0.0,0.0,0.0,0.0,0.0,0.0,0.0,0.0,0.0,0.0,0.0,0.0,0.0,0.0,-0.8777,-0.868,-0.8986,-0.93,-0.9542,-0.9707,-1.0332,-1.0771,-1.0981,-1.1233,-1.1562,0.0,0.0,0.0,-1.3103,-1.4165,-1.488,0.0,-1.5152,0.0,0.0,0.0,0.0,0.0,0.0,-1.6637,0.0,-1.6637,-1.6637,-1.6522,-1.6522,-1.638,-1.6238,-1.5908,-1.5732,-1.5543,-1.505,-1.4926,0.0,0.0,0.0,0.0,0.0,0.0,0.0,0.0,0.0,0.0,0.0,0.0,0.0,0.0,0.0,0.0,0.0,0.0,0.0,0.0,0.0,0.0,0.0,0.0,0.0,0.0,0.0,0.0,0.0,0.0,0.0,0.0,-2.7971,-2.7833,-2.7695,-2.7682,-2.7682,-2.7682,-2.7682,-2.7821,-2.8109,-2.7959,-2.7896,-2.7896,-2.7758,-2.7758,-2.7896,-2.7896,-2.8122,-2.8549,-2.9264,-2.9327,-2.8976,-2.9553,-2.9792,-2.9792,-2.9792,-2.9792,-2.9792,-2.9792,-2.9792,-2.9792,0.0,0.0,0.0,0.0,0.0,0.0,0.0,0.0,0.0,0.0,0.0,0.0,-1.0446,-0.9898,-0.9581,-0.9642,-0.9245,-0.9125,-0.9527,-1.0351,-1.0633,-1.0254,-1.1134,0.0,-1.1029,-1.1976,0.0,0.0,0.0,0.0,-1.5407,-1.4915,-1.5287,-1.6423,-1.6423,-1.6423,-1.6423,0.0,0.0,0.0,0.0,0.0,0.0,0.0,0.0,0.0,0.0,-1.6151,-1.572,-1.6281,-1.6051,-1.5576,-1.5543,-1.5543,0.0,0.0,0.0,0.0,0.0,0.0,0.0,0.0,0.0,0.0,0.0,0.0,0.0,0.0,0.0,0.0,0.0,0.0,0.0,0.0,0.0,0.0,0.0,0.0,0.0,0.0,0.0,0.0,0.0,0.0,0.0,0.0,-2.762,-2.7092,-2.6647,-2.6609,-2.6609,-2.6609,-2.6609,-2.7042,-2.8097,-2.7595,-2.7318,-2.7318,-2.6804,-2.6816,-2.7318,-2.7318,-2.7344,-2.7431,-2.8499,-2.895,-2.8976,-2.9553,-2.9792,-2.9792,-2.9792,-2.9792,-2.9792,-2.9792,-2.9792,-2.9792,0.0,0.0,0.0,0.0,0.0,0.0,0.0,0.0,0.0,0.0,0.0,0.0,0.0,-1.0816,-1.0644,-1.0966,-1.0794,-1.0596,-1.0419,-1.0742,-1.0834,-1.0736,-1.1061,-1.1632,-1.2461,-1.2794,0.0,0.0,0.0,-1.4428,-1.5017,-1.5186,-1.5499,-1.5952,-1.6337,-1.668,-1.6993,-1.6637,0.0,0.0,0.0,0.0,0.0,0.0,0.0,0.0,0.0,0.0,0.0,-1.6423,-1.6582,-1.6629,-1.6269,0.0,0.0,0.0,0.0,0.0,0.0,0.0,0.0,0.0,0.0,0.0,0.0,0.0,0.0,0.0,0.0,0.0,0.0,0.0,0.0,0.0,0.0,0.0,0.0,0.0,0.0,0.0,0.0,0.0,0.0,0.0,0.0,0.0,0.0,-2.5963,-2.5435,-2.541,-2.541,-2.541,-2.5737,-2.6276,-2.7042,-2.6854,-2.6753,-2.6753,-2.6622,-2.6634,-2.6753,-2.6753,-2.6753,-2.6804,-2.7544,-2.7871,-2.7921,-2.8473,-2.8913,-2.9239,-2.9239,-2.9465,-2.9792,-2.9792,-2.9792,-2.9792,0.0,0.0,0.0,0.0,0.0,0.0,0.0,0.0,0.0,0.0,0.0,0.0,0.0,0.0,-1.1923,-1.2235,-1.2226,-1.2057,-1.1758,-1.1881,-1.1922,-1.1815,-1.2101,-1.2687,-1.3569,-1.387,0.0,0.0,0.0,0.0,0.0,-1.5499,-1.572,-1.5908,-1.6527,-1.6879,0.0,0.0,0.0,-1.7034,0.0,0.0,-1.7359,0.0,0.0,0.0,0.0,0.0,0.0,0.0,0.0,0.0,0.0,0.0,0.0,0.0,0.0,0.0,0.0,0.0,0.0,0.0,0.0,0.0,0.0,0.0,0.0,0.0,0.0,0.0,0.0,0.0,0.0,0.0,0.0,0.0,0.0,0.0,0.0,0.0,0.0,0.0,0.0,0.0,0.0,0.0,0.0,0.0,-2.4569,-2.4544,-2.4544,-2.4544,-2.5059,-2.5523,-2.5912,-2.5912,-2.5912,-2.5912,-2.5912,-2.6,-2.6163,-2.6163,-2.6276,-2.6546,-2.6854,-2.7105,-2.7318,-2.7871,-2.8323,-2.8649,-2.8649,-2.8888,-2.9252,-2.9428,-2.9503,-2.9503,0.0,0.0,0.0,0.0,0.0,0.0,0.0,0.0,0.0,0.0,0.0,0.0,0.0,0.0,0.0,-1.3451,-1.3451,-1.344,-1.3429,-1.3851,-1.3896,-1.3429,-1.4304,-1.4577,-1.4173,-1.515,0.0,0.0,0.0,0.0,0.0,0.0,-1.5964,-1.6552,-1.7076,-1.7034,-1.6552,0.0,-1.6522,-1.6663,0.0,-1.7849,-1.7651,0.0,0.0,0.0,-1.8226,-1.7886,0.0,-1.814,0.0,0.0,0.0,0.0,0.0,0.0,0.0,0.0,0.0,0.0,0.0,0.0,0.0,0.0,0.0,0.0,0.0,0.0,0.0,0.0,0.0,0.0,0.0,0.0,0.0,0.0,0.0,0.0,0.0,0.0,0.0,0.0,0.0,0.0,0.0,0.0,-2.4795,-2.4556,-2.4004,-2.3954,-2.3954,-2.3954,-2.4481,-2.4782,-2.4795,-2.4808,-2.482,-2.482,-2.482,-2.5084,-2.5573,-2.5573,-2.5887,-2.6483,-2.6496,-2.6741,-2.7268,-2.7821,-2.8059,-2.8084,-2.8084,-2.8097,-2.8172,-2.8699,-2.89,-2.89,0.0,0.0,0.0,0.0,0.0,0.0,0.0,0.0,0.0,0.0,0.0,0.0,-1.4852,-1.4614,-1.4398,-1.435,-1.4339,-1.4237,-1.393,-1.4043,-1.4055,-1.3922,-1.4173,-1.4607,-1.524,-1.5565,0.0,0.0,0.0,0.0,0.0,0.0,0.0,0.0,-1.7229,-1.7422,-1.7626,-1.7229,0.0,0.0,-1.8299,-1.8617,0.0,0.0,0.0,0.0,0.0,-1.9073,-1.9279,0.0,-1.9322,-1.9767,0.0,0.0,0.0,0.0,0.0,0.0,-1.7747,0.0,0.0,0.0,0.0,0.0,0.0,0.0,0.0,0.0,0.0,0.0,0.0,0.0,0.0,0.0,0.0,0.0,0.0,0.0,0.0,0.0,0.0,0.0,0.0,0.0,0.0,0.0,-2.423,-2.3979,-2.3401,-2.3,-2.2774,-2.2774,-2.3314,-2.3803,-2.4217,-2.4619,-2.482,-2.482,-2.482,-2.4895,-2.5034,-2.5034,-2.5121,-2.5297,-2.5674,-2.5925,-2.6113,-2.6678,-2.7155,-2.7507,-2.7507,-2.7758,-2.8122,-2.8285,-2.8335,-2.8398,0.0,0.0,0.0,0.0,0.0,0.0,0.0,0.0,0.0,0.0,0.0,0.0,-1.553,-1.5553,-1.5507,-1.5443,-1.5433,-1.5348,-1.5097,-1.5085,-1.5187,-1.5424,-1.5221,-1.5615,-1.669,-1.646,0.0,0.0,0.0,0.0,0.0,0.0,0.0,0.0,0.0,0.0,0.0,0.0,0.0,0.0,-1.8439,0.0,0.0,-2.0077,-2.0202,0.0,0.0,0.0,-2.0785,-2.0415,-2.0726,0.0,0.0,0.0,0.0,0.0,0.0,0.0,0.0,0.0,0.0,0.0,0.0,0.0,-1.7504,-1.7312,0.0,0.0,0.0,0.0,0.0,0.0,0.0,0.0,0.0,0.0,0.0,0.0,0.0,0.0,0.0,0.0,0.0,-2.3657,-2.3577,-2.2975,-2.2949,-2.2799,-2.2472,-2.2146,-2.197,-2.197,-2.2284,-2.2723,-2.3288,-2.3615,-2.3891,-2.4117,-2.4117,-2.4243,-2.4481,-2.4481,-2.4607,-2.4845,-2.5146,-2.5398,-2.5624,-2.5963,-2.644,-2.6942,-2.6942,-2.713,-2.7444,-2.767,-2.7758,-2.7808,0.0,0.0,0.0,0.0,0.0,0.0,0.0,0.0,0.0,0.0,0.0,-1.6052,-1.6544,-1.6552,-1.6522,-1.6522,-1.6522,-1.6522,-1.6522,-1.6552,-1.6795,-1.7271,-1.6909,-1.7105,-1.8066,-1.7626,0.0,0.0,0.0,0.0,0.0,0.0,0.0,0.0,0.0,0.0,0.0,0.0,0.0,-1.9209,-1.8504,-1.8971,0.0,0.0,-2.1206,0.0,-2.1489,-2.1806,-2.1992,-2.1989,-2.1844,0.0,0.0,0.0,0.0,0.0,-1.8262,0.0,0.0,0.0,0.0,0.0,0.0,0.0,-1.7612,-1.7516,-1.7556,0.0,0.0,0.0,0.0,0.0,0.0,0.0,0.0,0.0,0.0,0.0,0.0,0.0,0.0,0.0,-2.1471,-2.1869,-2.2003,-2.1448,-2.1455,-2.1455,-2.1393,-2.1393,-2.1368,-2.1305,-2.1368,-2.1631,-2.2121,-2.2246,-2.256,-2.2977,-2.304,-2.3401,-2.3904,-2.3904,-2.4167,-2.4632,-2.4707,-2.4996,-2.5423,-2.5548,-2.5937,-2.6533,-2.6533,-2.6533,-2.6584,-2.7017,-2.7193,-2.7205,-1.3642,0.0,0.0,0.0,0.0,0.0,0.0,0.0,0.0,0.0,0.0,0.0,0.0,0.0,-1.6522,-1.6522,-1.6522,-1.6522,-1.6522,-1.6909,-1.7188,-1.7312,-1.7626,-1.7907,-1.8106,-1.7987,0.0,0.0,0.0,0.0,0.0,0.0,0.0,0.0,0.0,0.0,0.0,0.0,0.0,-2.0318,-1.9301,0.0,-2.0599,-2.0812,-2.0789,-2.0805,-2.148,-2.2052,-2.2522,-2.253,-2.1527,-2.022,0.0,0.0,0.0,0.0,0.0,0.0,0.0,0.0,0.0,0.0,0.0,0.0,-1.8817,-1.9024,-1.9131,0.0,0.0,0.0,0.0,0.0,0.0,0.0,0.0,0.0,0.0,0.0,0.0,0.0,0.0,0.0,-2.0887,-2.0899,-2.094,-2.0844,-2.1242,-2.1292,-2.0907,-2.0882,-2.0614,-2.015,-2.0577,-2.0932,-2.0991,-2.187,-2.2372,-2.2472,-2.2865,-2.3128,-2.3314,-2.3314,-2.3303,-2.3489,-2.3954,-2.4217,-2.4381,-2.5234,-2.5937,-2.6533,-2.6533,-2.6533,-2.6546,-2.6647,-2.6697,-2.6747,-1.5197,0.0,0.0,0.0,0.0,0.0,0.0,0.0,0.0,0.0,0.0,0.0,0.0,0.0,0.0,0.0,-1.6909,-1.6909,-1.6909,-1.7701,-1.8181,-1.812,-1.8436,-1.8689,-1.8893,-1.865,0.0,0.0,0.0,0.0,0.0,0.0,0.0,0.0,0.0,0.0,0.0,0.0,-1.9663,-2.0571,-1.9176,0.0,-2.0707,-2.07,-2.0694,-2.0793,-2.1441,-2.1904,-2.2188,-2.2188,-2.1787,0.0,0.0,-2.0798,-2.1542,0.0,-2.0356,-2.1083,0.0,0.0,0.0,-1.987,0.0,0.0,0.0,-1.9212,-1.9305,0.0,0.0,0.0,0.0,0.0,0.0,0.0,0.0,0.0,0.0,0.0,0.0,0.0,0.0,0.0,-1.9917,-2.0066,-2.0043,-1.951,-1.9698,-1.9736,-1.9459,-1.9698,-1.9864,-1.9883,-2.0143,-2.0522,-2.1158,-2.1369,-2.1769,-2.2309,-2.2585,-2.2874,-2.3078,-2.3078,-2.3078,-2.309,-2.3439,-2.3728,-2.4042,-2.4582,-2.5285,-2.605,-2.6352,-2.6533,-2.6533,-2.6533,-2.6533,-2.6571,-1.7046,0.0,0.0,0.0,0.0,0.0,0.0,0.0,0.0,0.0,0.0,0.0,0.0,0.0,0.0,0.0,0.0,0.0,0.0,0.0,0.0,-1.9109,-1.9433,-1.9688,-1.9899,-1.9604,-1.9604,0.0,0.0,0.0,0.0,0.0,0.0,0.0,0.0,0.0,0.0,0.0,0.0,-2.0546,0.0,-1.9413,-2.088,-2.0744,-2.0681,-2.077,-2.1327,-2.1515,-2.153,-2.1665,0.0,-2.2226,-2.0738,-2.1792,0.0,0.0,0.0,0.0,0.0,0.0,0.0,0.0,0.0,-1.9561,0.0,0.0,0.0,0.0,0.0,0.0,0.0,0.0,0.0,0.0,0.0,0.0,0.0,0.0,0.0,0.0,0.0,0.0,0.0,-1.9421,-1.9314,-1.8261,-1.841,-1.8508,-1.8508,-1.8894,-1.9413,-1.9954,-1.9979,-2.0448,-2.1425,-2.1055,-2.1323,-2.2154,-2.2266,-2.2548,-2.2975,-2.3027,-2.3078,-2.3078,-2.3078,-2.3401,-2.3841,-2.3954,-2.4506,-2.5347,-2.6038,-2.6433,-2.6533,-2.6533,-2.6533,-2.6533,-1.8735,-1.8462,0.0,0.0,0.0,0.0,0.0,0.0,0.0,0.0,0.0,0.0,0.0,0.0,0.0,0.0,0.0,0.0,-2.0559,0.0,0.0,0.0,-2.0847,0.0,-2.0617,-2.1117,-2.1093,0.0,0.0,0.0,0.0,0.0,0.0,0.0,-1.969,0.0,0.0,0.0,-2.0221,0.0,-1.9962,-2.0438,0.0,-2.0937,-2.0714,-2.0697,-2.0789,-2.0827,-2.0917,0.0,-2.1739,-2.1794,0.0,-2.2468,-2.3316,0.0,0.0,0.0,0.0,0.0,0.0,0.0,-2.1451,0.0,0.0,0.0,0.0,0.0,0.0,0.0,0.0,0.0,0.0,0.0,0.0,0.0,0.0,0.0,0.0,0.0,0.0,0.0,0.0,-1.896,-1.8777,-1.8227,-1.9087,-1.9605,-1.9605,-1.9659,-1.9744,-1.9833,-2.0361,-2.0748,-2.0877,-2.1289,-2.1577,-2.1668,-2.2115,-2.2347,-2.2422,-2.2852,-2.3078,-2.3078,-2.3078,-2.3115,-2.3215,-2.3791,-2.4067,-2.428,-2.5297,-2.6013,-2.6533,-2.6533,-2.6533,-2.6533,-1.9761,0.0,0.0,0.0,0.0,0.0,0.0,0.0,0.0,0.0,0.0,0.0,0.0,0.0,0.0,0.0,0.0,-2.0101,0.0,0.0,0.0,0.0,0.0,0.0,0.0,-2.1687,-2.156,-2.1276,-2.1276,0.0,0.0,0.0,0.0,0.0,-1.9869,0.0,-2.0699,0.0,0.0,0.0,0.0,0.0,0.0,-2.0691,-2.0124,-2.0168,-2.0572,-2.0722,-2.0812,0.0,-2.1949,0.0,0.0,0.0,0.0,0.0,0.0,0.0,0.0,0.0,0.0,0.0,0.0,0.0,-2.153,0.0,-2.1081,0.0,0.0,0.0,0.0,0.0,0.0,0.0,0.0,0.0,0.0,0.0,0.0,0.0,0.0,0.0,0.0,0.0,0.0,0.0,-1.8577,-1.8797,-1.8797,-1.9127,-1.9446,-1.9851,-2.049,-2.099,-2.1304,-2.1183,-2.1286,-2.1628,-2.1776,-2.1995,-2.2334,-2.2887,-2.3078,-2.3078,-2.3078,-2.3078,-2.315,-2.3859,-2.4335,-2.4745,-2.5616,-2.5986,-2.5963,-2.5963,-2.6176,-2.6533,0.0,0.0,0.0,0.0,0.0,0.0,0.0,0.0,0.0,0.0,0.0,0.0,-2.2649,-2.2359,0.0,0.0,-2.2113,-2.1671,0.0,0.0,-2.2147,0.0,0.0,0.0,0.0,0.0,0.0,0.0,0.0,0.0,0.0,0.0,0.0,0.0,0.0,-2.0348,-2.1021,0.0,0.0,-2.1739,-2.2218,-2.2308,-2.1979,-2.0528,-1.9854,-1.975,-2.0258,-2.0557,-2.0812,-2.147,-2.2143,0.0,-2.2877,0.0,0.0,0.0,0.0,0.0,-2.3056,0.0,0.0,0.0,0.0,0.0,0.0,0.0,0.0,0.0,0.0,0.0,0.0,0.0,0.0,0.0,0.0,0.0,0.0,0.0,0.0,0.0,0.0,0.0,0.0,0.0,0.0,-1.8341,-1.8458,-1.8535,-1.8535,-1.892,-1.9333,-1.9822,-2.0627,-2.1182,-2.1399,-2.1164,-2.1242,-2.1619,-2.1399,-2.1579,-2.2153,-2.2644,-2.2852,-2.2912,-2.3242,-2.3424,-2.3484,-2.4279,-2.482,-2.5266,-2.5761,-2.6022,-2.6078,-2.6233,-2.637,-2.6566,-2.1655,-2.1212,0.0,0.0,0.0,0.0,0.0,0.0,0.0,0.0,0.0,0.0,0.0,0.0,0.0,0.0,0.0,-2.3641,-2.4448,0.0,-2.2747,0.0,0.0,-2.3432,0.0,0.0,0.0,0.0,0.0,0.0,0.0,0.0,0.0,0.0,0.0,-2.1051,-2.171,-2.2368,-2.2278,-2.1695,-2.1724,-2.1335,-2.0782,0.0,-2.0273,-1.969,-1.9705,0.0,0.0,-2.147,-2.2143,0.0,0.0,0.0,0.0,0.0,0.0,0.0,0.0,0.0,0.0,-2.2873,0.0,0.0,0.0,0.0,-2.2263,0.0,0.0,0.0,0.0,0.0,0.0,0.0,0.0,0.0,0.0,0.0,0.0,0.0,0.0,0.0,0.0,0.0,0.0,-1.8893,-1.9369,-1.9639,-1.9639,-1.9669,-1.9669,-1.972,-2.0983,-2.1359,-2.0752,-2.1346,-2.1663,-2.169,-2.1056,-2.1051,-2.1655,-2.2102,-2.2334,-2.243,-2.3709,-2.4234,-2.435,-2.5063,-2.5356,-2.537,-2.5425,-2.6114,-2.723,-2.7762,-2.7422,-2.6816,0.0,0.0,0.0,0.0,0.0,0.0,0.0,-2.0932,0.0,0.0,0.0,0.0,0.0,-2.6547,-2.698,0.0,0.0,-2.5956,-2.7095,-2.529,0.0,0.0,0.0,-2.4948,0.0,0.0,0.0,0.0,0.0,0.0,0.0,0.0,0.0,0.0,0.0,-2.1485,0.0,0.0,0.0,0.0,0.0,-2.156,-2.1261,0.0,0.0,-2.0423,-2.0857,-2.1171,0.0,-2.2592,-2.3101,-2.3325,-2.3535,-2.3595,-2.3595,-2.3595,-2.3595,0.0,0.0,0.0,-2.355,-2.334,0.0,0.0,0.0,0.0,0.0,0.0,0.0,0.0,0.0,0.0,0.0,0.0,0.0,0.0,0.0,0.0,0.0,0.0,0.0,0.0,0.0,0.0,0.0,-1.9442,-1.9603,-1.969,-1.969,-1.969,-1.969,-1.969,-2.0991,-2.16,-2.137,-2.2046,-2.2346,-2.236,-2.2065,-2.2062,-2.2278,-2.2764,-2.3285,-2.3714,-2.419,-2.4626,-2.5063,-2.5837,-2.6122,-2.6218,-2.7132,-2.7798,-2.8071,-2.7631,-2.7763,-2.8379,-2.2197,0.0,0.0,0.0,0.0,0.0,0.0,0.0,0.0,0.0,-2.5863,0.0,-2.9116,0.0,-2.9168,0.0,-2.8645,-2.7912,-2.8078,-2.6717,0.0,-2.6718,-2.617,0.0,0.0,0.0,0.0,0.0,0.0,-2.3736,0.0,0.0,0.0,0.0,0.0,0.0,0.0,0.0,-2.2293,0.0,0.0,-2.1798,0.0,0.0,-2.0597,-2.0955,0.0,-2.163,-2.2279,-2.2935,-2.3485,-2.3837,-2.3681,-2.3709,-2.3879,-2.3879,-2.4032,-2.4158,-2.4158,-2.4158,0.0,-2.3906,-2.4032,0.0,-2.3681,0.0,0.0,0.0,0.0,0.0,0.0,0.0,0.0,0.0,0.0,0.0,0.0,-1.969,0.0,0.0,0.0,0.0,0.0,0.0,-1.969,-1.969,-1.969,-1.969,0.0,0.0,-1.9794,-2.0049,-2.1126,-2.1719,-2.1683,-2.2367,-2.2694,-2.2709,-2.2426,-2.2415,-2.265,-2.3239,-2.373,-2.4169,-2.4878,-2.5404,-2.5837,-2.6602,-2.6878,-2.7003,-2.8166,-2.8742,-2.8919,-2.854,-2.8813,-2.961,0.0,0.0,0.0,0.0,-2.1097,0.0,0.0,0.0,-2.5728,0.0,-2.7288,-2.8572,-3.0525,-3.0164,-3.0019,-3.0637,-3.0484,0.0,-2.7775,-2.8046,0.0,0.0,-2.6392,-2.6564,-2.6742,0.0,0.0,0.0,0.0,0.0,0.0,0.0,0.0,0.0,-2.2981,0.0,-2.1739,-2.2439,-2.2334,-2.1734,-2.1764,-2.2087,-2.2419,-2.1802,-2.1553,-2.1372,-2.0721,-2.1623,-2.306,-2.258,-2.3297,-2.4307,-2.3794,-2.3991,-2.4389,-2.443,-2.4776,-2.5221,-2.5221,-2.5221,-2.5067,-2.4552,-2.4776,0.0,0.0,0.0,-2.4244,0.0,0.0,0.0,0.0,0.0,0.0,0.0,0.0,0.0,0.0,0.0,0.0,0.0,0.0,0.0,0.0,-1.969,-1.969,-1.969,-1.969,0.0,0.0,0.0,-2.0034,-2.0692,-2.138,-2.1739,-2.1758,-2.2422,-2.274,-2.274,-2.21,-2.2161,-2.2795,-2.3371,-2.3691,-2.3854,-2.5726,-2.6534,-2.6616,-2.7306,-2.764,-2.7745,-2.8382,-2.9071,-2.9744,-3.0342,-3.0468,-3.038,-2.3719,-2.3416,-2.3346,0.0,-2.2954,-2.2702,0.0,0.0,0.0,0.0,-3.0094,-3.1125,-3.2636,-3.2631,-3.2782,-3.3499,-3.206,0.0,0.0,0.0,0.0,-2.8431,-2.7585,-2.7238,-2.7519,-2.6085,0.0,-2.6315,0.0,0.0,-2.4776,0.0,0.0,0.0,0.0,0.0,-2.1739,-2.2439,-2.2481,-2.2187,-2.274,-2.3234,0.0,0.0,-2.324,-2.3835,-2.3375,-2.3515,-2.3914,-2.385,-2.411,-2.4389,-2.4225,-2.4266,-2.4471,-2.4855,-2.5105,-2.5221,-2.5221,-2.5221,-2.5067,-2.4552,-2.4511,-2.4552,0.0,0.0,0.0,0.0,0.0,0.0,0.0,0.0,0.0,0.0,0.0,0.0,0.0,0.0,0.0,-2.0393,0.0,0.0,0.0,-1.969,-1.969,-1.969,-1.969,0.0,0.0,0.0,0.0,-2.0669,-2.1829,-2.2446,-2.2443,-2.3066,-2.3377,-2.3377,-2.3172,-2.3437,-2.4103,-2.429,-2.4872,-2.5844,-2.6382,-2.6861,-2.7357,-2.7524,-2.7874,-2.8397,-2.9071,-3.0028,-3.1046,-3.121,-3.1202,-3.1338,-2.4843,0.0,0.0,-2.6308,0.0,0.0,-2.6438,0.0,0.0,-3.0953,-3.1483,0.0,-3.3826,-3.4007,-3.4121,-3.4539,-3.3151,0.0,-3.2383,0.0,0.0,-2.9609,-2.8634,-2.785,-2.7333,-2.6131,0.0,-2.5865,0.0,0.0,-2.4831,0.0,0.0,0.0,0.0,-2.3152,0.0,-2.2838,-2.2753,-2.2437,-2.3371,0.0,0.0,-2.4102,-2.4674,-2.5578,-2.537,-2.5102,-2.4783,-2.4612,-2.4796,-2.5067,-2.4816,-2.491,-2.5144,-2.5449,-2.5689,-2.5855,-2.5855,-2.5855,-2.5746,-2.5221,-2.5243,-2.5281,-2.4855,-2.4934,-2.5182,0.0,0.0,-2.5182,0.0,0.0,0.0,0.0,0.0,0.0,0.0,0.0,0.0,0.0,0.0,0.0,0.0,0.0,-1.9874,-1.9711,0.0,0.0,0.0,0.0,0.0,-2.1141,-2.2697,-2.3385,-2.3086,-2.4014,-2.4178,-2.3595,-2.3909,-2.4253,-2.4612,-2.5226,-2.5899,-2.6602,-2.6901,-2.723,-2.7625,-2.7625,-2.7979,-2.8697,-2.9624,-3.0612,-3.1482,-3.1482,-3.1482,-3.1719,0.0,0.0,0.0,0.0,0.0,0.0,0.0,-2.9365,0.0,-3.2336,0.0,-3.2748,-3.4448,-3.4705,-3.4648,-3.4513,0.0,-3.3043,-3.2242,-3.1473,-3.0709,-3.0027,-2.9168,-2.8119,-2.6877,-2.605,0.0,0.0,0.0,0.0,0.0,0.0,0.0,0.0,0.0,0.0,0.0,-2.3406,-2.3094,0.0,-2.3951,-2.4694,-2.5078,-2.5177,-2.5849,-2.6691,-2.6691,-2.6285,-2.5679,-2.5143,-2.5433,-2.5924,-2.5449,-2.5615,-2.6013,-2.6068,-2.6367,-2.6691,-2.6691,-2.6691,-2.659,-2.612,-2.6297,-2.6385,-2.5486,-2.5652,-2.6013,-2.6085,-2.5726,-2.5486,0.0,0.0,0.0,0.0,0.0,0.0,0.0,0.0,0.0,0.0,0.0,0.0,0.0,0.0,0.0,0.0,0.0,0.0,0.0,0.0,0.0,-2.1799,-2.3565,-2.4283,-2.3864,0.0,-2.4896,-2.3999,-2.4433,-2.4672,-2.4881,-2.6063,-2.6632,-2.6752,-2.732,-2.7625,-2.7625,-2.7625,-2.8038,-2.8861,-3.0133,-3.1001,-3.1482,-3.1482,-3.1584,-3.1839,0.0,0.0,0.0,0.0,0.0,-3.1021,-3.1533,-3.2219,-3.3043,-3.3998,-3.457,-3.5037,-3.5397,-3.5424,-3.5181,-3.4563,-3.3829,0.0,0.0,0.0,0.0,-2.9343,-2.8014,-2.7379,-2.7587,-2.6497,-2.6362,0.0,0.0,0.0,0.0,0.0,0.0,0.0,0.0,0.0,-2.4015,-2.3599,0.0,-2.3767,-2.5146,-2.5609,-2.5562,-2.6168,-2.6539,-2.6691,-2.6691,-2.6607,-2.6421,-2.5957,-2.5898,-2.5961,-2.5888,-2.5924,-2.6085,-2.647,-2.6624,-2.6691,-2.6691,-2.6691,-2.659,-2.612,-2.6068,-2.6085,-2.5888,-2.5924,-2.612,-2.6521,-2.6505,-2.6193,-2.5486,0.0,0.0,0.0,0.0,0.0,0.0,0.0,0.0,0.0,0.0,0.0,0.0,0.0,0.0,0.0,0.0,0.0,0.0,0.0,0.0,0.0,-2.3325,0.0,0.0,0.0,-2.4672,-2.6048,-2.5091,-2.5196,-2.6258,-2.6482,-2.6886,-2.741,-2.7565,-2.7625,-2.7625,-2.7625,-2.8293,-2.9535,-3.0851,-3.1377,-3.1482,-3.1482,-3.1884,-3.2452,0.0,0.0,0.0,0.0,0.0,0.0,0.0,-3.4675,0.0,-3.4556,-3.4522,-3.4549,-3.4452,-3.4784,-3.4739,-3.3972,-3.3254,-3.2411,-3.1349,-3.0256,-2.9304,-2.8519,-2.7764,0.0,-2.6657,-2.6101,-2.6269,-2.7232,0.0,0.0,0.0,0.0,0.0,0.0,0.0,-2.5271,0.0,0.0,0.0,-2.5074,-2.5979,-2.6303,-2.6201,-2.6556,-2.6691,-2.6691,-2.6691,-2.6691,-2.6657,-2.6436,-2.6367,-2.6367,-2.6367,-2.6367,-2.6401,-2.6624,-2.6691,-2.6691,-2.6691,-2.6691,-2.6657,-2.6401,-2.6367,-2.6367,-2.6367,-2.6367,-2.6436,-2.6657,-2.6691,-2.647,-2.5762,-2.4989,0.0,0.0,0.0,0.0,0.0,0.0,0.0,0.0,0.0,0.0,0.0,0.0,0.0,0.0,0.0,0.0,0.0,0.0,0.0,0.0,0.0,0.0,0.0,0.0,0.0,-2.6078,-2.5779,-2.5974,-2.6602,-2.6946,-2.7275,-2.7625,-2.7625,-2.7625,-2.7619,-2.8323,-2.919,-3.0163,-3.115,-3.1482,-3.1511,-3.1913,-3.2452,-3.3066,0.0,-3.2425,0.0,0.0,-3.4878,0.0,-3.5774,-3.6383,-3.6282,-3.4912,-3.4186,-3.3734,-3.3651,-3.4015,-3.3964,-3.3237,-3.2628,-3.1968,-3.1241,-3.0362,-2.933,-2.8129,-2.7757,-2.7029,-2.5862,-2.5845,-2.6201,0.0,0.0,0.0,0.0,0.0,0.0,0.0,0.0,0.0,0.0,0.0,-2.6049,-2.6191,-2.6539,-2.6691,-2.6691,-2.6691,-2.6691,-2.6691,-2.6691,-2.6691,-2.6691,-2.6691,-2.6691,-2.6691,-2.6691,-2.6691,-2.6691,-2.6691,-2.6691,-2.6691,-2.6691,-2.6691,-2.6691,-2.6691,-2.6691,-2.6691,-2.6691,-2.6691,-2.6691,-2.6691,-2.6624,-2.6436,-2.6085,-2.5577,0.0,0.0,0.0,0.0,0.0,0.0,0.0,0.0,0.0,0.0,0.0,0.0,0.0,0.0,0.0,0.0,0.0,0.0,0.0,0.0,0.0,-2.5136,-2.5046,0.0,-2.6198,-2.6243,-2.6482,-2.6662,-2.6811,-2.7335,-2.7625,-2.7625,-2.7724,-2.7874,-2.815,-2.928,-3.0058,-3.0567,-3.127,-3.1482,-3.1556,-3.2273,-3.2931,-3.3514,0.0,0.0,0.0,0.0,0.0,0.0,-3.6671,-3.6738,-3.6485,-3.5622,-3.4868,-3.4411,-3.4404,-3.3863,-3.3203,-3.2459,-3.2324,-3.1968,-3.1241,-2.9871,-2.9025,-2.8873,-2.7537,-2.6742,-2.659,-2.659,-2.6962,0.0,0.0,-2.7687,0.0,0.0,0.0,0.0,0.0,0.0,0.0,-2.6156,-2.6262,-2.6624,-2.6691,-2.6691,-2.6691,-2.6691,-2.6691,-2.6691,-2.6691,-2.6691,-2.6691,-2.6691,-2.6691,-2.6691,-2.6691,-2.6691,-2.6691,-2.6691,-2.6691,-2.6691,-2.6691,-2.6691,-2.6691,-2.6691,-2.6691,-2.6691,-2.6691,-2.6691,-2.6691,-2.6691,-2.6367,-2.6049,-2.6013,-2.5577,-2.5221,0.0,0.0,0.0,0.0,0.0,0.0,0.0,0.0,0.0,0.0,-2.4661,0.0,0.0,0.0,0.0,0.0,0.0,0.0,-2.424,0.0,-2.4627,-2.6393,-2.5345,-2.5989,-2.8308,-2.7141,-2.6901,-2.7535,-2.7595,-2.7625,-2.7655,-2.8233,-2.8846,-2.9445,-3.0133,-3.0447,-3.0567,-3.127,-3.1482,-3.1556,-3.2273,-3.2931,-3.3589,0.0,0.0,0.0,0.0,0.0,0.0,0.0,-3.7736,-3.7178,-3.6417,-3.525,-3.432,-3.3897,-3.3169,-3.2425,-3.1698,-3.163,-3.1326,-3.0598,-2.9989,-2.9245,-2.8332,-2.7706,-2.7165,-2.6708,-2.6691,-2.7063,0.0,0.0,0.0,0.0,0.0,0.0,0.0,0.0,-2.7211,-2.6725,-2.6957,-2.6925,-2.6691,-2.6691,-2.6691,-2.6691,-2.6691,-2.6691,-2.6691,-2.6691,-2.6691,-2.6691,-2.6691,-2.6691,-2.6691,-2.6691,-2.6691,-2.6691,-2.6691,-2.6691,-2.6691,-2.6691,-2.6691,-2.6691,-2.6691,-2.6691,-2.6691,-2.6691,-2.6691,-2.6691,-2.6691,-2.6539,-2.6401,-2.6401,-2.6245,-2.6087,-2.6087,0.0,0.0,0.0,0.0,0.0,0.0,0.0,0.0,0.0,0.0,0.0,0.0,0.0,0.0,0.0,0.0,0.0,-2.3891,0.0,-2.4792,-2.5989,-2.5869,-2.6542,-2.7979,-2.7859,-2.7709,-2.7655,-2.8412,-2.8771,-2.8786,-2.9071,-2.9549,-3.0163,-3.0402,-3.0746,-3.115,-3.1377,-3.1482,-3.1556,-3.2273,-3.2931,-3.3589,-3.8176,0.0,-3.777,0.0,-3.8565,-3.8328,-3.8633,-3.8058,-3.7381,-3.6857,-3.5453,-3.4218,-3.3491,-3.273,-3.1985,-3.1258,-3.119,-3.097,-3.0463,-3.0023,-2.9296,-2.8213,-2.7943,0.0,-2.6708,-2.6911,-2.7182,-2.7486,-2.8264,0.0,0.0,0.0,0.0,0.0,-2.7588,-2.7402,-2.6725,-2.7266,-2.73,-2.6996,-2.6793,-2.6826,-2.6996,-2.6776,-2.6691,-2.6691,-2.6691,-2.6691,-2.6691,-2.6691,-2.6691,-2.6691,-2.6691,-2.6691,-2.6691,-2.6691,-2.6691,-2.6691,-2.6691,-2.6691,-2.6691,-2.6691,-2.6691,-2.6691,-2.6691,-2.6691,-2.6691,-2.6691,-2.6691,-2.6691,-2.6691,-2.6691,-2.6691,-2.6691,0.0,0.0,0.0,0.0,0.0,0.0,-2.5564,-2.5625,-2.4881,0.0,0.0,0.0,0.0,0.0,0.0,0.0,0.0,0.0,0.0,0.0,-2.5899,-2.6363,-2.6916,-2.7625,-2.8263,-2.8353,-2.7919,-2.9056,-2.9684,-2.9849,-2.9849,-3.0223,-3.0806,-3.0806,-3.1091,-3.1482,-3.1482,-3.1482,-3.1556,-3.2273,-3.2811,-3.332,-3.8836,-3.8971,-3.8971,-3.8988,-3.8988,-3.8734,-3.8024,-3.728,-3.6789,-3.6772,-3.5453,-3.4218,-3.3491,-3.273,-3.1985,-3.1258,-3.119,-3.119,-3.119,-2.9803,-2.9011,0.0,0.0,-2.7469,-2.6708,-2.7418,-2.7452,-2.6708,0.0,0.0,-2.6742,0.0,-2.7789,-2.7772,-2.7789,-2.7402,-2.6691,-2.6708,-2.7131,-2.7705,-2.6996,-2.7148,-2.7688,-2.6979,-2.6691,-2.6691,-2.6691,-2.6691,-2.6691,-2.6691,-2.6691,-2.6691,-2.6691,-2.6691,-2.6691,-2.6691,-2.6691,-2.6691,-2.6691,-2.6691,-2.6691,-2.6691,-2.6691,-2.6691,-2.6691,-2.6691,-2.6691,-2.6691,-2.6691,-2.6691,-2.6691,-2.6691,-2.6691,-2.6691,0.0,0.0,0.0,0.0,0.0,0.0,-2.6251,-2.6387,-2.5659,0.0,0.0,0.0,0.0,0.0,0.0,0.0,0.0,-2.6158,-2.5157,0.0,-2.6557,-2.6587,-2.6916,-2.7625,-2.8263,-2.8607,-2.8607,-2.928,-2.9924,-3.0492,-3.0492,-3.0881,-3.1467,-3.1467,-3.1467,-3.1482,-3.1482,-3.1482,-3.1556,-3.2273,-3.2527,-3.2706,-3.9597,-3.9343,-3.8988,-3.8988,-3.8988,-3.8751,-3.8024,-3.7263,-3.6772,-3.6772,-3.5893,-3.4979,-3.4235,-3.3491,-3.2747,0.0,-3.1935,-3.1732,0.0,-3.0751,-3.0277,-2.977,-2.9516,-2.8789,-2.7486,-2.7689,-2.7452,-2.6691,0.0,0.0,0.0,-2.7671,-2.7554,-2.708,-2.7588,-2.7402,-2.6759,-2.7807,-2.8095,-2.7806,-2.8129,-2.8399,-2.8518,-2.7757,-2.7469,-2.7402,-2.6877,-2.6691,-2.6691,-2.6691,-2.6691,-2.6691,-2.6691,-2.6691,-2.6691,-2.6691,-2.6691,-2.6691,-2.6691,-2.6691,-2.6691,-2.6691,-2.6691,-2.6691,-2.6691,-2.6691,-2.6691,-2.6691,-2.6691,-2.6691,-2.6691,-2.6691,-2.6691,-2.6691,-2.6691,0.0,0.0,0.0,0.0,0.0,-2.6251,-2.6404,0.0,-2.6268,0.0,0.0,0.0,0.0,0.0,0.0,0.0,0.0,-2.5394,0.0,-2.6572,-2.75,-2.8068,-2.8278,-2.9385,-3.0148,-3.0597,-3.0328,-3.0567,-3.121,-3.121,-3.133,-3.1482,-3.1482,-3.1482,-3.1482,-3.1482,-3.1482,-3.1497,-3.1764,-3.2422,-3.3185,-3.958,-3.9089,-3.8582,-3.8582,-3.8345,-3.7922,-3.7161,-3.6654,-3.6349,-3.6349,-3.6089,-3.5727,-3.5275,-3.4706,0.0,-3.2398,-3.2036,-3.1681,-3.1224,-3.0937,-3.0581,-3.0125,-3.0108,-2.9397,-2.7823,-2.8112,0.0,-2.6691,-2.7165,-2.7402,-2.7402,-2.7402,-2.7148,-2.6708,-2.7182,-2.7131,-2.6759,-2.7723,-2.8099,-2.8015,-2.8115,-2.8387,-2.8681,-2.7759,-2.7402,-2.7334,-2.686,-2.6691,-2.6691,-2.6691,-2.6691,-2.6691,-2.6691,-2.6691,-2.6691,-2.6691,-2.6691,-2.6691,-2.6691,-2.6691,-2.6691,-2.6691,-2.6691,-2.6691,-2.6691,-2.6691,-2.6691,-2.6691,-2.6691,-2.6691,-2.6691,-2.6691,-2.6691,-2.6691,-2.6691,-2.6691,-2.6691,0.0,0.0,0.0,0.0,0.0,0.0,-2.6691,-2.7199,0.0,0.0,0.0,0.0,0.0,0.0,-2.6072,-2.6016,0.0,-2.6961,-2.8053,-2.8607,-2.8622,-2.9894,-3.0866,-3.1467,-3.1091,-3.112,-3.1482,-3.1482,-3.1482,-3.1482,-3.1482,-3.1482,-3.1482,-3.1482,-3.1482,-3.1482,-3.1482,-3.2048,-3.2736,-3.9103,-3.8543,-3.8021,0.0,-3.7445,0.0,-3.5825,-3.569,-3.5673,-3.5667,-3.6097,-3.6399,-3.6388,-3.6036,-3.4891,-3.2553,0.0,0.0,0.0,-3.0565,-3.0192,-3.0192,-3.0192,-2.9465,-2.7961,-2.8638,-2.823,-2.6691,-2.6691,-2.6691,-2.6691,-2.6691,-2.6691,-2.6691,-2.6691,-2.6725,-2.6758,-2.6809,-2.745,-2.8345,-2.7333,-2.7553,-2.8349,-2.7215,-2.6776,-2.6759,-2.6708,-2.6691,-2.6691,-2.6691,-2.6691,-2.6691,-2.6691,-2.6691,-2.6691,-2.6691,-2.6691,-2.6691,-2.6691,-2.6691,-2.6691,-2.6691,-2.6691,-2.6691,-2.6691,-2.6691,-2.6691,-2.6691,-2.6691,-2.6691,-2.6691,-2.6691,-2.6691,-2.6691,-2.6691,-2.6691,-2.6691,0.0,0.0,0.0,0.0,0.0,-2.6691,-2.7334,-2.7469,0.0,0.0,0.0,0.0,0.0,-2.7406,-2.7201,-2.6826,-2.6931,-2.7634,-2.8323,-2.8712,-2.8816,-2.9953,-3.0866,-3.1482,-3.1482,-3.1482,-3.1482,-3.1482,-3.1482,-3.1482,-3.1482,-3.1482,-3.1482,-3.1482,-3.1482,-3.1482,-3.1482,-3.1497,-3.1616,0.0,0.0,-3.9325,-3.9325,-3.8867,-3.8024,-3.6705,-3.6502,-3.6446,-3.6225,-3.6291,-3.6296,-3.606,-3.5435,-3.4443,-3.2976,-3.2659,-3.2179,-3.1263,-3.1038,-3.0937,-3.0937,-3.0937,-3.036,-2.9128,-2.9036,-2.823,-2.6691,-2.6691,-2.6691,-2.6691,-2.6691,-2.6691,-2.6691,-2.6691,-2.6873,-2.7181,-2.7767,-2.8337,-2.8855,-2.8862,-2.9006,-2.9126,-2.7964,-2.7554,-2.7486,-2.6894,-2.6691,-2.6691,-2.6691,-2.6691,-2.6691,-2.6691,-2.6691,-2.6691,-2.6691,-2.6691,-2.6691,-2.6691,-2.6691,-2.6691,-2.6691,-2.6691,-2.6691,-2.6691,-2.6691,-2.6691,-2.6691,-2.6691,-2.6691,-2.6691,-2.6691,-2.6691,-2.6691,-2.6691,-2.6691,-2.6691,-2.6691,0.0,0.0,-2.6691,-2.6691,-2.6691,-2.686,-2.7131,0.0,0.0,0.0,0.0,-2.9168,-2.8858,-2.7274,-2.6826,-2.7156,-2.8353,-2.9011,-2.9849,-3.078,-3.0612,-3.0866,-3.1482,-3.1482,-3.1482,-3.1482,-3.1482,-3.1482,-3.1482,-3.1482,-3.1482,-3.1482,-3.1482,-3.1482,-3.1482,-3.1482,-3.1795,-3.2228,-4.0671,-3.9982,-3.9406,-3.9725,-3.879,-3.7702,-3.6907,-3.6695,-3.6534,-3.6444,-3.6786,-3.7033,-3.6845,-3.6355,-3.5574,-3.4458,-3.3204,-3.2087,-3.1247,-3.119,-3.1291,-3.1487,-3.147,-3.0971,-2.9854,-2.9657,-2.8713,-2.6954,-2.6791,-2.6691,-2.6691,-2.6691,-2.6877,-2.7199,-2.7418,-2.782,-2.8357,-2.8617,-2.8868,-2.9001,-2.8641,-2.8483,-2.8416,-2.7607,-2.7386,-2.7503,-2.6894,-2.6808,-2.6939,-2.6758,-2.6691,-2.6691,-2.6691,-2.6691,-2.6691,-2.6691,-2.6691,-2.6691,-2.6691,-2.6945,-2.7199,-2.7199,-2.7199,-2.7114,-2.6776,-2.7232,-2.7638,-2.7283,-2.7503,-2.7638,-2.7266,-2.7199,-2.7097,-2.6742,-2.6691,-2.6691,-2.6691,-2.6691,0.0,-2.7165,-2.7199,-2.7351,-2.7706,-2.8061,-2.8281,-2.8349,-2.9381,0.0,-2.9516,-3.0318,-3.0133,-2.8644,-2.8432,-2.8898,-2.9983,-3.0613,-3.1336,-3.2007,-3.1912,-3.1943,-3.2007,-3.2312,-3.2461,-3.2461,-3.2461,-3.2461,-3.2461,-3.2461,-3.2461,-3.2407,-3.2104,-3.2007,-3.1951,-3.164,-3.1764,-3.2018,-4.0766,-3.9767,-3.9058,-3.9693,-3.8254,-3.6971,-3.691,-3.6697,-3.6579,-3.662,-3.7379,-3.7891,-3.7851,-3.763,-3.7093,-3.6025,-3.3669,-3.199,-3.1399,-3.1258,-3.1389,-3.1789,-3.1789,-3.1324,-3.0313,-3.0059,-2.9087,-2.7303,-2.7091,-2.6928,-2.686,-2.6928,-2.7301,-2.7912,-2.8382,-2.8917,-2.9417,-2.9243,-2.9134,-2.8973,-2.7894,-2.747,-2.7439,-2.7019,-2.7051,-2.7272,-2.6906,-2.6971,-2.7147,-2.6825,-2.6691,-2.6708,-2.6826,-2.686,-2.6894,-2.6996,-2.7046,-2.6996,-2.6759,-2.7165,-2.7638,-2.7638,-2.7705,-2.762,-2.7012,-2.796,-2.8789,-2.8129,-2.8518,-2.8738,-2.796,-2.7789,-2.7621,-2.6962,-2.6776,-2.6725,-2.6843,0.0,-2.7097,-2.774,-2.7926,-2.8247,-2.8924,-2.9668,-2.9888,-2.9347,-3.0581,-3.114,-3.0632,-3.1324,-3.147,-3.0931,-3.0762,-3.1036,-3.1742,-3.2336,-3.2657,-3.2734,-3.3244,-3.3192,-3.2788,-3.3339,-3.3582,-3.3582,-3.3582,-3.3582,-3.3582,-3.3582,-3.3582,-3.3531,-3.2986,-3.2695,-3.2532,-3.191,-3.1582,-3.1482,-4.1594,-4.0545,-3.9693,-3.9781,-3.8648,-3.7648,-3.7421,-3.7353,-3.74,-3.765,-3.779,-3.7794,-3.7595,-3.7521,-3.7016,-3.5782,-3.4833,-3.3715,-3.2218,-3.1546,-3.1389,-3.1789,-3.1789,-3.1461,-3.0733,-2.9377,-2.8223,-2.7303,-2.7848,-2.7963,-2.7655,-2.7996,-2.8213,-2.8316,-2.8807,-2.8845,-2.8613,-2.926,-2.9337,-2.8956,-2.8448,-2.8219,-2.8192,-2.7851,-2.753,-2.7303,-2.7241,-2.7019,-2.6774,-2.6725,-2.6691,-2.681,-2.7452,-2.7638,-2.7774,-2.8433,-2.8619,-2.8349,-2.7046,-2.6776,-2.686,-2.686,-2.7351,-2.7755,-2.7637,-2.8332,-2.8941,-2.8822,-2.889,-2.8738,-2.796,-2.7789,-2.7755,-2.7672,-2.7114,-2.6911,-2.7554,0.0,-2.7654,-2.7772,-2.8399,-2.8839,-2.9011,-2.9668,-3.0311,-3.0818,-3.163,-3.2341,-3.2865,-3.3018,-3.3313,-3.3818,-3.2289,-3.1759,-3.2415,-3.2544,-3.2894,-3.3427,-3.299,-3.3022,-3.3443,-3.3531,-3.3582,-3.3582,-3.3582,-3.3582,-3.3582,-3.3582,-3.3582,-3.3582,-3.3495,-3.3093,-3.2602,-3.2492,-3.2007,-3.1482,-4.2101,-4.1303,-4.0521,-4.0108,-3.8946,-3.8077,-3.7965,-3.7813,-3.7751,-3.7879,-3.815,-3.8269,-3.8145,-3.8138,-3.7783,-3.6931,-3.5971,-3.5134,-3.4352,-3.2972,-3.2372,-3.2739,-3.2611,-3.2304,-3.1774,-3.0441,-2.9583,-2.9242,-2.9369,-2.9327,-2.9134,-2.8907,-2.8987,-2.9372,-2.9354,-2.9493,-2.9692,-2.9875,-2.9944,-2.9973,-2.9311,-2.8945,-2.8754,-2.8614,-2.8262,-2.7833,-2.7439,-2.7334,-2.7317,-2.7083,-2.6873,-2.691,-2.8122,-2.8332,-2.8338,-2.9111,-2.9157,-2.8924,-2.8619,-2.7926,-2.7503,-2.8332,-2.8484,-2.845,-2.845,-2.9347,-3.0057,-2.9668,-2.9905,-2.9939,-2.9194,-2.8721,-2.845,-2.845,-2.7452,0.0,0.0,-2.845,-2.8738,-2.955,-3.0294,-3.092,-3.1326,-3.1681,-3.2019,-3.2357,-3.2696,-3.3203,-3.3947,-3.3981,-3.4336,-3.5081,-3.4218,-3.3909,-3.4209,-3.4209,-3.4167,-3.4137,-3.4215,-3.4184,-3.4137,-3.4496,-3.4657,-3.4657,-3.4657,-3.4657,-3.4657,-3.4657,-3.4657,-3.4657,-3.4284,-3.3937,-3.3633,-3.3287,-3.2933,-3.261,-4.2429,-4.177,-4.0972,-4.0185,-3.9097,-3.8302,-3.8226,-3.8044,-3.7946,-3.8065,-3.8446,-3.8707,-3.8707,-3.8707,-3.8546,-3.8099,-3.7076,-3.6417,-3.6417,-3.4639,-3.3617,-3.377,-3.3309,-3.2902,-3.2606,-3.1573,-3.0876,-3.0595,-3.0682,-3.0457,-2.9993,-2.9656,-2.9692,-3.0066,-2.9837,-2.997,-3.036,-3.0252,-3.0301,-3.0396,-2.9725,-2.9296,-2.9096,-2.9096,-2.8784,-2.8324,-2.7776,-2.7813,-2.8134,-2.7822,-2.7653,-2.7769,-2.9193,-2.9427,-2.9301,-3.0051,-2.9972,-2.9663,-2.9824,-2.8991,-2.8366,-2.955,-2.955,-2.9245,-2.9245,-3.0243,-3.1038,-3.048,-3.0818,-3.097,-3.0243,-2.9634,-2.9245,-2.9245,0.0,0.0,0.0,-2.9499,-2.9989,-3.1292,-3.2104,-3.2763,-3.3355,-3.3558,-3.366,-3.366,-3.3812,-3.4167,-3.4726,-3.4759,-3.503,-3.5605,-3.5622,-3.5622,-3.5622,-3.5622,-3.5362,-3.4847,-3.5362,-3.5316,-3.4847,-3.5362,-3.5622,-3.5622,-3.5622,-3.5622,-3.5622,-3.5622,-3.5622,-3.556,-3.5035,-3.4736,-3.4528,-3.4037,-3.3735,-3.3582,-4.266,-4.1629,-4.0501,-3.9693,-3.892,-3.8296,-3.7984,-3.7895,-3.8065,-3.8596,-3.8676,-3.8707,-3.8707,-3.8707,-3.8658,-3.8627,-3.8096,-3.7769,-3.7769,-3.6224,-3.5019,-3.438,-3.3249,-3.2643,-3.2614,-3.1781,-3.0823,-2.971,-3.1153,-3.0915,-2.9136,-3.0198,-3.0304,-2.9656,-2.9995,-2.9758,-2.919,-2.9892,-2.9782,-2.9135,-2.908,-2.902,-2.902,-2.902,-2.8737,-2.8394,-2.8324,-2.8621,-2.9018,-2.8989,-2.9437,-3.0163,-3.0973,-3.1204,-3.1331,-3.2077,-3.1969,-3.1248,-2.9544,-2.9011,-2.8924,-2.9042,-2.955,-3.0023,-3.0023,-3.0632,-3.1173,-3.1123,-3.1157,-3.097,-3.0243,-3.0074,-3.0023,-3.0023,0.0,0.0,-3.0818,-3.1038,-3.1326,-3.2104,-3.2865,-3.3339,-3.3406,-3.4015,-3.4421,-3.4421,-3.5064,-3.5487,-3.5537,-3.5537,-3.5554,-3.5622,-3.5622,-3.5622,-3.5622,-3.5622,-3.5577,-3.5515,-3.5577,-3.5577,-3.5515,-3.5577,-3.5622,-3.5622,-3.5622,-3.5622,-3.5622,-3.5622,-3.5622,-3.5577,-3.5577,-3.5144,-3.4576,-3.4528,-3.4137,-3.3582,-4.1915,-4.1291,-4.0677,-3.9895,-3.9111,-3.8554,-3.8415,-3.8382,-3.8465,-3.8658,-3.8707,-3.8707,-3.8707,-3.8707,-3.8707,-3.8707,-3.8216,-3.8032,-3.8382,-3.7051,-3.5589,-3.4079,-3.4073,-3.3862,-3.3366,-3.3036,-3.2672,-3.2192,-3.2311,-3.1983,-3.1211,-3.0665,-3.0268,-2.9958,-2.9606,-2.9287,-2.9012,-2.9347,-2.9586,-2.9751,-2.9751,-2.9751,-2.9806,-3.0301,-3.0082,-2.9551,-2.9835,-3.0062,-3.022,-3.022,-3.0255,-3.054,-3.1769,-3.1993,-3.1978,-3.2719,-3.2598,-3.2091,-3.1376,-3.063,-3.0159,-3.064,-3.082,-3.1045,-3.1481,-3.2178,-3.2663,-3.2362,-3.2916,-3.3345,-3.2745,-3.2276,-3.2104,-3.2586,0.0,-3.0869,-3.2357,-3.256,-3.2848,-3.3575,-3.432,-3.4776,-3.4776,-3.503,-3.5182,-3.5182,-3.5453,-3.5622,-3.5622,-3.5622,-3.5622,-3.5622,-3.5622,-3.5622,-3.5622,-3.5622,-3.5622,-3.5622,-3.5622,-3.5622,-3.5639,-3.6129,-3.6079,-3.5639,-3.6129,-3.6062,-3.5622,-3.5622,-3.5622,-3.5622,-3.5622,-3.5453,-3.5207,-3.5207,-3.5052,-3.4864,-4.1748,-4.1677,-4.1456,-4.0134,-3.9643,-3.9258,-3.8781,-3.8707,-3.8707,-3.8707,-3.8707,-3.8707,-3.8707,-3.8707,-3.8707,-3.8707,-3.8382,-3.83,-3.8676,-3.784,-3.6406,-3.4257,-3.4697,-3.4633,-3.3825,-3.3807,-3.355,-3.3054,-3.2999,-3.2596,-3.1843,-3.1237,-3.0815,-3.0558,-3.0008,-2.9751,-2.9751,-2.9751,-3.0081,-3.0577,-3.0577,-3.0577,-3.0632,-3.1182,-3.1054,-3.0626,-3.0927,-3.1211,-3.1429,-3.1429,-3.1418,-3.1575,-3.2647,-3.2803,-3.2754,-3.3388,-3.336,-3.3108,-3.3239,-3.2769,-3.2247,-3.2371,-3.2439,-3.2583,-3.28,-3.3507,-3.3916,-3.3351,-3.4111,-3.4801,-3.4491,-3.4016,-3.3841,-3.4329,-3.3128,-3.2588,-3.3833,-3.3871,-3.4032,-3.4759,-3.5301,-3.5622,-3.5622,-3.5622,-3.5723,-3.596,-3.5757,-3.5622,-3.5622,-3.5622,-3.5622,-3.5622,-3.5622,-3.5622,-3.5622,-3.5622,-3.5622,-3.5622,-3.5622,-3.574,-3.5994,-3.6282,-3.6265,-3.6011,-3.6552,-3.6332,-3.5639,-3.5876,-3.5842,-3.5622,-3.5622,-3.5622,-3.5622,-3.5622,-3.5622,-3.5622,-4.2426,-4.2926,-4.2724,-4.032,-4.0546,-4.0533,-3.8927,-3.8707,-3.8707,-3.8707,-3.8707,-3.8707,-3.8707,-3.8707,-3.8707,-3.8707,-3.8707,-3.8707,-3.8707,-3.8707,-3.7606,-3.5119,-3.5009,-3.4651,-3.3825,-3.3807,-3.3018,-3.1403,-3.2999,-3.2577,-3.0246,-3.1861,-3.2173,-3.1384,-3.1384,-3.1384,-3.1384,-3.1384,-3.1384,-3.1384,-3.1384,-3.1384,-3.1384,-3.1403,-3.1403,-3.1403,-3.1403,-3.1935,-3.2614,-3.2614,-3.3146,-3.3807,-3.3807,-3.3807,-3.3872,-3.428,-3.4424,-3.4492,-3.4814,-3.5249,-3.5317,-3.4033,-3.4304,-3.4693,-3.3896,-3.4321,-3.4693,-3.3896,-3.4357,-3.4924,-3.4924,-3.4924,-3.4924,-3.4924,-3.4546,-3.448,-3.5226,-3.4856,-3.4776,-3.552,-3.5622,-3.5622,-3.5622,-3.5639,-3.596,-3.6738,-3.6079,-3.5639,-3.5622,-3.5639,-3.5639,-3.5622,-3.5622,-3.5622,-3.5622,-3.5622,-3.5622,-3.5622,-3.5622,-3.6028,-3.6755,-3.5994,-3.6062,-3.6789,-3.6789,-3.6349,-3.569,-3.6468,-3.6332,-3.5639,-3.5639,-3.5639,-3.5639,-3.5639,-3.5639,-3.5639,-4.0777,-4.0809,-4.0767,-4.0037,-3.9619,-3.9239,-3.8781,-3.8707,-3.8707,-3.8707,-3.8707,-3.8707,-3.8707,-3.8707,-3.8707,-3.8707,-3.8707,-3.8707,-3.8707,-3.8707,-3.812,-3.6798,-3.6743,-3.6083,-3.4688,-3.4651,-3.4137,-3.3073,-3.2999,-3.2596,-3.188,-3.1806,-3.1623,-3.1384,-3.1384,-3.1384,-3.1384,-3.1384,-3.1384,-3.1384,-3.1384,-3.1384,-3.1458,-3.2027,-3.2247,-3.232,-3.2871,-3.3238,-3.344,-3.344,-3.3605,-3.3807,-3.3807,-3.4192,-3.4679,-3.4804,-3.525,-3.5762,-3.586,-3.6395,-3.6632,-3.5353,-3.548,-3.5812,-3.5575,-3.6139,-3.6567,-3.5921,-3.6732,-3.7443,-3.707,-3.7001,-3.7001,-3.7001,-3.7074,-3.69,-3.6162,-3.6412,-3.6423,-3.5701,-3.6096,-3.6434,-3.6434,-3.6907,-3.7313,-3.755,-3.7364,-3.6992,-3.6468,-3.6941,-3.6738,-3.5656,-3.6146,-3.618,-3.5622,-3.5622,-3.5622,-3.5622,-3.618,-3.6552,-3.6806,-3.7618,-3.7838,-3.7601,-3.8108,-3.7905,-3.7246,-3.7466,-3.7432,-3.7229,-3.7229,-3.7229,-3.7161,-3.662,-3.6772,-3.7144,-4.0065,-4.0152,-4.0165,-3.9533,-3.9294,-3.9074,-3.8762,-3.8707,-3.8707,-3.8707,-3.8707,-3.8707,-3.8707,-3.8707,-3.8707,-3.8707,-3.8707,-3.8707,-3.8707,-3.8707,-3.8487,-3.7991,-3.7955,-3.7037,-3.5027,-3.499,-3.4468,-3.333,-3.3164,-3.2926,-3.2614,-3.243,-3.2339,-3.2339,-3.2339,-3.2339,-3.2339,-3.2339,-3.2339,-3.2339,-3.2339,-3.2339,-3.2394,-3.2889,-3.3073,-3.3146,-3.3623,-3.3807,-3.3807,-3.3807,-3.4009,-3.4339,-3.4688,-3.5128,-3.5587,-3.5899,-3.6358,-3.6835,-3.7165,-3.7588,-3.7784,-3.702,-3.7052,-3.7165,-3.6835,-3.7624,-3.8187,-3.7194,-3.841,-3.9347,-3.8376,-3.8743,-3.9052,-3.8743,-3.8942,-3.878,-3.7767,-3.785,-3.7716,-3.6935,-3.7267,-3.7558,-3.7558,-3.7969,-3.8138,-3.7905,-3.8176,-3.8007,-3.7263,-3.7669,-3.7483,-3.6552,-3.6975,-3.6992,-3.6535,-3.6518,-3.6366,-3.6079,-3.6857,-3.7381,-3.7669,-3.8278,-3.8481,-3.8362,-3.8802,-3.8582,-3.7905,-3.7905,-3.7905,-3.7872,-3.7584,-3.7652,-3.7855,-3.7398,-3.7516,-3.7838,-3.9937,-4.0377,-4.0432,-3.8964,-3.9313,-3.9551,-3.8817,-3.8707,-3.8707,-3.8707,-3.8707,-3.8707,-3.8707,-3.8707,-3.8707,-3.8707,-3.8707,-3.8707,-3.8707,-3.8707,-3.8707,-3.8707,-3.8634,-3.7551,-3.5265,-3.521,-3.4422,-3.2816,-3.355,-3.3495,-3.2724,-3.3458,-3.3807,-3.3807,-3.3807,-3.3807,-3.3807,-3.3807,-3.3807,-3.3807,-3.3807,-3.3807,-3.3807,-3.3807,-3.3807,-3.3807,-3.3807,-3.3807,-3.3807,-3.388,-3.4394,-3.5137,-3.6028,-3.634,-3.6541,-3.7276,-3.7562,-3.7771,-3.8597,-3.8817,-3.8817,-3.8909,-3.8909,-3.8707,-3.7881,-3.8836,-3.9496,-3.8102,-3.957,-4.0653,-3.9184,-4.012,-4.0873,-4.012,-4.0266,-4.0274,-3.9651,-3.9199,-3.892,-3.8782,-3.8834,-3.8868,-3.8781,-3.8807,-3.8625,-3.8139,-3.8717,-3.8768,-3.8041,-3.8075,-3.8041,-3.7905,-3.7973,-3.7973,-3.7905,-3.7973,-3.7635,-3.6891,-3.7652,-3.8345,-3.8971,-3.8379,-3.8464,-3.9089,-3.9089,-3.8717,-3.8108,-3.8108,-3.8108,-3.8024,-3.7347,-3.7499,-3.8091,-3.8024,-3.8041,-3.8108,-3.9001,-3.9111,-3.9111,-3.8762,-3.8836,-3.8909,-3.8726,-3.8707,-3.8707,-3.8707,-3.8707,-3.8707,-3.8707,-3.8707,-3.8707,-3.8707,-3.8707,-3.8707,-3.8707,-3.8707,-3.8707,-3.8707,-3.8102,-3.7496,-3.6964,-3.6945,-3.6138,-3.4477,-3.4642,-3.4339,-3.3532,-3.3715,-3.3807,-3.3807,-3.3807,-3.3807,-3.3807,-3.3807,-3.3807,-3.3807,-3.3807,-3.3807,-3.3807,-3.3807,-3.3807,-3.3807,-3.3807,-3.3807,-3.3899,-3.4541,-3.4844,-3.5137,-3.6028,-3.6725,-3.7257,-3.747,-3.7936,-3.8615,-3.9423,-3.9643,-3.979,-4.0432,-4.0598,-4.0377,-3.9551,-3.9643,-3.9974,-4.0267,-4.0744,-4.1001,-4.0653,-4.0873,-4.1056,-4.0873,-4.1431,-4.1447,-4.0274,-4.0594,-4.0545,-3.9522,-3.99,-4.0059,-3.9596,-3.9705,-3.9778,-3.9647,-3.9749,-3.9529,-3.8802,-3.9292,-3.9089,-3.7939,-3.8464,-3.8481,-3.7922,-3.8464,-3.8396,-3.7669,-3.8413,-3.8853,-3.9005,-3.9411,-3.9698,-3.9834,-3.9834,-3.9749,-3.9597,-3.9597,-3.9597,-3.9597,-3.9428,-3.9462,-3.9529,-3.8971,-3.9123,-3.9597,-3.8707,-3.8707,-3.8707,-3.8707,-3.8707,-3.8707,-3.8707,-3.8707,-3.8707,-3.8707,-3.8707,-3.8707,-3.8707,-3.8707,-3.8707,-3.8707,-3.8707,-3.8707,-3.8707,-3.8707,-3.8707,-3.8707,-3.8303,-3.8065,-3.8065,-3.7679,-3.667,-3.499,-3.499,-3.4596,-3.3807,-3.3807,-3.3807,-3.3825,-3.4211,-3.4174,-3.3825,-3.4211,-3.4156,-3.3807,-3.3807,-3.3807,-3.3807,-3.3807,-3.3807,-3.3807,-3.3807,-3.4045,-3.4559,-3.5789,-3.6193,-3.634,-3.7184,-3.7734,-3.8065,-3.8065,-3.8377,-3.8891,-3.968,-3.99,-4.0084,-4.091,-4.1111,-4.1001,-4.0579,-4.0763,-4.1056,-4.1093,-4.1717,-4.2011,-4.1258,-4.1735,-4.2121,-4.1735,-4.2359,-4.2553,-4.1577,-4.1829,-4.1805,-4.116,-4.1403,-4.1515,-4.1209,-4.1014,-4.0814,-4.0497,-4.0767,-4.0642,-3.9932,-4.0292,-4.0138,-3.9367,-3.9489,-3.9326,-3.8937,-3.9326,-3.9326,-3.8954,-3.9326,-3.9512,-3.9529,-3.9901,-4.007,-4.007,-4.007,-4.007,-4.0054,-3.9698,-3.9766,-4.0054,-3.9698,-3.9766,-3.9986,-3.9259,-3.9005,-3.9039,-3.8707,-3.8707,-3.8707,-3.8707,-3.8707,-3.8707,-3.8707,-3.8707,-3.8707,-3.8707,-3.8707,-3.8707,-3.8707,-3.8707,-3.8707,-3.8707,-3.8707,-3.8707,-3.8707,-3.8707,-3.8707,-3.8707,-3.8579,-3.856,-3.8707,-3.7771,-3.6597,-3.521,-3.521,-3.4743,-3.3807,-3.3935,-3.4009,-3.4027,-3.4697,-3.4623,-3.4064,-3.489,-3.4688,-3.3807,-3.3954,-3.3917,-3.3825,-3.3954,-3.4009,-3.4027,-3.4174,-3.4669,-3.5477,-3.6982,-3.7507,-3.7643,-3.8615,-3.8909,-3.8927,-3.9074,-3.9111,-3.9294,-4.0084,-4.0304,-4.0487,-4.1313,-4.1515,-4.1515,-4.1515,-4.1919,-4.2158,-4.1625,-4.2561,-4.3075,-4.1772,-4.2598,-4.3277,-4.2598,-4.3057,-4.3321,-4.2902,-4.2826,-4.2826,-4.2826,-4.275,-4.2711,-4.2711,-4.2162,-4.1578,-4.1087,-4.1534,-4.1578,-4.1087,-4.0949,-4.0903,-4.0903,-4.0368,-4.007,-4.007,-4.007,-4.007,-4.007,-4.007,-4.007,-4.007,-4.007,-4.007,-4.007,-4.007,-4.007,-4.002,-3.9428,-3.9529,-4.002,-3.9411,-3.9546,-3.9986,-3.9259,-3.8684,-3.8261,-3.8707,-3.8707,-3.8707,-3.8707,-3.8707,-3.8707,-3.8707,-3.8707,-3.8707,-3.8707,-3.8707,-3.8707,-3.8707,-3.8707,-3.8707,-3.8707,-3.8707,-3.8707,-3.8707,-3.8707,-3.8707,-3.8707,-3.8028,-3.7973,-3.8689,-3.7221,-3.634,-3.6119,-3.6119,-3.533,-3.3825,-3.4523,-3.4825,-3.4825,-3.4935,-3.4935,-3.488,-3.5771,-3.522,-3.3862,-3.4578,-3.4431,-3.388,-3.4578,-3.4825,-3.4945,-3.5697,-3.6028,-3.6266,-3.7184,-3.7507,-3.7753,-3.9258,-3.9735,-3.9863,-4.0579,-4.0799,-4.0965,-4.1772,-4.1974,-4.2176,-4.2965,-4.3167,-4.3167,-4.3167,-4.2708,-4.247,-4.3039,-4.3332,-4.3424,-4.3222,-4.3332,-4.3442,-4.3351,-4.3424,-4.3479,-4.341,-4.341,-4.341,-4.341,-4.2976,-4.2711,-4.2711,-4.2162,-4.1768,-4.1664,-4.175,-4.175,-4.1664,-4.1161,-4.0903,-4.0903,-4.0368,-4.007,-4.007,-4.007,-4.007,-4.007,-4.007,-4.007,-4.007,-4.007,-4.007,-4.007,-4.007,-4.007,-4.007,-3.9969,-3.9986,-4.007,-3.9969,-3.9986,-3.9986,-3.9259,-3.9326,-3.9698,-3.8707,-3.8815,-3.8884,-3.8719,-3.8815,-3.8884,-3.8719,-3.8707,-3.8707,-3.8707,-3.8707,-3.8707,-3.8707,-3.8707,-3.8707,-3.8707,-3.8707,-3.8707,-3.8707,-3.8707,-3.8707,-3.8707,-3.8358,-3.834,-3.8689,-3.7551,-3.6964,-3.6964,-3.6505,-3.5917,-3.5202,-3.5569,-3.5734,-3.5752,-3.6193,-3.5881,-3.5082,-3.6413,-3.5734,-3.3917,-3.522,-3.5238,-3.4578,-3.5422,-3.5734,-3.5844,-3.667,-3.6964,-3.7147,-3.8414,-3.8836,-3.9038,-4.0194,-4.0579,-4.0653,-4.102,-4.1111,-4.1295,-4.2084,-4.2304,-4.2488,-4.3296,-4.3497,-4.3497,-4.3497,-4.3222,-4.3057,-4.3424,-4.3497,-4.3497,-4.3497,-4.3497,-4.3497,-4.3497,-4.3497,-4.3497,-4.3497,-4.3497,-4.3497,-4.3497,-4.3286,-4.3142,-4.3142,-4.2903,-4.2619,-4.2342,-4.258,-4.2619,-4.2302,-4.1707,-4.1402,-4.1402,-4.0546,-4.007,-4.007,-4.007,-4.007,-4.007,-4.007,-4.007,-4.007,-4.007,-4.007,-4.007,-4.007,-4.007,-4.007,-4.007,-4.007,-4.007,-4.007,-3.9834,-3.9428,-3.9106,-3.8937,-3.887]},{"header":{"parameterUnit":"m.s-1","parameterCategory":1,"la1":30.6,"la2":28.766,"lo1":-90.7593,"lo2":-88.6598,"dy":0.0162,"dx":0.0183,"nx":116,"ny":114,"refTime":"2023-07-20T12:00:00:Z","depth":0,"parameterNumber":3,"parameterNumberName":"V-component_of_WINDS"},"data":[0.0,0.0,0.0,0.0,0.0,0.0,0.0,0.0,0.0,0.0,0.0,0.0,0.0,0.0,0.0,0.0,0.0,0.0,0.0,0.0,0.0,0.0,0.0,0.0,0.0,0.0,0.0,0.0,0.0,0.0,0.0,0.0,0.0,0.0,0.0,0.0,0.0,0.0,0.0,0.0,0.0,0.0,0.0,0.0,0.0,0.0,0.0,0.0,0.0,0.0,0.0,0.0,0.0,0.0,0.0,0.0,0.0,0.0,0.0,0.0,0.0,0.0,0.0,0.0,0.0,0.0,0.0,0.0,0.0,0.0,0.0,0.0,0.0,0.0,0.0,0.0,0.0,0.0,0.0,0.0,0.0,0.0,0.0,0.0,0.0,0.0,0.0,0.0,0.0,0.0,0.0,0.0,0.0,0.0,0.0,0.0,0.0,0.0,0.0,0.0,0.0,0.0,0.0,0.0,0.0,0.0,0.0,0.0,0.0,0.0,0.0,0.0,0.0,0.0,0.0,0.0,0.0,0.0,0.0,0.0,0.0,0.0,0.0,0.0,0.0,0.0,0.0,0.0,0.0,0.0,0.0,0.0,0.0,0.0,0.0,0.0,0.0,0.0,0.0,0.0,0.0,0.0,0.0,0.0,0.0,0.0,0.0,0.0,0.0,0.0,0.0,0.0,0.0,0.0,0.0,0.0,0.0,0.0,0.0,0.0,0.0,0.0,0.0,0.0,0.0,0.0,0.0,0.0,0.0,0.0,0.0,0.0,0.0,0.0,0.0,0.0,0.0,0.0,0.0,0.0,0.0,0.0,0.0,0.0,0.0,0.0,0.0,0.0,0.0,0.0,0.0,0.0,0.0,0.0,0.0,0.0,0.0,0.0,0.0,0.0,0.0,0.0,0.0,0.0,0.0,0.0,0.0,0.0,0.0,0.0,0.0,0.0,0.0,0.0,0.0,0.0,0.0,0.0,0.0,0.0,0.0,0.0,0.0,0.0,0.0,0.0,0.0,0.0,0.0,0.0,0.0,0.0,0.0,0.0,0.0,0.0,0.0,0.0,0.0,0.0,0.0,0.0,0.0,0.0,0.0,0.0,0.0,0.0,0.0,0.0,0.0,0.0,0.0,0.0,0.0,0.0,0.0,0.0,0.0,0.0,0.0,0.0,0.0,0.0,0.0,0.0,0.0,0.0,0.0,0.0,0.0,0.0,0.0,0.0,0.0,0.0,0.0,0.0,0.0,0.0,0.0,0.0,0.0,0.0,0.0,0.0,0.0,0.0,0.0,0.0,0.0,0.0,0.0,0.0,0.0,0.0,0.0,0.0,0.0,0.0,0.0,0.0,0.0,0.0,0.0,0.0,0.0,0.0,0.0,0.0,0.0,0.0,0.0,0.0,0.0,0.0,0.0,0.0,0.0,0.0,0.0,0.0,0.0,0.0,0.0,0.0,0.0,0.0,0.0,0.0,0.0,0.0,0.0,0.0,0.0,0.0,0.0,0.0,0.0,0.0,0.0,0.0,0.0,0.0,0.0,0.0,0.0,0.0,0.0,0.0,0.0,0.0,0.0,0.0,0.0,0.0,0.0,0.0,0.0,0.0,0.0,0.0,0.0,0.0,0.0,0.0,0.0,0.0,0.0,0.0,0.0,0.0,0.0,0.0,0.0,0.0,0.0,0.0,0.0,0.0,0.0,0.0,0.0,0.0,0.0,0.0,0.0,0.0,0.0,0.0,0.0,0.0,0.0,0.0,0.0,0.0,0.0,0.0,0.0,0.0,0.0,0.0,0.0,0.0,0.0,0.0,0.0,0.0,0.0,0.0,0.0,0.0,0.0,0.0,0.0,0.0,0.0,0.0,0.0,0.0,0.0,0.0,0.0,0.0,0.0,0.0,0.0,0.0,0.0,0.0,0.0,0.0,0.0,0.0,0.0,0.0,0.0,0.0,0.0,0.0,0.0,0.0,0.0,0.0,0.0,0.0,0.0,0.0,0.0,0.0,0.0,0.0,0.0,0.0,0.0,0.0,0.0,0.0,0.0,0.0,0.0,0.0,0.0,0.0,0.0,0.0,0.0,0.0,0.0,0.0,0.0,0.0,0.0,0.0,0.0,0.0,0.0,0.0,0.0,0.0,0.0,0.0,0.0,0.0,0.0,0.0,0.0,0.0,0.0,0.0,0.0,0.0,0.0,0.0,0.0,0.0,0.0,0.0,0.0,0.0,0.0,0.0,0.0,0.0,0.0,0.0,0.0,0.0,0.0,0.0,0.0,0.0,0.0,0.0,0.0,0.0,0.0,0.0,0.0,0.0,0.0,0.0,0.0,0.0,0.0,0.0,0.0,0.0,0.0,0.0,0.0,0.0,0.0,0.0,0.0,0.0,0.0,0.0,0.0,0.0,0.0,0.0,0.0,0.0,0.0,0.0,0.0,0.0,0.0,0.0,0.0,0.0,0.0,0.0,0.0,0.0,0.0,0.0,0.0,0.0,0.0,0.0,0.0,0.0,0.0,0.0,0.0,0.0,0.0,0.0,0.0,0.0,0.0,0.0,0.0,0.0,0.0,0.0,0.0,0.0,0.0,0.0,0.0,0.0,0.0,0.0,0.0,0.0,0.0,0.0,0.0,0.0,0.0,0.0,0.0,0.0,0.0,0.0,0.0,0.0,0.0,0.0,0.0,0.0,0.0,0.0,0.0,0.0,0.0,0.0,0.0,0.0,0.0,0.0,0.0,0.0,0.0,0.0,0.0,0.0,0.0,0.0,0.0,0.0,0.0,0.0,0.0,0.0,0.0,0.0,0.0,0.0,0.0,0.0,0.0,0.0,0.0,0.0,0.0,0.0,0.0,0.0,0.0,0.0,0.0,0.0,0.0,0.0,0.0,0.0,0.0,0.0,0.0,0.0,0.0,0.0,0.0,0.0,0.0,0.0,0.0,0.0,0.0,0.0,0.0,0.0,0.0,0.0,0.0,0.0,0.0,0.0,0.0,0.0,0.0,0.0,0.0,0.0,0.0,0.0,0.0,0.0,0.0,0.0,0.0,0.0,0.0,0.0,0.0,0.0,0.0,0.0,0.0,0.0,0.0,0.0,0.0,0.0,0.0,0.0,0.0,0.0,0.0,0.0,0.0,0.0,0.0,0.0,0.0,0.0,0.0,0.0,0.0,0.0,0.0,0.0,0.0,0.0,0.0,0.0,0.0,0.0,0.0,0.0,0.0,0.0,0.0,0.0,0.0,0.0,0.0,0.0,0.0,0.0,0.0,0.0,0.0,0.0,0.0,0.0,0.0,0.0,0.0,0.0,0.0,0.0,0.0,0.0,0.0,0.0,0.0,0.0,0.0,0.0,0.0,0.0,0.0,0.0,0.0,0.0,0.0,0.0,0.0,0.0,0.0,0.0,0.0,0.0,0.0,0.0,0.0,0.0,0.0,0.0,0.0,0.0,0.0,0.0,0.0,0.0,0.0,0.0,0.0,0.0,0.0,0.0,0.0,0.0,0.0,0.0,0.0,0.0,0.0,0.0,0.0,0.0,0.0,0.0,0.0,0.0,0.0,0.0,0.0,0.0,0.0,0.0,0.0,0.0,0.0,0.0,0.0,0.0,0.0,0.0,0.0,0.0,0.0,0.0,0.0,0.0,0.0,0.0,0.0,0.0,0.0,0.0,0.0,0.0,0.0,0.0,0.0,0.0,0.0,0.0,0.0,0.0,0.0,0.0,0.0,0.0,0.0,0.0,0.0,0.0,0.0,0.0,0.0,0.0,0.0,0.0,0.0,0.0,0.0,0.0,0.0,0.0,0.0,0.0,0.0,0.0,0.0,0.0,0.0,0.0,0.0,0.0,0.0,0.0,0.0,0.0,0.0,0.0,0.0,0.0,0.0,0.0,0.0,0.0,0.0,0.0,0.0,0.0,0.0,0.0,0.0,0.0,0.0,0.0,0.0,0.0,0.0,0.0,0.0,0.0,0.0,0.0,0.0,0.0,0.0,0.0,0.0,0.0,0.0,0.0,0.0,0.0,0.0,0.0,0.0,0.0,0.0,0.0,0.0,0.0,0.0,0.0,0.0,0.0,0.0,0.0,0.0,0.0,0.0,0.0,0.0,0.0,0.0,0.0,0.0,0.0,0.0,0.0,0.0,0.0,0.0,0.0,0.0,0.0,0.0,0.0,0.0,0.0,0.0,0.0,0.0,0.0,0.0,0.0,0.0,0.0,0.0,0.0,0.0,0.0,0.0,0.0,0.0,0.0,0.0,0.0,0.0,0.0,0.0,0.0,0.0,0.0,0.0,0.0,0.0,0.0,0.0,0.0,0.0,0.0,0.0,0.0,0.0,0.0,0.0,0.0,0.0,0.0,0.0,0.0,0.0,0.0,0.0,0.0,0.0,0.0,0.0,0.0,0.0,0.0,0.0,0.0,0.0,0.0,0.0,0.0,0.0,0.0,0.0,0.0,0.0,0.0,0.0,0.0,0.0,0.0,0.0,0.0,0.0,0.0,0.0,0.0,0.0,0.0,0.0,0.0,0.0,0.0,0.0,0.0,0.0,0.0,0.0,0.0,0.0,0.0,0.0,0.0,0.0,0.0,0.0,0.0,0.0,0.0,0.0,0.0,0.0,0.0,0.0,0.0,0.0,0.0,0.0,0.0,0.0,0.0,0.0,0.0,0.0,0.0,0.0,0.0,0.0,0.0,0.0,0.0,0.0,0.0,0.0,0.0,0.0,0.0,0.0,0.0,0.0,0.0,0.0,0.0,0.0,0.0,0.0,0.0,0.0,0.0,0.0,0.0,0.0,0.0,0.0,0.0,0.0,0.0,0.0,0.0,0.0,0.0,0.0,0.0,0.0,0.0,0.0,0.0,0.0,0.0,0.0,0.0,0.0,0.0,0.0,0.0,0.0,0.0,0.0,0.0,0.0,0.0,0.0,0.0,0.0,0.0,0.0,0.0,0.0,0.0,0.0,0.0,0.0,0.0,0.0,0.0,0.0,0.0,0.0,0.0,0.0,0.0,0.0,0.0,0.0,0.0,0.0,0.0,0.0,0.0,0.0,0.0,0.0,0.0,0.0,0.0,0.0,0.0,0.0,0.0,0.0,0.0,0.0,0.0,0.0,0.0,0.0,0.0,0.0,0.0,0.0,0.0,0.0,0.0,0.0,0.0,0.0,0.0,0.0,0.0,0.0,0.0,0.0,0.0,0.0,0.0,0.0,0.0,0.0,0.0,0.0,0.0,0.0,0.0,0.0,0.0,0.0,0.0,0.0,0.0,0.0,0.0,0.0,0.0,0.0,0.0,0.0,0.0,0.0,0.0,0.0,0.0,0.0,0.0,0.0,0.0,0.0,0.0,0.0,0.0,0.0,0.0,0.0,0.0,0.0,0.0,0.0,0.0,0.0,0.0,0.0,0.0,0.0,0.0,0.0,0.0,0.0,0.0,0.0,0.0,0.0,0.0,0.0,0.0,0.0,0.0,0.0,0.0,0.0,0.0,0.0,0.0,0.0,0.0,0.0,0.0,0.0,0.0,0.0,0.0,0.0,0.0,0.0,0.0,0.0,0.0,0.0,0.0,0.0,0.0,0.0,0.0,0.0,0.0,0.0,0.0,0.0,0.0,0.0,0.0,0.0,0.0,0.0,0.0,0.0,0.0,0.0,0.0,0.0,0.0,0.0,0.0,0.0,0.0,0.0,0.0,0.0,0.0,0.0,0.0,0.0,0.0,0.0,0.0,0.0,0.0,0.0,0.0,0.0,0.0,0.0,0.0,0.0,0.0,0.0,0.0,0.0,0.0,0.0,0.0,0.0,0.0,0.0,0.0,0.0,0.0,0.0,0.0,0.0,0.0,0.0,0.0,0.0,0.0,0.0,0.0,0.0,0.0,0.0,0.0,0.0,0.0,0.0,0.0,0.0,0.0,0.0,0.0,0.0,0.0,0.0,0.0,0.0,0.0,0.0,0.0,0.0,0.0,0.0,0.0,0.0,0.0,0.0,0.0,0.0,0.0,0.0,0.0,0.0,0.0,0.0,0.0,0.0,0.0,0.0,0.0,0.0,0.0,0.0,0.0,0.0,0.0,0.0,0.0,0.0,0.0,0.0,0.0,0.0,0.0,0.0,0.0,-2.9382,0.0,0.0,0.0,0.0,0.0,0.0,0.0,0.0,0.0,0.0,0.0,0.0,0.0,0.0,0.0,0.0,0.0,0.0,0.0,0.0,0.0,0.0,0.0,0.0,0.0,0.0,0.0,0.0,0.0,0.0,0.0,0.0,0.0,0.0,0.0,0.0,0.0,0.0,0.0,0.0,0.0,0.0,0.0,0.0,0.0,0.0,0.0,0.0,0.0,0.0,0.0,0.0,0.0,0.0,0.0,0.0,0.0,0.0,0.0,0.0,0.0,0.0,0.0,0.0,0.0,0.0,0.0,0.0,0.0,0.0,0.0,0.0,0.0,0.0,0.0,0.0,0.0,0.0,0.0,0.0,0.0,0.0,0.0,0.0,0.0,0.0,0.0,0.0,0.0,0.0,0.0,0.0,0.0,0.0,0.0,0.0,0.0,0.0,0.0,0.0,0.0,0.0,0.0,0.0,0.0,0.0,0.0,0.0,0.0,0.0,0.0,0.0,0.0,0.0,0.0,0.0,-3.16,0.0,0.0,0.0,0.0,0.0,0.0,0.0,0.0,0.0,0.0,0.0,0.0,0.0,0.0,0.0,0.0,0.0,0.0,0.0,0.0,0.0,0.0,0.0,0.0,0.0,0.0,0.0,0.0,0.0,0.0,0.0,0.0,0.0,0.0,0.0,0.0,0.0,0.0,0.0,0.0,0.0,0.0,0.0,0.0,0.0,0.0,0.0,0.0,0.0,0.0,0.0,0.0,0.0,0.0,0.0,0.0,0.0,0.0,0.0,0.0,0.0,0.0,0.0,0.0,0.0,0.0,0.0,0.0,0.0,0.0,0.0,0.0,0.0,0.0,0.0,0.0,0.0,0.0,0.0,0.0,0.0,0.0,0.0,0.0,0.0,0.0,0.0,0.0,0.0,0.0,0.0,0.0,0.0,0.0,0.0,0.0,0.0,0.0,0.0,0.0,0.0,0.0,0.0,0.0,0.0,0.0,0.0,0.0,-3.7204,-3.806,-3.8308,-3.846,-3.8708,-3.8975,-3.7542,-3.5942,-3.4319,-3.4584,0.0,0.0,0.0,0.0,0.0,0.0,0.0,0.0,0.0,0.0,0.0,0.0,0.0,0.0,0.0,0.0,0.0,0.0,0.0,0.0,0.0,0.0,0.0,0.0,0.0,0.0,0.0,0.0,0.0,0.0,0.0,0.0,0.0,0.0,0.0,0.0,0.0,0.0,-2.8813,-3.0333,-3.1352,-3.1775,-2.9102,0.0,0.0,0.0,0.0,0.0,0.0,0.0,0.0,0.0,0.0,0.0,0.0,0.0,0.0,0.0,0.0,0.0,0.0,0.0,0.0,0.0,0.0,0.0,0.0,0.0,0.0,0.0,0.0,0.0,0.0,0.0,0.0,0.0,0.0,0.0,0.0,0.0,0.0,0.0,0.0,0.0,0.0,0.0,-2.5146,-2.4428,0.0,0.0,0.0,0.0,0.0,0.0,0.0,0.0,0.0,0.0,0.0,0.0,0.0,-3.548,-3.727,-3.9018,-3.973,-3.9433,-4.2485,-4.3388,-4.2364,-4.3056,-4.4208,-4.559,-4.4628,0.0,-3.7022,-3.5066,0.0,0.0,0.0,0.0,0.0,0.0,0.0,0.0,0.0,0.0,0.0,0.0,0.0,0.0,0.0,0.0,0.0,0.0,0.0,0.0,0.0,0.0,0.0,0.0,0.0,0.0,0.0,0.0,0.0,0.0,0.0,0.0,0.0,0.0,0.0,0.0,-2.7209,-2.8698,-3.1256,-3.2025,-3.3333,-3.4968,-3.3506,-3.2679,-3.2333,-3.1698,0.0,0.0,0.0,0.0,0.0,0.0,0.0,0.0,0.0,0.0,0.0,0.0,0.0,0.0,0.0,0.0,0.0,0.0,0.0,0.0,0.0,0.0,0.0,0.0,0.0,0.0,0.0,0.0,0.0,0.0,0.0,0.0,0.0,0.0,0.0,0.0,0.0,0.0,0.0,-2.731,-2.7805,-2.6998,-2.9193,-3.0227,0.0,0.0,0.0,0.0,0.0,0.0,0.0,0.0,0.0,-3.5545,-3.68,-3.8344,-4.0176,-4.1953,-4.3446,-4.4633,-4.6589,-4.7473,-4.7375,-4.774,-4.8432,-4.9321,-4.8439,-4.6908,-4.473,-4.1093,-3.9032,-3.8018,0.0,0.0,0.0,0.0,-3.6168,-3.7124,0.0,0.0,0.0,0.0,0.0,0.0,0.0,0.0,0.0,0.0,0.0,0.0,0.0,0.0,0.0,-2.5774,0.0,0.0,0.0,0.0,0.0,0.0,0.0,0.0,0.0,0.0,0.0,0.0,-2.9121,-3.1121,-3.4218,-3.4641,-3.6084,-3.8334,-3.8334,-3.7161,-3.5161,-3.493,-3.4257,0.0,0.0,0.0,0.0,0.0,0.0,0.0,0.0,0.0,0.0,0.0,0.0,0.0,0.0,0.0,0.0,0.0,0.0,0.0,0.0,0.0,0.0,0.0,0.0,0.0,0.0,0.0,0.0,0.0,0.0,0.0,0.0,0.0,0.0,0.0,0.0,0.0,0.0,-2.8888,-2.9609,-2.8872,-3.1012,-3.2088,0.0,0.0,0.0,0.0,0.0,0.0,-3.5967,-3.7446,-3.8681,-3.9697,-4.0845,-4.224,-4.3828,-4.5436,-4.7201,-4.9086,-4.9952,-5.0759,-5.1504,-5.1293,-5.1404,-5.1749,-5.0848,-5.0685,-5.0632,-4.5899,-4.318,-4.1825,-4.0085,-3.9482,-3.9571,-3.9387,-3.9946,-4.0866,0.0,0.0,0.0,0.0,0.0,0.0,0.0,0.0,0.0,0.0,0.0,0.0,0.0,0.0,-2.4139,-2.7486,-2.7852,-2.7852,0.0,0.0,0.0,0.0,0.0,0.0,0.0,0.0,0.0,-2.9044,-3.2295,-3.5199,-3.7777,-3.9373,-4.1066,-4.2777,-4.2777,-4.2258,-4.1143,-3.793,-3.7007,-3.7469,0.0,0.0,0.0,0.0,0.0,0.0,0.0,0.0,0.0,0.0,0.0,0.0,0.0,0.0,0.0,0.0,0.0,0.0,0.0,0.0,0.0,0.0,0.0,0.0,0.0,0.0,0.0,0.0,0.0,0.0,0.0,0.0,0.0,0.0,0.0,0.0,0.0,0.0,0.0,-2.8314,-3.1974,0.0,0.0,0.0,0.0,-3.6094,-3.8135,-3.9397,-3.9537,-4.2564,-4.4824,-4.6007,-4.7573,-4.8979,-5.024,-5.1087,-5.1587,-5.1722,-5.2587,-5.3226,-5.3601,-5.2857,-5.2702,-5.3069,-5.2171,-5.1813,-5.1443,-4.645,-4.4617,-4.4649,-4.1404,-4.0492,-4.0983,-4.0983,-4.1497,-4.2209,0.0,0.0,0.0,0.0,0.0,0.0,0.0,0.0,0.0,0.0,0.0,0.0,0.0,-2.5101,-2.6774,-2.8525,-3.016,-3.066,-2.9583,0.0,0.0,0.0,0.0,0.0,0.0,0.0,-3.016,-3.3218,-3.4968,-3.7411,-4.0469,-4.1066,-4.2239,-4.3874,-4.3874,-4.4008,-4.4066,-4.12,-3.9546,-3.8604,-3.6065,-3.416,0.0,0.0,0.0,0.0,0.0,0.0,0.0,0.0,0.0,0.0,0.0,0.0,0.0,0.0,0.0,0.0,0.0,0.0,0.0,0.0,0.0,0.0,0.0,0.0,0.0,0.0,0.0,0.0,0.0,0.0,0.0,0.0,0.0,0.0,0.0,0.0,0.0,-3.3253,-3.6026,0.0,-3.699,-3.7624,-3.8741,-4.0329,-4.1246,-4.2737,-4.5016,-4.6777,-4.8428,-4.993,-5.0544,-5.1582,-5.3126,-5.3433,-5.3692,-5.3967,-5.4273,-5.4364,-5.4246,-5.3962,-5.3736,-5.3564,-5.3246,-5.2975,-5.2566,-5.0232,-4.8616,-4.7336,-4.4835,-4.4005,-4.4195,-4.4195,-4.4709,-4.5406,0.0,0.0,0.0,0.0,0.0,0.0,0.0,0.0,0.0,0.0,0.0,-2.2436,-2.3533,-2.5659,-2.7813,-2.9794,-3.1256,-3.1602,-3.0456,0.0,0.0,0.0,0.0,0.0,0.0,-3.0256,-3.2929,-3.6353,-3.7738,-3.9873,-4.2643,-4.2643,-4.3393,-4.4739,-4.4739,-4.5047,-4.549,-4.3797,-4.1931,-3.9969,-3.7988,-3.668,-3.5584,0.0,0.0,0.0,0.0,0.0,0.0,0.0,0.0,0.0,0.0,0.0,0.0,0.0,0.0,0.0,0.0,0.0,0.0,0.0,0.0,0.0,0.0,0.0,0.0,0.0,0.0,0.0,0.0,0.0,0.0,0.0,0.0,0.0,0.0,0.0,-3.5367,-3.7227,-3.9714,-4.1326,-4.1415,-4.1819,-4.2869,-4.4806,-4.5534,-4.7031,-4.9683,-5.0644,-5.1741,-5.3145,-5.3183,-5.368,-5.4683,-5.4703,-5.4765,-5.4895,-5.4895,-5.4671,-5.4255,-5.4255,-5.4032,-5.3604,-5.3604,-5.3444,-5.3151,-5.2325,-5.1019,-4.9379,-4.7776,-4.6966,-4.6709,-4.6709,-4.7058,-4.748,0.0,0.0,0.0,0.0,0.0,0.0,0.0,0.0,0.0,0.0,-1.985,-2.1004,-2.2658,-2.4389,-2.711,-3.1333,-3.091,-3.0398,-3.0436,-2.8813,0.0,0.0,0.0,0.0,-2.9236,-3.341,-3.6411,-3.8123,-4.0642,-4.272,-4.4335,-4.4335,-4.4778,-4.5586,-4.5586,-4.5586,-4.5586,-4.5586,-4.4182,-4.1893,-4.0912,-4.0046,-3.9046,0.0,0.0,0.0,0.0,0.0,0.0,0.0,0.0,0.0,0.0,0.0,0.0,0.0,0.0,0.0,0.0,0.0,0.0,0.0,0.0,0.0,0.0,0.0,0.0,0.0,0.0,0.0,0.0,0.0,0.0,0.0,0.0,0.0,-3.0356,-3.5238,-3.9053,-3.9821,-4.2756,-4.5005,-4.5705,-4.7259,-4.8586,-4.949,-5.1068,-5.2375,-5.3241,-5.4087,-5.4895,-5.5684,-5.5703,-5.5489,-5.5088,-5.5088,-5.4895,-5.4471,-5.4471,-5.4221,-5.3777,-5.3777,-5.3565,-5.3206,-5.3206,-5.3206,-5.3151,-5.2362,-5.1555,-5.0729,-4.9903,-4.9058,-4.8306,-4.8306,-4.8306,-4.8196,0.0,0.0,0.0,0.0,0.0,0.0,0.0,0.0,0.0,0.0,-2.0872,-2.2583,-2.3629,-2.6313,-2.9044,-3.1487,-3.091,-3.0679,-3.1295,0.0,0.0,0.0,0.0,0.0,-3.2737,-3.5757,-3.845,-4.0758,-4.2662,-4.4162,-4.524,-4.524,-4.5355,-4.5586,-4.5586,-4.5586,-4.5586,-4.5586,-4.5566,-4.5259,-4.2547,-4.0931,-3.9892,0.0,0.0,0.0,0.0,0.0,0.0,0.0,0.0,0.0,0.0,0.0,0.0,0.0,0.0,0.0,0.0,0.0,0.0,0.0,0.0,0.0,0.0,0.0,0.0,0.0,0.0,0.0,0.0,0.0,0.0,0.0,0.0,-3.678,-3.6413,-3.8469,-4.1166,-4.4317,-4.6486,-4.8276,-4.966,-5.0448,-5.1491,-5.2972,-5.353,-5.4145,-5.4972,-5.5241,-5.5472,-5.5684,-5.5423,-5.5212,-5.5088,-5.479,-5.4452,-5.3977,-5.3977,-5.3758,-5.3359,-5.3359,-5.3295,-5.3206,-5.3206,-5.3206,-5.3188,-5.2968,-5.205,-5.0729,-4.9903,-4.9058,-4.8306,-4.8306,-4.8306,-4.8269,0.0,0.0,0.0,0.0,0.0,0.0,0.0,0.0,0.0,0.0,-2.1034,-2.2899,-2.3004,-2.6024,-2.8736,-3.0467,-2.9833,-2.9563,-3.0063,0.0,0.0,0.0,0.0,-3.2295,-3.5718,-3.8296,-4.0662,-4.2854,-4.4182,-4.5086,-4.5586,-4.5586,-4.5586,-4.5605,-4.597,-4.5932,-4.5643,-4.6355,-4.6759,-4.6759,-4.5105,-4.4143,-4.3374,-4.0489,-3.9292,-3.8887,-3.7017,-3.7294,-3.8194,-3.5998,0.0,0.0,0.0,0.0,0.0,0.0,0.0,0.0,0.0,0.0,0.0,0.0,0.0,0.0,0.0,0.0,0.0,0.0,0.0,0.0,0.0,0.0,0.0,0.0,-3.8888,-4.126,-4.3029,-4.3722,-4.5207,-4.8249,-4.9708,-5.1047,-5.2564,-5.2869,-5.3549,-5.4895,-5.4991,-5.5203,-5.5684,-5.5535,-5.5619,-5.594,-5.5233,-5.4931,-5.507,-5.4472,-5.3996,-5.3545,-5.3545,-5.3422,-5.3206,-5.3206,-5.3206,-5.3206,-5.3206,-5.3206,-5.3206,-5.3206,-5.2252,0.0,0.0,0.0,0.0,0.0,-4.8104,-4.781,0.0,0.0,0.0,0.0,0.0,0.0,0.0,0.0,0.0,0.0,0.0,-2.2169,-2.1295,-2.4082,-2.6705,-2.8472,-2.7876,-2.7492,0.0,0.0,0.0,-2.9448,-3.1872,-3.4795,-3.82,-4.07,-4.2703,-4.4243,-4.5163,-4.5586,-4.5531,-4.5586,-4.5586,-4.5624,-4.6509,-4.6471,-4.5836,-4.7432,-4.7722,-4.7165,-4.7933,-4.8067,-4.7509,-4.4624,-4.3355,-4.2797,-4.0527,-3.9354,-3.8681,-3.7642,0.0,0.0,0.0,0.0,0.0,0.0,0.0,0.0,0.0,0.0,0.0,0.0,0.0,0.0,0.0,0.0,0.0,0.0,0.0,0.0,0.0,0.0,0.0,0.0,-4.2464,-4.4467,-4.9399,-4.9939,-5.0289,-5.1541,-5.2341,-5.3283,-5.4528,-5.4645,-5.4934,-5.5645,-5.5662,-5.564,-5.564,0.0,0.0,0.0,0.0,-5.4709,-5.5006,-5.4242,-5.3674,-5.3335,-5.3243,-5.3206,-5.3206,-5.3206,-5.3206,-5.3206,-5.3206,-5.3206,-5.3206,-5.3206,-5.2252,-5.0784,-5.06,-4.9682,-4.8434,-4.8343,-4.7865,-4.726,0.0,0.0,0.0,0.0,0.0,0.0,0.0,0.0,0.0,-1.683,-1.9008,-2.0287,-1.9418,-2.1071,-2.3172,-2.5507,-2.4924,-2.5057,0.0,0.0,-2.9006,-3.2025,-3.3987,-3.6565,-3.9931,-4.1873,-4.3193,-4.3901,-4.5035,-4.5457,-4.5201,-4.5457,-4.5586,-4.5624,-4.6509,-4.6817,-4.6721,-4.7702,-4.822,-4.8468,-4.8951,-4.7913,-4.6086,-4.6144,-4.4893,-4.3047,-4.2547,-4.3124,-4.3778,-4.1566,-4.1181,-4.1283,-3.9276,0.0,0.0,0.0,0.0,0.0,0.0,0.0,0.0,0.0,0.0,0.0,0.0,0.0,0.0,0.0,0.0,0.0,0.0,0.0,0.0,-4.4373,-4.7259,-4.9977,-5.2703,-5.418,-5.458,-5.355,-5.3828,-5.4466,-5.5376,-5.5472,-5.553,-5.5684,-5.5399,-5.5212,-5.5212,-5.4819,-5.4685,-5.4855,-5.49,-5.4914,-5.5025,-5.4519,-5.4228,-5.4161,0.0,0.0,-5.3206,-5.3206,-5.3206,-5.3206,-5.3206,-5.3206,-5.3206,-5.3206,-5.2252,-5.0674,-4.9315,-4.9022,-4.9242,-4.8563,-4.8214,-4.8086,0.0,0.0,0.0,0.0,0.0,0.0,0.0,0.0,0.0,0.0,-1.9151,-2.0346,-1.939,-2.113,-2.2849,-2.4085,-2.4204,0.0,0.0,-2.7458,-2.9773,-3.3391,-3.5062,-3.7747,-4.17,-4.2466,-4.333,-4.4467,-4.4887,-4.522,-4.545,-4.5616,-4.6001,-4.6586,-4.7258,-4.7433,-4.7275,-4.8346,-4.8675,-4.8567,-4.92,-4.8429,-4.6927,-4.7178,-4.5835,-4.3878,-4.4039,-4.4633,-4.5112,-4.3571,-4.3335,-4.3282,-4.0937,-3.9029,-3.7045,0.0,0.0,0.0,0.0,0.0,0.0,0.0,0.0,0.0,0.0,0.0,0.0,0.0,0.0,-3.9242,0.0,0.0,-4.6278,-4.9876,-5.1885,-5.3739,-5.5796,-5.6269,-5.5988,-5.4939,-5.5188,-5.5527,-5.5684,-5.5331,-5.5186,-5.538,-5.5034,-5.479,-5.479,-5.4387,-5.4528,-5.5317,-5.4947,-5.5114,-5.5868,-5.4896,-5.4399,-5.4399,-5.3592,-5.3206,-5.3206,-5.3206,-5.3206,-5.3206,-5.3206,-5.2968,-5.2546,-5.172,-5.1389,-5.1187,-4.9114,-4.8563,-4.8893,-4.8471,-4.8067,-4.7719,0.0,0.0,0.0,0.0,0.0,0.0,0.0,0.0,0.0,0.0,-1.904,-2.0129,-1.9145,-2.0948,-2.2402,0.0,0.0,0.0,0.0,-2.7985,-3.0506,-3.4112,-3.598,-3.8784,-4.2812,-4.2733,-4.3384,-4.4877,-4.4682,-4.4987,-4.5688,-4.5771,-4.6365,-4.7433,-4.7972,-4.7999,-4.7737,-4.9145,-4.9181,-4.8426,-4.9351,-4.901,-4.7961,-4.7719,-4.6468,-4.4896,-4.5314,-4.495,-4.4293,-4.4422,-4.4149,-4.344,-4.1778,-4.1033,-4.0002,-3.6025,-3.5439,0.0,0.0,0.0,0.0,0.0,0.0,0.0,0.0,0.0,-3.7798,-4.0129,-4.1649,-4.3535,-4.6832,-4.84,-5.0475,-5.4425,-5.5115,-5.5734,-5.7345,-5.6816,-5.6069,-5.5519,-5.5797,-5.5878,-5.5499,-5.4895,-5.464,-5.4952,-5.4609,-5.4355,-5.4355,-5.3924,-5.437,-5.5798,-5.5054,-5.5335,-5.6804,-5.5519,-5.4876,-5.4858,-5.3904,-5.3445,-5.3445,-5.328,-5.3206,-5.3206,-5.3041,-5.2601,-5.1867,-5.0251,-5.0343,-5.1316,-4.915,-4.8306,-4.8306,-4.8306,-4.7902,-4.7352,0.0,0.0,0.0,0.0,0.0,0.0,0.0,0.0,0.0,0.0,0.0,0.0,0.0,0.0,0.0,0.0,0.0,0.0,-2.6727,-2.9212,-3.1789,-3.4433,-3.7489,-4.0094,-4.2167,-4.2856,-4.3514,-4.4117,-4.4428,-4.4833,-4.527,-4.5613,-4.6232,-4.7089,-4.7862,-4.8164,-4.823,-4.9881,-4.9896,-4.8922,-5.0108,-4.9211,-4.7242,-4.756,-4.6869,-4.576,-4.6512,-4.4455,-4.1749,-4.4198,-4.3539,-4.2106,-4.4285,-4.3972,-4.236,-4.0307,0.0,-3.6094,-3.4986,-3.3999,-3.3713,-3.5603,-3.5181,-3.6205,0.0,0.0,-4.3504,-4.6663,-4.7744,-4.8578,-5.0126,-5.1053,-5.2273,-5.425,-5.4876,-5.5083,-5.4936,-5.5423,-5.5498,-5.4723,-5.4673,-5.4692,-5.4628,-5.4566,-5.4535,-5.4547,-5.4153,-5.3888,-5.3888,-5.3484,-5.3676,-5.4559,-5.5159,-5.5886,-5.6804,-5.662,-5.6547,-5.651,-5.4987,-5.4271,-5.4234,-5.3537,-5.3206,-5.317,-5.2435,-5.2068,-5.1867,-5.0251,-4.9701,-4.9738,-4.871,-4.8306,-4.8306,-4.8306,-4.8251,-4.8177,0.0,0.0,0.0,0.0,0.0,0.0,0.0,0.0,0.0,0.0,0.0,0.0,0.0,0.0,0.0,0.0,0.0,0.0,-2.6767,-2.8721,-3.1024,-3.377,-3.6441,-3.8976,-4.1359,-4.1999,-4.2875,-4.4016,-4.3974,-4.4536,-4.5614,-4.5797,-4.6661,-4.8097,-4.8193,-4.8375,-4.8621,-4.912,-4.9286,-4.9344,-4.9841,-4.9455,-4.8528,-4.8182,-4.6564,-4.442,-4.3988,-4.2577,0.0,0.0,-4.1298,-4.1513,-4.2522,-4.2488,-4.1531,-3.8833,-3.8079,0.0,-3.7408,-3.6806,0.0,0.0,-3.99,-4.181,-4.598,-4.644,-4.6866,-5.0159,-5.0753,-5.1373,-5.3609,-5.4091,-5.4535,0.0,-5.609,-5.6171,-5.5983,-5.5206,-5.4359,-5.3553,-5.2787,-5.2897,-5.4377,-5.405,-5.3851,-5.4102,-5.3701,-5.3444,-5.3444,-5.3295,-5.3794,-5.506,-5.5409,-5.6198,-5.7483,-5.7042,-5.6804,-5.6785,-5.517,-5.4399,-5.4363,-5.3573,-5.2949,-5.2454,-5.1646,-5.1298,-5.1169,-4.9517,-4.9132,-4.9499,-4.8636,-4.8306,-4.8306,-4.8306,-4.8306,-4.8306,0.0,0.0,0.0,0.0,0.0,0.0,0.0,0.0,0.0,0.0,0.0,0.0,0.0,0.0,0.0,0.0,0.0,0.0,0.0,-2.773,-2.9924,-3.2739,-3.5243,-3.7851,-4.0577,-4.138,-4.2477,-4.3849,-4.3631,-4.4195,-4.5571,-4.5571,-4.645,-4.806,-4.7997,-4.8126,-4.8412,-4.8586,-4.8765,-4.893,-4.9132,-4.8967,-4.8453,-4.7388,-4.5241,-4.2705,-4.1773,-4.0383,0.0,0.0,-3.861,-3.9319,-3.9823,-4.0153,-3.9872,-3.7585,-3.7808,-3.8651,-3.7926,0.0,0.0,-4.099,-4.3837,-4.6675,-4.8333,-4.9213,-5.044,-5.2963,-5.3084,-5.3395,-5.5414,-5.5256,-5.5145,-5.5992,-5.5917,-5.5751,-5.5648,-5.4111,-5.2735,-5.1899,-5.082,-5.0822,-5.2623,-5.2823,-5.2987,-5.3291,-5.323,-5.3206,-5.3206,-5.3206,-5.394,-5.5537,-5.5372,-5.6143,-5.7978,-5.7207,-5.6804,-5.6785,-5.539,-5.4601,-5.4363,-5.3353,-5.2546,-5.194,-5.0912,-5.0472,-5.0362,-4.8912,-4.8673,-4.9169,-4.8545,-4.8306,-4.8267,-4.8114,-4.8035,-4.8075,0.0,0.0,0.0,0.0,0.0,0.0,0.0,0.0,0.0,0.0,0.0,0.0,0.0,0.0,0.0,0.0,0.0,0.0,0.0,-2.6502,-2.8929,-3.136,-3.4568,-3.7452,-3.9858,-4.1475,-4.2687,-4.3513,-4.3479,-4.392,-4.4745,-4.4745,-4.5186,-4.603,-4.6801,-4.715,-4.726,-4.8875,-4.8636,-4.726,-4.8031,-4.7407,-4.5828,-4.425,-4.2616,-4.1185,-4.113,0.0,0.0,0.0,-3.5761,-3.4467,-3.6912,-3.775,0.0,-3.8319,-3.802,0.0,0.0,0.0,-4.0475,-4.2136,-4.5738,-4.9499,-5.1877,-5.3635,-5.4943,-5.5479,-5.5242,-5.4819,-5.459,-5.3534,-5.2992,-5.385,-5.3291,-5.2605,-5.2191,-5.143,-5.0585,-4.9703,-4.8857,-4.8398,0.0,-5.0659,-5.2032,-5.2055,-5.2766,-5.3206,-5.3206,-5.3206,-5.394,-5.5537,-5.484,-5.5574,-5.7978,-5.7207,-5.6804,-5.6804,-5.5959,-5.5133,-5.4344,-5.2747,-5.2013,-5.1903,-5.0306,-4.9627,-4.9554,-4.8673,-4.8324,-4.8343,-4.8324,-4.8306,-4.821,-4.7656,-4.7428,-4.753,0.0,0.0,0.0,0.0,0.0,0.0,0.0,0.0,0.0,0.0,0.0,0.0,0.0,0.0,0.0,0.0,0.0,0.0,0.0,-2.5456,-2.7034,-2.8925,-3.2118,-3.4486,-3.5826,-3.7991,-3.9753,-4.1111,-4.1111,-4.1791,-4.3112,-4.3112,-4.3534,-4.4305,-4.458,-4.4709,-4.4745,-4.5296,-4.5828,-4.6232,-4.5443,-4.5424,-4.5553,-4.2323,-4.0102,-3.8358,0.0,0.0,0.0,0.0,0.0,-3.2864,-3.393,-3.4067,-3.4107,-3.5761,-3.5913,-3.6215,0.0,0.0,-4.448,-4.7529,-5.0225,-5.2569,-5.4274,-5.463,-5.4578,-5.4445,-5.281,-5.1377,-5.1213,-4.9973,-4.9215,-5.0064,-5.0434,-5.0763,-5.1154,-5.0967,-5.0086,-4.8141,-4.8655,0.0,0.0,0.0,0.0,-5.1151,-5.194,-5.2637,-5.3188,-5.3206,-5.394,-5.5537,-5.4821,-5.5556,-5.7978,-5.7207,-5.6804,-5.6785,-5.5445,-5.4381,-5.3573,-5.2491,-5.1701,-5.1132,-5.005,-4.926,-4.871,-4.8416,-4.8075,-4.7715,-4.7715,-4.7428,-4.6981,-4.6801,-4.6478,-4.6209,0.0,0.0,0.0,0.0,0.0,0.0,0.0,0.0,0.0,0.0,0.0,0.0,0.0,0.0,0.0,0.0,0.0,0.0,0.0,0.0,-2.5254,-2.6869,-2.9475,-3.1531,-3.2908,-3.478,-3.6395,-3.7716,-3.7716,-3.8248,-3.9258,-3.9258,-3.9533,-4.0047,-4.0322,-4.0634,-4.0928,-4.0928,-4.1515,-4.2341,-4.1001,-4.091,-4.1222,-3.8065,-3.6028,0.0,0.0,0.0,0.0,0.0,0.0,0.0,-3.1325,-3.1935,-3.2827,-3.4336,-3.5612,-3.7526,0.0,-4.5117,-4.7747,-5.1086,-5.3628,-5.5342,-5.5603,-5.5354,-5.4648,-5.3047,-5.08,-4.8765,-4.7572,-4.581,-4.5076,-4.6746,-4.7003,-4.7664,-4.9627,-4.9664,-4.9003,-4.77,-4.8233,-4.8196,0.0,0.0,0.0,-5.0747,-5.1811,-5.2784,-5.3592,-5.3371,-5.4069,-5.5959,-5.4693,-5.5133,-5.7556,-5.6492,-5.5941,-5.5941,-5.4601,-5.3702,-5.317,-5.2068,-5.1279,-5.0747,-4.9609,-4.882,-4.8267,-4.8075,-4.7756,-4.7385,-4.715,-4.6756,-4.6383,-4.6143,-4.5815,-4.5597,0.0,0.0,0.0,0.0,0.0,0.0,0.0,0.0,0.0,0.0,0.0,0.0,0.0,0.0,0.0,0.0,0.0,0.0,0.0,0.0,0.0,-2.5126,-2.6756,-2.87,-3.1011,-3.192,-3.2763,-3.3578,-3.3578,-3.3597,-3.3633,-3.3633,-3.3633,-3.3643,-3.4431,-3.5219,-3.6017,-3.6017,-3.6036,-3.5999,-3.51,-3.433,-3.355,-3.1843,0.0,0.0,0.0,0.0,0.0,0.0,0.0,0.0,0.0,0.0,-3.3952,-3.4445,-3.7373,-4.0993,-4.3602,-4.6919,-5.023,-5.2755,-5.5733,-5.7583,-5.5871,-5.5784,-5.4984,-5.1253,-4.9095,-4.6911,0.0,0.0,-4.0873,-4.4011,-4.3424,-4.392,-4.7829,-4.7792,-4.7609,0.0,0.0,0.0,0.0,0.0,0.0,-5.093,0.0,-5.3573,-5.4418,-5.3739,-5.4399,-5.673,-5.4546,-5.4473,-5.684,-5.5262,-5.4436,-5.4399,-5.3592,-5.3206,-5.317,-5.1591,-5.0839,-5.071,-4.9038,-4.8304,-4.821,-4.7614,-4.7342,-4.7237,-4.6618,-4.6336,-4.624,-4.5699,-4.5459,-4.5563,0.0,0.0,0.0,0.0,0.0,0.0,0.0,0.0,0.0,0.0,0.0,0.0,0.0,0.0,0.0,0.0,0.0,0.0,0.0,0.0,0.0,0.0,0.0,0.0,0.0,0.0,0.0,0.0,0.0,-3.0736,-3.133,-3.133,-3.133,-3.1348,-3.1546,-3.1791,-3.1989,-3.1989,-3.2466,-3.3102,0.0,-3.179,-3.2614,0.0,0.0,0.0,0.0,0.0,0.0,0.0,0.0,0.0,0.0,0.0,-3.5349,-3.872,-4.1533,-4.4487,-4.8701,-5.1878,-5.4223,-5.5198,-5.6307,-5.6546,-5.4295,-5.2982,-5.1074,-4.7095,-4.4011,-4.124,0.0,0.0,0.0,-4.1699,-4.4195,0.0,-4.8948,-5.0123,0.0,0.0,0.0,-5.06,-5.0196,-5.1463,0.0,0.0,-5.3316,-5.3812,-5.5207,-5.5097,-5.5537,-5.6767,-5.5611,-5.5849,-5.7685,-5.6088,-5.4987,-5.4399,-5.3592,-5.3206,-5.3188,-5.2142,-5.1371,-5.0688,-4.9203,-4.8176,-4.7572,-4.6892,-4.6383,-4.5982,-4.5783,-4.5459,-4.5052,-4.4906,-4.4814,-4.4852,0.0,0.0,0.0,0.0,0.0,0.0,0.0,0.0,0.0,0.0,0.0,0.0,0.0,0.0,0.0,0.0,0.0,0.0,0.0,0.0,0.0,0.0,0.0,0.0,0.0,0.0,0.0,0.0,0.0,0.0,0.0,-2.7192,-2.7353,-2.7502,-2.7353,-2.7495,-2.7798,-2.7593,0.0,0.0,0.0,0.0,0.0,0.0,0.0,0.0,0.0,0.0,0.0,0.0,0.0,-3.2939,-3.4715,-3.6633,-3.8958,-4.2862,0.0,-4.8199,-5.1955,-5.4541,-5.6287,-5.6866,-5.662,-5.5556,-5.2784,-5.0325,-4.7407,-4.2983,-3.9772,0.0,0.0,0.0,0.0,0.0,0.0,0.0,-4.7535,-4.9352,-5.0306,0.0,-5.1224,0.0,-5.2362,-5.3206,-5.4216,0.0,-5.4711,-5.4803,-5.6051,-5.5776,-5.6124,-5.7299,-5.6198,-5.5849,-5.6418,-5.5519,-5.4675,-5.3867,-5.3427,-5.3206,-5.3188,-5.2035,-5.1267,-5.0732,0.0,-4.7903,-4.741,-4.6381,-4.5833,-4.5459,-4.5232,-4.4906,-4.4587,-4.4587,-4.4587,-4.4587,0.0,0.0,0.0,0.0,0.0,0.0,0.0,0.0,0.0,0.0,0.0,0.0,0.0,0.0,0.0,0.0,0.0,0.0,0.0,0.0,0.0,0.0,0.0,0.0,0.0,0.0,0.0,0.0,0.0,0.0,0.0,0.0,0.0,0.0,0.0,0.0,0.0,0.0,0.0,0.0,0.0,0.0,0.0,0.0,0.0,0.0,0.0,0.0,0.0,0.0,-3.3426,-3.531,-3.8265,-4.0983,-4.3718,-4.6838,-4.9444,-5.1775,-5.4087,-5.5831,-5.7079,-5.7556,-5.6455,-5.4381,-5.093,-4.7627,-4.3883,-3.9056,0.0,-3.389,-3.2412,0.0,-3.2724,-3.6846,0.0,-4.0836,-4.5553,-4.7609,-4.9224,-5.0765,-5.1665,-5.2747,-5.4252,-5.4399,-5.5078,-5.6693,-5.6051,-5.5996,-5.6914,-5.629,-5.651,-5.7795,-5.6381,-5.5207,-5.4418,-5.4399,-5.4014,-5.3206,-5.3206,-5.3164,-5.3023,-5.1674,-5.0937,-5.0628,-4.8542,0.0,-4.7386,-4.5978,-4.5372,-4.532,-4.4814,-4.4587,-4.4587,-4.4587,-4.4587,-4.4587,0.0,0.0,0.0,0.0,0.0,0.0,0.0,0.0,0.0,0.0,-1.4399,0.0,0.0,0.0,0.0,0.0,0.0,0.0,0.0,0.0,0.0,0.0,0.0,0.0,0.0,0.0,0.0,0.0,0.0,0.0,0.0,0.0,0.0,0.0,0.0,0.0,0.0,0.0,0.0,0.0,0.0,0.0,0.0,0.0,0.0,0.0,0.0,0.0,0.0,0.0,-3.5459,-3.8345,-4.0873,-4.425,-4.7774,-5.038,-5.2399,-5.4161,-5.5923,-5.7079,-5.7501,-5.6308,-5.4803,-5.2417,-4.7792,-4.425,0.0,0.0,0.0,-3.0742,-2.9782,-3.0595,0.0,-3.6846,0.0,0.0,0.0,0.0,-5.0729,0.0,0.0,0.0,0.0,0.0,0.0,0.0,0.0,-5.6235,-5.7703,-5.7666,-5.7409,-5.7024,-5.6088,-5.5207,-5.4418,-5.4399,-5.4014,-5.3206,-5.3206,-5.2875,-5.2271,-5.2015,-5.1251,-4.9983,-4.8417,0.0,-4.6673,-4.5306,-4.4776,-4.4776,-4.4626,-4.4587,-4.4587,-4.4587,-4.4587,-4.4587,0.0,0.0,0.0,0.0,0.0,0.0,0.0,0.0,0.0,0.0,-1.4617,-1.4411,0.0,0.0,0.0,0.0,0.0,0.0,0.0,0.0,0.0,0.0,0.0,0.0,0.0,0.0,0.0,0.0,0.0,0.0,0.0,0.0,0.0,0.0,0.0,0.0,0.0,0.0,0.0,0.0,0.0,0.0,0.0,0.0,0.0,0.0,0.0,0.0,0.0,0.0,-3.4134,-3.8303,-4.324,-4.6728,-4.9462,-5.1903,-5.3463,-5.4748,-5.6363,-5.7391,-5.7703,-5.6528,-5.4069,-5.0674,-4.5755,0.0,0.0,0.0,0.0,-2.8209,-2.7824,0.0,0.0,0.0,0.0,0.0,0.0,0.0,0.0,0.0,0.0,0.0,0.0,0.0,0.0,0.0,0.0,-5.6106,-5.7317,-5.6969,-5.6767,-5.6804,-5.6436,-5.5647,-5.4418,-5.4821,-5.4232,-5.2617,-5.2617,-5.2242,-5.1544,-5.1172,-5.0612,-4.9868,-4.8454,0.0,-4.6623,-4.562,-4.4942,-4.4587,-4.4587,-4.4587,-4.4587,-4.4587,-4.4587,-4.4587,0.0,0.0,0.0,0.0,0.0,0.0,0.0,-1.3665,-1.4344,-1.4912,-1.4611,-1.4193,-1.3827,-1.3899,-1.3955,0.0,0.0,0.0,0.0,0.0,0.0,0.0,0.0,0.0,0.0,0.0,0.0,0.0,0.0,0.0,0.0,0.0,0.0,0.0,0.0,0.0,0.0,0.0,0.0,0.0,0.0,0.0,0.0,0.0,0.0,0.0,0.0,0.0,0.0,0.0,-3.1679,-3.5996,-4.2404,-4.658,-4.9426,-5.1353,-5.3078,-5.4711,-5.6161,-5.7262,-5.7776,-5.6785,-5.3518,-4.9205,-4.414,-3.8726,0.0,0.0,-2.7457,-2.641,-2.6576,0.0,0.0,0.0,0.0,0.0,0.0,0.0,0.0,0.0,0.0,0.0,0.0,0.0,0.0,0.0,0.0,0.0,-5.651,-5.5941,-5.5794,-5.6271,-5.629,-5.5611,-5.4161,-5.4598,-5.3927,-5.2112,-5.1952,-5.1544,-5.0823,-5.0241,-4.9919,-4.9729,-4.843,0.0,0.0,-4.6007,-4.5263,-4.4587,-4.4587,-4.4587,-4.4587,-4.4587,-4.4587,-4.4587,0.0,0.0,0.0,0.0,0.0,0.0,0.0,-1.2898,-1.3205,-1.3927,-1.3833,-1.3617,-1.3462,-1.3874,0.0,0.0,0.0,0.0,0.0,0.0,0.0,0.0,0.0,0.0,0.0,0.0,0.0,0.0,0.0,0.0,0.0,0.0,0.0,0.0,0.0,0.0,0.0,0.0,0.0,0.0,0.0,0.0,0.0,0.0,0.0,0.0,0.0,0.0,0.0,0.0,0.0,-3.093,-3.4588,-4.1076,-4.7388,-4.7609,0.0,0.0,-5.5464,-5.6822,-5.7629,-5.6088,-5.2637,-4.8159,-4.2598,0.0,0.0,0.0,-2.6612,-2.5713,-2.6465,-2.6778,0.0,0.0,0.0,0.0,0.0,0.0,0.0,0.0,0.0,0.0,0.0,0.0,0.0,0.0,0.0,0.0,-5.5666,-5.5629,-5.5299,-5.4638,-5.462,-5.4197,-5.3335,-5.2736,-5.2304,-5.2112,-5.1494,-5.0823,-5.0072,-5.0033,-4.9664,-4.9073,-4.824,0.0,0.0,-4.6007,-4.5263,-4.4587,-4.4587,-4.4587,-4.4587,-4.4587,-4.4587,-4.4587,0.0,0.0,0.0,0.0,0.0,0.0,0.0,-1.2436,-1.3196,-1.4313,-1.4066,-1.3854,-1.404,-1.3927,-1.3768,0.0,0.0,0.0,0.0,0.0,0.0,0.0,0.0,0.0,0.0,0.0,0.0,0.0,0.0,0.0,0.0,0.0,0.0,0.0,0.0,0.0,0.0,0.0,0.0,0.0,0.0,0.0,0.0,0.0,0.0,0.0,0.0,0.0,0.0,0.0,0.0,0.0,-2.8301,-3.27,0.0,0.0,-4.6617,-4.9994,-5.3261,-5.5684,-5.6895,-5.528,-5.1444,-4.6709,-4.1552,0.0,0.0,-2.7714,-2.5805,-2.4777,-2.5107,-2.5548,-2.6447,0.0,0.0,0.0,0.0,0.0,0.0,0.0,0.0,0.0,0.0,0.0,0.0,0.0,0.0,0.0,-5.4142,-5.4161,-5.4234,-5.4399,-5.4399,-5.3804,-5.2554,-5.2741,-5.214,-5.0805,-5.0554,-5.009,-4.9419,-4.9419,-4.9256,-4.8968,-4.824,0.0,0.0,-4.6194,-4.5534,-4.5213,-4.4756,-4.4587,-4.4587,-4.4587,-4.4587,-4.4587,0.0,0.0,0.0,0.0,0.0,0.0,-1.0859,-1.1712,-1.2672,-1.3946,-1.3841,-1.3779,-1.4141,-1.3818,-1.3555,-1.3462,0.0,0.0,0.0,0.0,0.0,0.0,0.0,0.0,0.0,0.0,0.0,0.0,0.0,0.0,0.0,0.0,0.0,0.0,0.0,0.0,0.0,0.0,0.0,0.0,0.0,0.0,0.0,0.0,0.0,0.0,0.0,0.0,0.0,0.0,0.0,0.0,0.0,0.0,0.0,0.0,-4.1724,-4.5681,-4.9627,-5.2986,-5.506,-5.3683,-4.9829,-4.5204,0.0,0.0,-2.9531,-2.7108,-2.5328,-2.419,-2.419,-2.485,-2.5605,0.0,0.0,0.0,0.0,0.0,0.0,0.0,0.0,0.0,0.0,0.0,0.0,0.0,0.0,0.0,-5.2893,-5.2875,-5.3131,-5.3697,-5.3935,-5.3354,-5.1808,-5.213,-5.1547,-4.9976,-4.9821,-4.9462,-4.9001,-4.8781,-4.868,-4.8646,-4.7902,0.0,0.0,-4.6227,-4.5703,-4.5635,-4.4874,-4.4587,-4.4587,-4.4587,-4.4587,-4.4587,0.0,0.0,0.0,0.0,0.0,0.0,0.0,-1.0599,-1.1224,-1.2379,-1.2807,-1.3103,-1.3379,-1.3526,-1.3601,-1.3601,0.0,0.0,0.0,0.0,0.0,0.0,0.0,0.0,0.0,0.0,0.0,-1.8585,-1.8585,0.0,0.0,0.0,0.0,0.0,0.0,0.0,0.0,0.0,0.0,0.0,0.0,0.0,0.0,0.0,0.0,0.0,0.0,0.0,0.0,0.0,0.0,0.0,0.0,0.0,0.0,0.0,-3.6389,-4.2708,-4.4342,-4.8343,-5.1848,-5.1041,-4.7774,-4.3681,0.0,0.0,-2.9531,-2.7108,-2.5328,-2.419,-2.419,-2.485,-2.5403,-2.5421,-2.742,0.0,0.0,0.0,0.0,0.0,0.0,0.0,0.0,0.0,0.0,0.0,0.0,0.0,-5.2159,-5.2112,-5.2112,-5.2112,-5.2918,-5.2579,-5.1086,-5.0407,-5.0033,-4.9976,-4.9316,-4.9001,-4.8984,-4.8257,-4.7936,0.0,0.0,0.0,0.0,-4.6007,-4.5703,-4.5635,-4.4874,-4.4587,-4.4587,-4.4587,-4.4587,-4.4587,0.0,0.0,0.0,0.0,0.0,0.0,0.0,-0.9831,-1.0391,-1.1712,-1.2141,-1.2522,-1.3071,-1.3329,-1.3493,-1.3601,0.0,0.0,0.0,0.0,0.0,0.0,0.0,0.0,0.0,0.0,-1.7815,-1.825,-1.8067,-1.8405,-1.9196,0.0,0.0,0.0,0.0,0.0,0.0,0.0,0.0,0.0,0.0,0.0,0.0,0.0,0.0,0.0,0.0,0.0,0.0,0.0,0.0,0.0,0.0,0.0,0.0,0.0,0.0,0.0,-3.8872,-4.1699,-4.3534,-4.2727,-4.0286,-3.7312,-3.4376,-3.0613,-2.7365,-2.6043,-2.4746,-2.3917,-2.4151,-2.4217,-2.4847,-2.6738,-2.7677,0.0,0.0,0.0,0.0,0.0,0.0,0.0,0.0,0.0,0.0,0.0,0.0,0.0,-5.1444,-5.1393,-5.1393,-5.1393,-5.1675,-5.1316,-5.0352,-5.0146,-4.978,-4.9299,-4.9107,-4.8748,-4.8257,-4.802,-4.7631,0.0,0.0,0.0,0.0,-4.5449,-4.5246,-4.5635,-4.4874,-4.4587,-4.4587,-4.4587,-4.4587,-4.4587,0.0,0.0,0.0,0.0,0.0,0.0,0.0,-0.9414,-0.989,-1.0877,-1.1317,-1.1743,-1.2224,-1.25,-1.2787,-1.3152,0.0,0.0,0.0,0.0,0.0,0.0,0.0,0.0,0.0,-1.6315,-1.718,-1.7642,-1.7781,-1.8182,-1.8831,-1.8474,-1.8507,0.0,0.0,0.0,0.0,0.0,0.0,0.0,0.0,0.0,-2.1766,0.0,0.0,0.0,0.0,0.0,0.0,0.0,0.0,0.0,0.0,0.0,0.0,0.0,-2.523,0.0,0.0,-3.6282,-3.7906,-3.7302,-3.5611,0.0,0.0,-2.8686,-2.6374,-2.5586,-2.4584,-2.3937,-2.417,-2.4016,-2.4499,-2.6362,-2.7317,0.0,0.0,0.0,0.0,0.0,0.0,0.0,0.0,0.0,0.0,0.0,0.0,0.0,-5.0716,-5.0662,-5.0554,-5.0314,-5.0554,-5.0352,-4.9622,-4.9622,-4.9402,-4.9001,-4.8731,-4.8359,-4.7902,-4.7344,-4.6836,0.0,0.0,0.0,0.0,-4.5077,-4.5026,-4.5635,-4.4874,-4.4587,-4.4587,-4.4587,-4.4587,-4.4587,0.0,0.0,0.0,0.0,0.0,0.0,0.0,0.0,0.0,0.0,-1.0402,-1.0836,-1.1121,-1.1342,-1.1738,0.0,0.0,0.0,0.0,0.0,0.0,0.0,0.0,0.0,0.0,-1.5465,-1.6078,-1.6817,-1.7679,-1.8133,-1.8207,-1.9014,-1.8996,-1.8298,-1.9051,-1.8941,-1.8298,-1.9842,-2.056,-2.0745,-2.1373,-2.1619,0.0,0.0,0.0,0.0,0.0,0.0,0.0,0.0,0.0,0.0,0.0,0.0,0.0,0.0,0.0,0.0,0.0,0.0,0.0,0.0,0.0,0.0,0.0,-2.8044,0.0,-2.5476,-2.4704,-2.4189,-2.4263,-2.4224,-2.4379,-2.4969,0.0,0.0,0.0,0.0,0.0,0.0,0.0,0.0,0.0,0.0,0.0,0.0,0.0,0.0,-4.9976,-4.9919,-4.9664,-4.9001,-4.9571,-4.9536,-4.8934,-4.8984,-4.8984,-4.8917,-4.824,-4.7885,-4.7784,-4.6363,-4.5669,0.0,0.0,0.0,0.0,-4.4874,-4.4993,-4.5551,-4.4857,-4.4587,-4.4587,-4.4587,-4.4587,-4.4587,0.0,0.0,0.0,0.0,0.0,0.0,0.0,0.0,0.0,0.0,0.0,-1.0458,-1.1594,-1.1947,0.0,0.0,0.0,0.0,0.0,0.0,0.0,0.0,0.0,0.0,0.0,-1.5262,-1.5784,-1.5986,-1.7399,-1.8408,-1.9032,-1.984,-2.0118,-1.9934,-2.0118,-1.9767,-1.9069,-2.0079,-2.0168,-1.9678,-1.9816,-1.9892,0.0,0.0,0.0,0.0,-1.9347,-1.9259,0.0,0.0,0.0,0.0,0.0,0.0,0.0,0.0,-2.1934,-2.3161,-2.3955,0.0,-2.672,-2.6655,0.0,0.0,0.0,0.0,0.0,0.0,0.0,0.0,0.0,0.0,0.0,0.0,0.0,0.0,0.0,0.0,0.0,0.0,0.0,0.0,0.0,0.0,0.0,0.0,0.0,-4.9993,-4.9256,-4.9273,-4.9152,-4.9001,-4.8625,-4.832,-4.8173,-4.8731,-4.8731,-4.8173,-4.8003,-4.7614,-4.7022,-4.6126,-4.5382,0.0,0.0,0.0,-4.484,-4.4654,-4.4671,-4.4823,-4.4654,-4.4587,-4.4587,-4.4587,-4.4587,-4.4587,0.0,0.0,0.0,0.0,0.0,0.0,0.0,0.0,0.0,0.0,0.0,0.0,0.0,0.0,0.0,0.0,0.0,0.0,0.0,0.0,0.0,0.0,0.0,0.0,-1.4188,-1.4818,-1.5509,-1.6261,-1.711,-1.8151,-1.9323,-2.0134,-2.0704,-2.1088,-2.0668,-2.006,-1.9326,-1.9767,-1.9693,-1.9305,-1.9305,0.0,0.0,0.0,0.0,0.0,-1.9305,-1.9305,0.0,-1.9305,-1.9305,-1.9305,0.0,0.0,0.0,0.0,-2.1437,-2.2484,-2.2681,-2.3707,-2.4721,-2.4561,-2.4642,-2.474,0.0,0.0,0.0,0.0,0.0,0.0,0.0,0.0,0.0,0.0,0.0,0.0,0.0,0.0,0.0,0.0,0.0,0.0,0.0,0.0,0.0,0.0,0.0,-4.9359,-4.9001,-4.9001,-4.9001,-4.9001,-4.8291,-4.7919,-4.7919,-4.797,-4.7784,-4.7394,-4.7056,-4.6684,-4.6261,-4.5534,-4.4976,0.0,0.0,0.0,-4.4587,-4.4587,-4.4587,-4.4587,-4.4587,-4.4587,-4.4587,-4.4587,-4.4587,-4.4587,0.0,0.0,0.0,0.0,0.0,0.0,0.0,0.0,0.0,0.0,0.0,0.0,0.0,0.0,0.0,0.0,0.0,0.0,0.0,0.0,0.0,0.0,0.0,-1.3331,-1.442,-1.4593,-1.5405,-1.6908,-1.7275,-1.8137,-1.951,-2.0574,-2.1327,-2.1766,-2.0904,-2.006,-1.9323,-1.9418,-1.9399,-1.9305,-1.9305,0.0,0.0,0.0,0.0,0.0,0.0,0.0,0.0,-1.9161,-1.9271,-1.9436,-1.9179,0.0,0.0,0.0,0.0,0.0,-2.263,-2.4171,-2.547,-2.4925,-2.5048,-2.5303,0.0,0.0,0.0,0.0,0.0,0.0,0.0,0.0,0.0,0.0,0.0,0.0,0.0,0.0,0.0,0.0,0.0,0.0,0.0,0.0,0.0,0.0,0.0,-4.8883,-4.9001,-4.89,-4.8883,-4.9001,-4.8189,-4.775,-4.775,-4.7107,-4.6735,-4.6616,-4.6007,-4.5703,-4.5669,-4.4925,-4.4587,-4.4587,0.0,0.0,-4.4587,-4.4587,-4.4587,-4.4587,-4.4587,-4.4587,-4.4587,-4.4587,-4.4502,-4.4401,0.0,0.0,0.0,0.0,0.0,0.0,0.0,0.0,0.0,0.0,0.0,0.0,0.0,0.0,0.0,0.0,0.0,0.0,0.0,0.0,0.0,0.0,-1.2891,-1.3745,-1.5435,-1.5496,-1.5967,-1.6908,-1.8944,-2.0063,-2.0356,-2.2593,-2.2978,-2.1766,-2.0904,-2.006,-1.9326,-2.0042,-1.9932,-1.9305,-1.9305,0.0,0.0,0.0,0.0,0.0,0.0,0.0,0.0,-1.8519,-1.9198,-2.0081,-1.872,0.0,0.0,0.0,0.0,0.0,-2.1951,-2.4153,-2.6078,-2.4644,-2.4647,-2.4968,0.0,0.0,0.0,0.0,0.0,0.0,0.0,0.0,0.0,0.0,0.0,0.0,0.0,0.0,0.0,0.0,0.0,0.0,0.0,0.0,0.0,0.0,0.0,-4.8359,-4.8968,-4.8426,-4.8359,-4.8984,-4.7682,-4.6972,-4.6972,-4.6853,-4.6481,-4.5872,-4.5754,-4.5703,-4.5669,-4.4925,-4.4587,-4.4587,0.0,-4.4587,-4.4587,-4.4587,-4.4587,-4.4587,-4.4587,-4.4587,-4.4587,-4.4587,-4.4164,-4.3589,0.0,0.0,0.0,0.0,0.0,0.0,0.0,0.0,0.0,0.0,0.0,0.0,0.0,0.0,0.0,0.0,0.0,0.0,0.0,0.0,0.0,-1.2973,-1.3538,-1.4392,-1.5674,-1.5692,-1.6738,-1.8852,-1.9528,-2.0537,-2.1878,-2.3033,-2.2923,-2.1749,-2.0786,-1.9946,-1.9326,-1.9583,-1.9527,-1.9305,0.0,0.0,0.0,0.0,0.0,0.0,0.0,0.0,0.0,0.0,-1.9234,-1.973,-1.8977,0.0,0.0,0.0,0.0,0.0,-2.1497,-2.3433,-2.5221,-2.4455,-2.5499,-2.659,-2.5979,0.0,0.0,0.0,0.0,0.0,0.0,0.0,0.0,0.0,0.0,0.0,0.0,0.0,0.0,0.0,0.0,0.0,0.0,0.0,0.0,0.0,0.0,0.0,-4.78,-4.7496,-4.7462,-4.78,-4.6769,-4.621,-4.621,-4.5805,-4.5432,-4.5094,-4.5094,-4.5094,-4.5077,-4.4739,-4.4587,-4.4587,0.0,-4.4333,-4.3995,-4.4401,-4.4333,-4.3995,-4.4418,-4.4316,-4.391,-4.3487,-4.3639,-4.3995,0.0,0.0,0.0,0.0,0.0,0.0,0.0,0.0,0.0,0.0,0.0,0.0,0.0,0.0,0.0,0.0,0.0,0.0,0.0,0.0,-1.1805,-1.335,-1.4288,-1.516,-1.5967,-1.6353,-1.7839,-2.0503,-2.0097,-2.0941,-2.2978,-2.2593,-2.2189,-2.173,-2.0481,-1.9665,-1.923,-1.9,-1.9034,-1.9246,0.0,0.0,0.0,0.0,0.0,0.0,0.0,0.0,0.0,0.0,0.0,0.0,0.0,0.0,0.0,-1.9573,-2.0243,-2.0986,-2.1348,-2.2905,-2.4322,-2.4003,0.0,-2.7299,-2.7331,0.0,0.0,0.0,0.0,0.0,0.0,0.0,0.0,0.0,0.0,0.0,0.0,0.0,0.0,0.0,0.0,0.0,0.0,0.0,0.0,0.0,0.0,0.0,-4.6802,-4.6633,-4.6616,-4.6786,-4.6075,-4.5703,-4.5703,-4.4771,-4.4299,-4.4316,-4.4485,-4.4485,-4.4316,-4.4485,-4.4587,-4.4587,-4.4587,-4.4248,-4.3724,-4.3945,-4.3833,-4.3415,-4.3895,-4.3816,-4.3301,-4.2388,-4.2895,-4.3927,0.0,0.0,0.0,0.0,0.0,0.0,0.0,0.0,0.0,0.0,0.0,0.0,0.0,0.0,0.0,0.0,0.0,0.0,0.0,0.0,-1.3361,-1.4366,-1.5178,-1.5986,-1.6798,-1.828,-1.9528,-2.0503,-2.1253,-2.2079,-2.2978,-2.1401,-2.1088,-2.1712,-1.99,-1.9055,-1.9001,-1.8752,-1.8789,-1.9018,-1.9018,0.0,0.0,0.0,0.0,0.0,0.0,0.0,0.0,0.0,0.0,0.0,0.0,0.0,-2.0191,-2.0578,-2.0781,-2.1068,-2.175,-2.3153,-2.4131,-2.3084,0.0,0.0,-2.8468,-2.8476,0.0,0.0,0.0,0.0,0.0,0.0,0.0,0.0,0.0,0.0,0.0,0.0,0.0,0.0,0.0,0.0,0.0,0.0,0.0,0.0,0.0,0.0,-4.6752,-4.616,-4.6092,-4.6769,-4.6075,-4.5703,-4.5703,-4.4181,-4.339,-4.3521,-4.4231,-4.4198,-4.3521,-4.4248,-4.4587,-4.4587,-4.4587,-4.4553,-4.4378,-4.3032,-4.2846,-4.3365,-4.2732,-4.2846,-4.325,-4.1813,-4.1779,-4.2284,0.0,0.0,0.0,0.0,0.0,0.0,0.0,0.0,0.0,0.0,0.0,0.0,0.0,0.0,0.0,0.0,0.0,0.0,0.0,0.0,-1.3518,-1.4451,-1.527,-1.6078,-1.689,-1.7986,-1.9198,-2.0503,-2.1363,-2.1968,-2.2226,-2.1051,-2.0668,-2.0924,-1.9417,-1.8843,-1.8966,-1.8528,-1.8508,-1.877,-1.8931,-1.9052,0.0,0.0,0.0,0.0,0.0,0.0,0.0,0.0,-1.8946,-1.9255,0.0,-1.8836,-1.9109,-1.9888,-2.0214,-2.0539,-2.1451,-2.3059,-2.4242,-2.3363,0.0,0.0,0.0,0.0,0.0,0.0,0.0,0.0,0.0,0.0,0.0,0.0,0.0,0.0,0.0,0.0,0.0,0.0,0.0,0.0,0.0,0.0,0.0,0.0,0.0,0.0,-4.3981,-4.4131,-4.4092,-4.3817,-4.3571,-4.3227,-4.2769,-4.2187,-4.1455,-4.0607,-4.1786,-4.1966,-4.132,-4.1599,-4.173,-4.173,-4.173,-4.1468,-4.1033,-4.0929,-4.075,-4.059,-4.0284,-4.0619,-4.114,-3.9657,-3.9853,-4.0721,0.0,0.0,0.0,0.0,0.0,0.0,0.0,0.0,0.0,0.0,0.0,0.0,0.0,0.0,0.0,0.0,0.0,0.0,0.0,-1.3389,-1.3768,-1.4469,-1.527,-1.5967,-1.6505,-1.7564,-1.8904,-2.0503,-2.1106,-2.1382,-2.1363,-2.0519,-2.0342,-2.0696,-1.9236,-1.8906,-1.939,-1.8457,-1.8367,-1.8823,-1.8767,-1.8789,0.0,0.0,0.0,0.0,0.0,0.0,0.0,0.0,-1.8752,-1.8638,0.0,-1.87,-1.8762,-1.9856,-2.0106,-2.0255,-2.143,-2.2596,-2.3456,0.0,0.0,0.0,0.0,0.0,0.0,0.0,0.0,0.0,0.0,0.0,0.0,0.0,0.0,0.0,0.0,0.0,0.0,0.0,0.0,0.0,0.0,0.0,0.0,0.0,0.0,0.0,0.0,-4.1945,-4.1963,-4.1389,-4.1389,-4.1148,-4.0667,-4.0419,-3.9706,-3.8547,-3.922,-3.9597,-3.9654,-3.9879,-3.9975,-3.9975,-3.9975,-3.9702,-3.9241,-3.9256,-3.8959,-3.8515,-3.8531,-3.8985,-3.951,-3.8238,-3.8472,-3.9209,0.0,0.0,0.0,0.0,0.0,0.0,0.0,0.0,0.0,0.0,0.0,0.0,0.0,0.0,0.0,0.0,0.0,0.0,-1.3867,-1.4096,-1.4282,-1.4476,-1.527,-1.5692,-1.571,-1.7275,-1.8889,-2.0484,-2.0484,-2.0484,-2.0466,-1.9675,-2.0021,-2.12,-1.9391,-1.9269,-2.0263,-1.8535,-1.8358,-1.9225,-1.8481,-1.8351,-1.8585,0.0,0.0,0.0,0.0,0.0,0.0,0.0,-1.8603,-1.8688,0.0,0.0,0.0,-2.0824,-2.0636,-2.0339,-2.1887,-2.1786,0.0,0.0,0.0,0.0,0.0,0.0,0.0,0.0,0.0,0.0,0.0,0.0,0.0,0.0,0.0,0.0,0.0,0.0,0.0,0.0,0.0,0.0,0.0,0.0,0.0,0.0,0.0,0.0,0.0,-3.9975,-3.9975,-3.9975,-3.9975,-3.9975,-3.9975,-3.9125,-3.8368,-3.7685,-3.6879,-3.7302,-3.8905,-3.9638,-3.9959,-3.9959,-3.9959,-3.9959,-3.985,-3.8325,-3.7701,-3.7686,-3.7725,-3.8222,-3.8809,-3.8062,-3.7764,-3.7632,0.0,0.0,0.0,0.0,0.0,0.0,0.0,0.0,0.0,0.0,0.0,0.0,0.0,0.0,0.0,0.0,0.0,0.0,-1.3693,-1.3885,-1.4011,-1.4083,-1.4986,-1.5691,-1.612,-1.7644,-1.8788,-1.943,-1.943,-1.9361,-1.9183,-1.9451,-1.952,-1.9391,-1.9184,-1.8996,-1.8806,-1.8092,-1.7974,-1.8234,-1.8211,-1.8249,-1.833,0.0,0.0,0.0,0.0,0.0,0.0,0.0,0.0,0.0,-1.941,0.0,-1.9318,-2.0789,-2.1025,-2.1059,-2.204,-2.2902,0.0,0.0,0.0,0.0,0.0,0.0,0.0,0.0,0.0,0.0,0.0,0.0,0.0,0.0,0.0,0.0,0.0,0.0,0.0,0.0,0.0,0.0,0.0,0.0,0.0,0.0,0.0,0.0,0.0,-3.8811,-3.8823,-3.8203,-3.8137,-3.7988,-3.7544,-3.7314,-3.6799,-3.6133,-3.5919,-3.6034,-3.6501,-3.6748,-3.684,-3.684,-3.684,-3.684,-3.6825,-3.6338,-3.6133,-3.6182,-3.6161,-3.6318,-3.6455,-3.6272,-3.6196,-3.6148,0.0,0.0,0.0,0.0,0.0,0.0,0.0,0.0,0.0,0.0,0.0,0.0,0.0,0.0,0.0,0.0,0.0,0.0,0.0,0.0,-1.4341,-1.4341,-1.4992,-1.5795,-1.6728,-1.7719,-1.8395,-1.8697,-1.8789,-1.8752,-1.8603,-1.9343,-1.9565,-1.93,-1.9291,-1.9332,-1.9321,-1.8251,-1.8126,-1.864,-1.821,-1.8229,-1.8486,0.0,0.0,0.0,0.0,0.0,0.0,0.0,0.0,0.0,-1.9714,0.0,0.0,-2.095,-2.1204,-2.1373,-2.2107,0.0,0.0,0.0,0.0,0.0,0.0,0.0,0.0,0.0,0.0,0.0,0.0,0.0,0.0,0.0,0.0,0.0,0.0,0.0,0.0,0.0,0.0,0.0,0.0,0.0,0.0,0.0,0.0,0.0,0.0,-3.7159,-3.7208,-3.6656,-3.6656,-3.6477,-3.6103,-3.6088,-3.5893,-3.5504,-3.5504,-3.5504,-3.5504,-3.5504,-3.5504,-3.5504,-3.5504,-3.5504,-3.5504,-3.5504,-3.5504,-3.5504,-3.5504,-3.5504,-3.5504,-3.5504,-3.5504,-3.5504,0.0,0.0,0.0,0.0,0.0,0.0,0.0,0.0,0.0,0.0,0.0,0.0,0.0,0.0,0.0,0.0,0.0,0.0,0.0,0.0,-1.4984,-1.4953,-1.5249,-1.6065,-1.7435,-1.7629,-1.7861,-1.8166,-1.843,-1.8547,-1.8545,-1.9354,-1.987,-2.0136,-1.9613,-1.9938,-2.0737,-1.8691,-1.8599,-1.9732,-1.8384,-1.8283,-1.8833,-1.8499,0.0,0.0,0.0,0.0,0.0,0.0,0.0,0.0,-2.0102,-2.0567,-2.1066,-2.1245,-2.1254,-2.1373,0.0,0.0,0.0,0.0,0.0,0.0,0.0,0.0,0.0,0.0,0.0,0.0,0.0,0.0,0.0,0.0,0.0,0.0,0.0,0.0,0.0,0.0,0.0,0.0,0.0,0.0,0.0,0.0,0.0,0.0,0.0,-3.5504,-3.5504,-3.5504,-3.5504,-3.5504,-3.5504,-3.5504,-3.5504,-3.5504,-3.5504,-3.5504,-3.5504,-3.5504,-3.5504,-3.5504,-3.5504,-3.5504,-3.5504,-3.5504,-3.5504,-3.5504,-3.5504,-3.5504,-3.5504,-3.5504,-3.5504,-3.5504,0.0,0.0,0.0,0.0,0.0,0.0,0.0,0.0,0.0,0.0,0.0,0.0,0.0,0.0,0.0,0.0,0.0,0.0,0.0,0.0,-1.4828,-1.4623,-1.5754,-1.6898,-1.7991,-1.7866,-1.7804,-1.79,-1.8146,-1.8166,-1.8005,-1.9314,-1.9375,-1.841,-1.9389,-1.9365,-1.8504,-1.8014,-1.8138,-1.8632,-1.831,-1.8441,-1.8812,-1.8744,-1.8591,0.0,0.0,0.0,0.0,0.0,0.0,0.0,-2.0805,-2.0577,-2.0086,-2.1636,-2.1651,-2.1373,0.0,0.0,0.0,0.0,0.0,0.0,0.0,0.0,0.0,0.0,0.0,0.0,0.0,0.0,0.0,0.0,0.0,0.0,0.0,0.0,0.0,0.0,0.0,0.0,0.0,0.0,0.0,0.0,0.0,0.0,-3.5504,-3.5504,-3.5504,-3.5504,-3.5504,-3.5504,-3.5504,-3.5504,-3.5504,0.0,-3.5504,-3.5504,-3.5504,-3.5504,-3.5504,-3.5504,-3.5504,-3.5504,-3.5504,-3.5504,-3.5504,-3.5504,-3.5504,-3.5504,-3.5504,-3.5504,-3.5504,-3.5504,0.0,0.0,0.0,0.0,0.0,0.0,0.0,0.0,0.0,0.0,0.0,0.0,0.0,0.0,0.0,0.0,0.0,0.0,0.0,0.0,0.0,-1.5886,-1.6875,-1.7603,-1.7997,-1.7992,-1.7927,-1.7811,-1.829,0.0,0.0,0.0,0.0,-1.9452,-2.023,-2.0145,-1.9401,-1.8817,-1.8866,-1.9318,-1.8746,-1.8856,-1.9303,-1.9075,-1.8794,-1.859,-1.9059,0.0,0.0,0.0,0.0,0.0,0.0,0.0,-2.0989,-2.2018,-2.204,-2.1775,0.0,0.0,0.0,0.0,0.0,0.0,0.0,0.0,0.0,0.0,0.0,0.0,0.0,0.0,0.0,0.0,0.0,0.0,0.0,0.0,0.0,0.0,0.0,0.0,0.0,0.0,0.0,0.0,0.0,-3.5504,-3.5504,-3.5504,-3.5504,-3.5504,-3.5504,-3.5504,-3.5504,-3.5504,-3.5504,-3.5504,-3.5504,-3.5504,-3.5504,-3.5504,-3.5504,-3.5504,-3.5504,-3.5504,-3.5504,-3.5504,-3.5504,-3.5504,-3.5504,-3.5504,-3.5504,-3.5504,-3.5504,-3.5504,0.0,0.0,0.0,0.0,0.0,0.0,0.0,0.0,0.0,0.0,0.0,0.0,0.0,0.0,0.0,0.0,0.0,0.0,0.0,0.0,0.0,-1.7505,-1.7922,-1.8035,-1.7811,-1.8014,-1.8087,-1.7997,0.0,0.0,0.0,0.0,0.0,-2.0894,0.0,-2.0887,-2.0709,-1.9734,-1.967,-2.0199,-1.9252,-1.9277,-1.9799,-1.9443,-1.8943,-1.8558,-1.9411,-1.9645,-1.9667,-2.0509,0.0,0.0,0.0,0.0,-2.191,-2.2101,-2.2079,-2.191,0.0,0.0,0.0,0.0,0.0,0.0,0.0,0.0,0.0,0.0,0.0,0.0,0.0,0.0,0.0,0.0,0.0,0.0,0.0,0.0,0.0,0.0,0.0,0.0,0.0,0.0,0.0,0.0,0.0,-3.5325,-3.5325,-3.5325,-3.5325,-3.5325,-3.5325,-3.5385,-3.5504,-3.5504,-3.5444,-3.5325,-3.522,-3.522,-3.5325,-3.5325,-3.5385,-3.5504,-3.5504,-3.5504,-3.5504,-3.5504,-3.5504,-3.5504,-3.5504,-3.5504,-3.5504,-3.5504,-3.5504,-3.5504,0.0,0.0,0.0,0.0,0.0,0.0,0.0,0.0,0.0,0.0,0.0,0.0,0.0,0.0,0.0,0.0,0.0,0.0,-1.4346,0.0,0.0,-1.8038,-1.7941,-1.7833,-1.7811,-1.7833,-1.8138,-1.8741,0.0,0.0,0.0,0.0,0.0,-1.9635,0.0,0.0,-1.9097,-1.8943,-1.9072,-1.9371,-1.9197,-1.9385,-1.9718,-1.9662,-1.9566,-1.9506,-1.9651,-1.9919,-2.0138,-1.9949,-2.0139,0.0,0.0,0.0,-2.0423,-2.1417,-2.1242,0.0,0.0,0.0,0.0,0.0,0.0,0.0,0.0,0.0,0.0,0.0,0.0,0.0,0.0,0.0,0.0,0.0,0.0,0.0,0.0,0.0,0.0,0.0,0.0,0.0,0.0,0.0,0.0,0.0,-3.4951,-3.4607,-3.4607,-3.4607,-3.4607,-3.4607,-3.4607,-3.4906,-3.5489,-3.5504,-3.5205,-3.4607,-3.4038,-3.4068,-3.4607,-3.4607,-3.4936,-3.5504,-3.5504,-3.5504,-3.5504,-3.5504,-3.5504,-3.5504,-3.5504,-3.5504,-3.5504,-3.5504,-3.5504,-3.5504,0.0,0.0,0.0,0.0,0.0,0.0,0.0,0.0,0.0,0.0,0.0,0.0,0.0,0.0,0.0,-1.4614,-1.4242,-1.4568,-1.586,-1.6527,-1.7271,-1.8153,-1.7949,-1.7704,-1.7526,-1.8108,-1.8478,0.0,0.0,0.0,0.0,-2.0806,-2.0613,0.0,0.0,0.0,0.0,-1.9752,-1.9699,-1.978,-1.9573,-1.9562,-1.969,-1.969,-1.969,-1.969,-1.969,-1.9803,-1.9965,-2.0035,-2.0158,-2.0382,-2.0862,0.0,0.0,0.0,0.0,0.0,0.0,0.0,0.0,0.0,0.0,0.0,0.0,0.0,0.0,0.0,0.0,0.0,0.0,0.0,0.0,0.0,0.0,0.0,0.0,0.0,0.0,0.0,0.0,0.0,0.0,0.0,0.0,0.0,-3.4098,-3.3918,-3.3918,-3.3918,-3.3918,-3.3918,-3.3918,-3.4068,-3.4382,-3.4382,-3.4218,-3.3918,-3.3634,-3.3649,-3.3918,-3.3918,-3.4292,-3.4951,-3.534,-3.5295,-3.4966,-3.5355,-3.5504,-3.5504,-3.5504,-3.5504,-3.5504,-3.5504,-3.5504,-3.5504,0.0,0.0,0.0,0.0,0.0,0.0,0.0,0.0,0.0,0.0,0.0,0.0,0.0,0.0,0.0,0.0,-1.505,-1.542,-1.69,-1.7308,-1.7666,-1.8065,-1.7986,-1.7749,-1.732,-1.8153,-1.8593,0.0,0.0,0.0,-2.0969,-2.1001,-2.0862,0.0,-2.0665,0.0,0.0,0.0,0.0,0.0,0.0,-1.9566,0.0,-1.9566,-1.9566,-1.969,-1.969,-1.9782,-1.9874,-2.0089,-2.0227,-2.0348,-2.0715,-2.0829,0.0,0.0,0.0,0.0,0.0,0.0,0.0,0.0,0.0,0.0,0.0,0.0,0.0,0.0,0.0,0.0,0.0,0.0,0.0,0.0,0.0,0.0,0.0,0.0,0.0,0.0,0.0,0.0,0.0,0.0,0.0,0.0,-3.3335,-3.317,-3.3006,-3.2991,-3.2991,-3.2991,-3.2991,-3.3155,-3.3499,-3.332,-3.3245,-3.3245,-3.308,-3.308,-3.3245,-3.3245,-3.3514,-3.4023,-3.4876,-3.4951,-3.4532,-3.522,-3.5504,-3.5504,-3.5504,-3.5504,-3.5504,-3.5504,-3.5504,-3.5504,0.0,0.0,0.0,0.0,0.0,0.0,0.0,0.0,0.0,0.0,0.0,0.0,-1.4645,-1.5763,-1.6185,-1.5209,-1.5385,-1.5886,-1.6669,-1.802,-1.8511,-1.785,-1.8169,0.0,-1.7313,-1.7672,0.0,0.0,0.0,0.0,-2.0353,-2.0813,-2.0565,-1.9747,-1.9747,-1.9747,-1.9747,0.0,0.0,0.0,0.0,0.0,0.0,0.0,0.0,0.0,0.0,-1.9945,-2.0212,-1.9839,-2.0,-2.0299,-2.0348,-2.0348,0.0,0.0,0.0,0.0,0.0,0.0,0.0,0.0,0.0,0.0,0.0,0.0,0.0,0.0,0.0,0.0,0.0,0.0,0.0,0.0,0.0,0.0,0.0,0.0,0.0,0.0,0.0,0.0,0.0,0.0,0.0,0.0,-3.2916,-3.2287,-3.1616,-3.1571,-3.1571,-3.1571,-3.1571,-3.2228,-3.3484,-3.2886,-3.2557,-3.2557,-3.1943,-3.1958,-3.2557,-3.2557,-3.2587,-3.2691,-3.3963,-3.4502,-3.4532,-3.522,-3.5504,-3.5504,-3.5504,-3.5504,-3.5504,-3.5504,-3.5504,-3.5504,0.0,0.0,0.0,0.0,0.0,0.0,0.0,0.0,0.0,0.0,0.0,0.0,0.0,-1.6263,-1.7117,-1.7214,-1.7964,-1.8352,-1.8138,-1.8606,-1.8485,-1.7519,-1.7616,-1.7573,-1.7309,-1.8103,0.0,0.0,0.0,-2.0798,-2.0764,-2.0616,-2.0382,-2.0054,-1.9818,-1.953,-1.9207,-1.9566,0.0,0.0,0.0,0.0,0.0,0.0,0.0,0.0,0.0,0.0,0.0,-1.9747,-1.9588,-1.9471,-1.9823,0.0,0.0,0.0,0.0,0.0,0.0,0.0,0.0,0.0,0.0,0.0,0.0,0.0,0.0,0.0,0.0,0.0,0.0,0.0,0.0,0.0,0.0,0.0,0.0,0.0,0.0,0.0,0.0,0.0,0.0,0.0,0.0,0.0,0.0,-3.0941,-3.0313,-3.0283,-3.0283,-3.0283,-3.0672,-3.1315,-3.2228,-3.2003,-3.1884,-3.1884,-3.1586,-3.1601,-3.1884,-3.1884,-3.1884,-3.1943,-3.2826,-3.3215,-3.3275,-3.3933,-3.4457,-3.4846,-3.4846,-3.5115,-3.5504,-3.5504,-3.5504,-3.5504,0.0,0.0,0.0,0.0,0.0,0.0,0.0,0.0,0.0,0.0,0.0,0.0,0.0,0.0,-1.8013,-1.8486,-1.919,-1.9389,-1.8908,-1.9107,-1.8805,-1.785,-1.7941,-1.7868,-1.7604,-1.8406,0.0,0.0,0.0,0.0,0.0,-2.0382,-2.0212,-2.0089,-1.9609,-1.9332,0.0,0.0,0.0,-1.9169,0.0,0.0,-1.9534,0.0,0.0,0.0,0.0,0.0,0.0,0.0,0.0,0.0,0.0,0.0,0.0,0.0,0.0,0.0,0.0,0.0,0.0,0.0,0.0,0.0,0.0,0.0,0.0,0.0,0.0,0.0,0.0,0.0,0.0,0.0,0.0,0.0,0.0,0.0,0.0,0.0,0.0,0.0,0.0,0.0,0.0,0.0,0.0,0.0,-2.928,-2.925,-2.925,-2.925,-2.9864,-3.0417,-3.0881,-3.0881,-3.0881,-3.0881,-3.0881,-3.0986,-3.118,-3.118,-3.1315,-3.1497,-3.2003,-3.2302,-3.2557,-3.3215,-3.3754,-3.4143,-3.4143,-3.4427,-3.4861,-3.507,-3.516,-3.516,0.0,0.0,0.0,0.0,0.0,0.0,0.0,0.0,0.0,0.0,0.0,0.0,0.0,0.0,0.0,-1.8858,-1.8858,-1.8842,-1.8826,-1.9509,-1.9572,-1.8826,-1.9155,-1.8997,-1.8223,-1.8543,0.0,0.0,0.0,0.0,0.0,0.0,-2.007,-1.9639,-1.9132,-1.9169,-1.9639,0.0,-1.969,-1.9596,0.0,-1.9141,-2.0576,0.0,0.0,0.0,-2.1625,-2.1222,0.0,-1.9883,0.0,0.0,0.0,0.0,0.0,0.0,0.0,0.0,0.0,0.0,0.0,0.0,0.0,0.0,0.0,0.0,0.0,0.0,0.0,0.0,0.0,0.0,0.0,0.0,0.0,0.0,0.0,0.0,0.0,0.0,0.0,0.0,0.0,0.0,0.0,0.0,-2.9549,-2.9265,-2.8607,-2.8547,-2.8547,-2.8547,-2.9175,-2.9535,-2.9549,-2.9564,-2.9579,-2.9579,-2.9579,-2.9894,-3.0477,-3.0477,-3.0851,-3.1422,-3.1437,-3.1869,-3.2497,-3.3155,-3.344,-3.3469,-3.3469,-3.3484,-3.3574,-3.4203,-3.4442,-3.4442,0.0,0.0,0.0,0.0,0.0,0.0,0.0,0.0,0.0,0.0,0.0,0.0,-1.77,-1.8622,-1.9547,-2.0304,-2.0384,-2.0145,-1.962,-1.9779,-1.9434,-1.8391,-1.847,-1.8529,-1.857,-1.8631,0.0,0.0,0.0,0.0,0.0,0.0,0.0,0.0,-1.8968,-1.8765,-1.8574,-1.8968,0.0,0.0,-1.9199,-1.9111,0.0,0.0,0.0,0.0,0.0,-1.9838,-1.9964,0.0,-1.9071,-1.9006,0.0,0.0,0.0,0.0,0.0,0.0,-1.8458,0.0,0.0,0.0,0.0,0.0,0.0,0.0,0.0,0.0,0.0,0.0,0.0,0.0,0.0,0.0,0.0,0.0,0.0,0.0,0.0,0.0,0.0,0.0,0.0,0.0,0.0,0.0,-2.8876,-2.8577,-2.7889,-2.741,-2.7141,-2.7141,-2.7784,-2.8368,-2.8861,-2.934,-2.9579,-2.9579,-2.9579,-2.9669,-2.9834,-2.9834,-2.9939,-3.0148,-3.0597,-3.0896,-3.112,-3.1794,-3.2362,-3.2781,-3.2781,-3.308,-3.3514,-3.3709,-3.3769,-3.3844,0.0,0.0,0.0,0.0,0.0,0.0,0.0,0.0,0.0,0.0,0.0,0.0,-1.8508,-1.9122,-1.9759,-2.04,-2.0481,-2.0276,-1.9853,-1.9838,-1.9439,-1.8545,-1.8712,-1.8691,-1.8455,-1.8687,0.0,0.0,0.0,0.0,0.0,0.0,0.0,0.0,0.0,0.0,0.0,0.0,0.0,0.0,-1.9011,0.0,0.0,-1.9473,-1.968,0.0,0.0,0.0,-2.0425,-1.9543,-1.9328,0.0,0.0,0.0,0.0,0.0,0.0,0.0,0.0,0.0,0.0,0.0,0.0,0.0,-1.8688,-1.8893,0.0,0.0,0.0,0.0,0.0,0.0,0.0,0.0,0.0,0.0,0.0,0.0,0.0,0.0,0.0,0.0,0.0,-2.7698,-2.7484,-2.738,-2.735,-2.7171,-2.6782,-2.6393,-2.6183,-2.6183,-2.6557,-2.7081,-2.7754,-2.8143,-2.8472,-2.8742,-2.8742,-2.8891,-2.9175,-2.9175,-2.9325,-2.9609,-2.9968,-3.0268,-3.0537,-3.0941,-3.1509,-3.2108,-3.2108,-3.2332,-3.2706,-3.2976,-3.308,-3.314,0.0,0.0,0.0,0.0,0.0,0.0,0.0,0.0,0.0,0.0,0.0,-1.8962,-1.9543,-1.9639,-1.969,-1.969,-1.969,-1.969,-1.969,-1.9639,-1.9406,-1.893,-1.9281,-1.908,-1.8145,-1.8574,0.0,0.0,0.0,0.0,0.0,0.0,0.0,0.0,0.0,0.0,0.0,0.0,0.0,-1.8712,-1.8343,-1.9474,0.0,0.0,-2.0748,0.0,-2.1489,-2.1336,-2.1145,-2.0061,-1.9669,0.0,0.0,0.0,0.0,0.0,-1.8911,0.0,0.0,0.0,0.0,0.0,0.0,0.0,-1.864,-1.8784,-1.8827,0.0,0.0,0.0,0.0,0.0,0.0,0.0,0.0,0.0,0.0,0.0,0.0,0.0,0.0,0.0,-2.525,-2.4828,-2.4761,-2.5448,-2.557,-2.557,-2.5495,-2.5495,-2.5465,-2.539,-2.5465,-2.5779,-2.6363,-2.6512,-2.6886,-2.7505,-2.758,-2.7889,-2.8487,-2.8487,-2.8801,-2.9355,-2.9445,-2.9789,-3.0298,-3.0447,-3.0911,-3.1482,-3.1482,-3.1482,-3.1541,-3.2198,-3.2407,-3.2422,-1.3174,0.0,0.0,0.0,0.0,0.0,0.0,0.0,0.0,0.0,0.0,0.0,0.0,0.0,-1.969,-1.969,-1.969,-1.969,-1.969,-1.9281,-1.9006,-1.8893,-1.8574,-1.8302,-1.8106,-1.8224,0.0,0.0,0.0,0.0,0.0,0.0,0.0,0.0,0.0,0.0,0.0,0.0,0.0,-1.774,-1.8476,0.0,-1.9463,-1.8332,-1.8151,-1.8487,-1.8755,-1.9169,-1.9492,-1.9242,-1.8879,-1.861,0.0,0.0,0.0,0.0,0.0,0.0,0.0,0.0,0.0,0.0,0.0,0.0,-1.7624,-1.7974,-1.8314,0.0,0.0,0.0,0.0,0.0,0.0,0.0,0.0,0.0,0.0,0.0,0.0,0.0,0.0,0.0,-2.3402,-2.3312,-2.3668,-2.4731,-2.5315,-2.5375,-2.4806,-2.4776,-2.4567,-2.4014,-2.4522,-2.4836,-2.5016,-2.6063,-2.6662,-2.6782,-2.737,-2.7685,-2.7784,-2.7784,-2.7895,-2.7993,-2.8547,-2.8861,-2.9056,-3.0073,-3.0911,-3.1482,-3.1482,-3.1482,-3.1497,-3.1616,-3.1676,-3.1735,-1.3683,0.0,0.0,0.0,0.0,0.0,0.0,0.0,0.0,0.0,0.0,0.0,0.0,0.0,0.0,0.0,-1.9281,-1.9281,-1.9281,-1.9065,-1.8663,-1.812,-1.8356,-1.8126,-1.7312,-1.7544,0.0,0.0,0.0,0.0,0.0,0.0,0.0,0.0,0.0,0.0,0.0,0.0,-1.8176,-1.828,-1.8437,0.0,-1.8975,-1.7836,-1.7753,-1.8235,-1.8232,-1.838,-1.8618,-1.8618,-1.8608,0.0,0.0,-1.9394,-1.974,0.0,-1.9066,-1.8408,0.0,0.0,0.0,-1.7273,0.0,0.0,0.0,-1.7916,-1.7845,0.0,0.0,0.0,0.0,0.0,0.0,0.0,0.0,0.0,0.0,0.0,0.0,0.0,0.0,0.0,-2.1831,-2.1613,-2.1873,-2.3046,-2.3475,-2.352,-2.3191,-2.3475,-2.336,-2.2673,-2.3584,-2.4134,-2.4126,-2.5131,-2.5944,-2.6587,-2.6916,-2.726,-2.7625,-2.7625,-2.7625,-2.764,-2.7934,-2.8278,-2.8652,-2.9295,-3.0133,-3.1046,-3.1405,-3.1482,-3.1482,-3.1482,-3.1482,-3.1526,-1.3803,0.0,0.0,0.0,0.0,0.0,0.0,0.0,0.0,0.0,0.0,0.0,0.0,0.0,0.0,0.0,0.0,0.0,0.0,0.0,0.0,-1.751,-1.828,-1.812,-1.6697,-1.7192,-1.7192,0.0,0.0,0.0,0.0,0.0,0.0,0.0,0.0,0.0,0.0,0.0,0.0,-1.8745,0.0,-1.8584,-1.9133,-1.7874,-1.7978,-1.8702,-1.8215,-1.8053,-1.8066,-1.8179,0.0,-1.8816,-1.8591,-1.9111,0.0,0.0,0.0,0.0,0.0,0.0,0.0,0.0,0.0,-1.7768,0.0,0.0,0.0,0.0,0.0,0.0,0.0,0.0,0.0,0.0,0.0,0.0,0.0,0.0,0.0,0.0,0.0,0.0,0.0,-1.9936,-2.0175,-2.1287,-2.1366,-2.1385,-2.1385,-2.1928,-2.1942,-2.1398,-2.2484,-2.3112,-2.3177,-2.4009,-2.4966,-2.6054,-2.6419,-2.6871,-2.738,-2.7565,-2.7625,-2.7625,-2.7625,-2.7889,-2.8412,-2.8547,-2.9205,-3.0208,-3.1031,-3.1362,-3.1482,-3.1482,-3.1482,-3.1482,-1.3118,-1.3599,0.0,0.0,0.0,0.0,0.0,0.0,0.0,0.0,0.0,0.0,0.0,0.0,0.0,0.0,0.0,0.0,-2.0292,0.0,0.0,0.0,-1.8202,0.0,-1.73,-1.7798,-1.7857,0.0,0.0,0.0,0.0,0.0,0.0,0.0,-1.6522,0.0,0.0,0.0,-1.7969,0.0,-1.8053,-1.8892,0.0,-1.804,-1.7458,-1.7599,-1.7521,-1.7476,-1.7551,0.0,-1.8242,-1.845,0.0,-1.9791,-1.9826,0.0,0.0,0.0,0.0,0.0,0.0,0.0,-1.816,0.0,0.0,0.0,0.0,0.0,0.0,0.0,0.0,0.0,0.0,0.0,0.0,0.0,0.0,0.0,0.0,0.0,0.0,0.0,0.0,-1.8632,-1.9445,-2.0067,-2.0202,-2.0302,-2.0302,-2.0358,-2.0357,-2.0271,-2.0901,-2.1206,-2.1244,-2.293,-2.3858,-2.4065,-2.5779,-2.6632,-2.6722,-2.7355,-2.7625,-2.7625,-2.7625,-2.767,-2.779,-2.8353,-2.8682,-2.8936,-3.0148,-3.1001,-3.1482,-3.1482,-3.1482,-3.1482,-1.3455,0.0,0.0,0.0,0.0,0.0,0.0,0.0,0.0,0.0,0.0,0.0,0.0,0.0,0.0,0.0,0.0,-1.8909,0.0,0.0,0.0,0.0,0.0,0.0,0.0,-1.7877,-1.8091,-1.7852,-1.7852,0.0,0.0,0.0,0.0,0.0,-1.6672,0.0,-1.7446,0.0,0.0,0.0,0.0,0.0,0.0,-1.7516,-1.6886,-1.6923,-1.7262,-1.7388,-1.7463,0.0,-1.8417,0.0,0.0,0.0,0.0,0.0,0.0,0.0,0.0,0.0,0.0,0.0,0.0,0.0,-1.8066,0.0,-1.7689,0.0,0.0,0.0,0.0,0.0,0.0,0.0,0.0,0.0,0.0,0.0,0.0,0.0,0.0,0.0,0.0,0.0,0.0,0.0,-1.8904,-1.8961,-1.8961,-1.9294,-1.9362,-1.9003,-2.0223,-2.0717,-2.0394,-2.2225,-2.3331,-2.3706,-2.5272,-2.6213,-2.6617,-2.7275,-2.7625,-2.7625,-2.7625,-2.7625,-2.759,-2.7447,-2.7627,-2.7969,-2.8078,-2.9243,-3.0941,-3.0941,-3.1195,-3.1482,0.0,0.0,0.0,0.0,0.0,0.0,0.0,0.0,0.0,0.0,0.0,0.0,-1.892,-1.9351,0.0,0.0,-1.9307,-1.8922,0.0,0.0,-1.7775,0.0,0.0,0.0,0.0,0.0,0.0,0.0,0.0,0.0,0.0,0.0,0.0,0.0,0.0,-1.7074,-1.7639,0.0,0.0,-1.8242,-1.8643,-1.8719,-1.8442,-1.7225,-1.666,-1.6572,-1.6999,-1.725,-1.7463,-1.8016,-1.8581,0.0,-1.9196,0.0,0.0,0.0,0.0,0.0,-1.9346,0.0,0.0,0.0,0.0,0.0,0.0,0.0,0.0,0.0,0.0,0.0,0.0,0.0,0.0,0.0,0.0,0.0,0.0,0.0,0.0,0.0,0.0,0.0,0.0,0.0,0.0,-1.7867,-1.7747,-1.7666,-1.7666,-1.8112,-1.8187,-1.777,-1.9319,-2.0013,-1.9781,-2.1537,-2.268,-2.3183,-2.4616,-2.5491,-2.5823,-2.6867,-2.7355,-2.7305,-2.7333,-2.7306,-2.7255,-2.6496,-2.65,-2.6859,-2.6329,-2.7542,-2.9606,-2.9781,-3.0336,-3.0967,-1.3663,-1.4307,0.0,0.0,0.0,0.0,0.0,0.0,0.0,0.0,0.0,0.0,0.0,0.0,0.0,0.0,0.0,-1.8721,-2.0514,0.0,-1.7454,0.0,0.0,-1.8639,0.0,0.0,0.0,0.0,0.0,0.0,0.0,0.0,0.0,0.0,0.0,-1.7664,-1.8216,-1.8769,-1.8694,-1.8204,-1.8229,-1.7903,-1.7438,0.0,-1.7011,-1.6522,-1.6534,0.0,0.0,-1.8016,-1.8581,0.0,0.0,0.0,0.0,0.0,0.0,0.0,0.0,0.0,0.0,-1.9108,0.0,0.0,0.0,0.0,-1.8681,0.0,0.0,0.0,0.0,0.0,0.0,0.0,0.0,0.0,0.0,0.0,0.0,0.0,0.0,0.0,0.0,0.0,0.0,-1.7312,-1.6837,-1.6552,-1.6552,-1.6577,-1.6577,-1.6547,-1.7685,-1.8567,-1.9099,-2.0885,-2.1758,-2.1785,-2.3695,-2.4323,-2.384,-2.5764,-2.6617,-2.6613,-2.6564,-2.6563,-2.6457,-2.5728,-2.5467,-2.5481,-2.5425,-2.6228,-2.7349,-2.8005,-2.8771,-2.9522,0.0,0.0,0.0,0.0,0.0,0.0,0.0,-1.7564,0.0,0.0,0.0,0.0,0.0,-2.1498,-2.1269,0.0,0.0,-1.9559,-1.9958,-1.9848,0.0,0.0,0.0,-1.9492,0.0,0.0,0.0,0.0,0.0,0.0,0.0,0.0,0.0,0.0,0.0,-1.8028,0.0,0.0,0.0,0.0,0.0,-1.8091,-1.784,0.0,0.0,-1.7137,-1.7501,-1.7765,0.0,-1.8957,-1.9384,-1.9572,-1.9748,-1.9798,-1.9798,-1.9798,-1.9798,0.0,0.0,0.0,-1.9761,-1.9585,0.0,0.0,0.0,0.0,0.0,0.0,0.0,0.0,0.0,0.0,0.0,0.0,0.0,0.0,0.0,0.0,0.0,0.0,0.0,0.0,0.0,0.0,0.0,-1.6752,-1.6595,-1.6522,-1.6522,-1.6522,-1.6522,-1.6522,-1.7614,-1.8286,-1.8495,-2.0202,-2.1113,-2.1126,-2.265,-2.3249,-2.3069,-2.4198,-2.4861,-2.5208,-2.5159,-2.539,-2.5728,-2.4951,-2.4681,-2.4664,-2.4537,-2.4702,-2.5275,-2.6917,-2.8251,-2.926,-1.4553,0.0,0.0,0.0,0.0,0.0,0.0,0.0,0.0,0.0,-2.1131,0.0,-2.285,0.0,-2.2079,0.0,-2.0717,-1.9727,-1.9388,-2.0041,0.0,-1.7021,-1.9631,0.0,0.0,0.0,0.0,0.0,0.0,-1.9135,0.0,0.0,0.0,0.0,0.0,0.0,0.0,0.0,-1.8706,0.0,0.0,-1.8049,0.0,0.0,-1.6679,-1.7045,0.0,-1.736,-1.7642,-1.8572,-1.9103,-1.9475,-1.9695,-1.9631,-1.9423,-1.9423,-1.9202,-1.9044,-1.9044,-1.9044,0.0,-1.9359,-1.9202,0.0,-1.9695,0.0,0.0,0.0,0.0,0.0,0.0,0.0,0.0,0.0,0.0,0.0,0.0,-1.6522,0.0,0.0,0.0,0.0,0.0,0.0,-1.6522,-1.6522,-1.6522,-1.6522,0.0,0.0,-1.6609,-1.6823,-1.7727,-1.8387,-1.8849,-2.0139,-2.0795,-2.0809,-2.1847,-2.222,-2.2065,-2.3137,-2.3834,-2.4169,-2.4341,-2.464,-2.4951,-2.4163,-2.3884,-2.3891,-2.395,-2.4117,-2.4482,-2.6038,-2.7463,-2.8719,0.0,0.0,0.0,0.0,-1.6043,0.0,0.0,0.0,-1.9212,0.0,-2.1129,-2.2625,-2.1274,-2.2016,-2.2213,-2.1353,-2.0081,0.0,-1.9,-1.9638,0.0,0.0,-1.8999,-1.886,-1.5517,0.0,0.0,0.0,0.0,0.0,0.0,0.0,0.0,0.0,-1.9284,0.0,-1.8242,-1.8745,-1.8657,-1.8157,-1.8182,-1.7726,-1.7047,-1.6503,-1.6315,-1.6326,-1.5828,-1.5927,-1.6373,-1.7093,-1.7957,-1.8821,-1.9527,-1.9254,-1.8715,-1.8661,-1.8167,-1.7578,-1.7578,-1.7578,-1.7797,-1.8501,-1.8167,0.0,0.0,0.0,-1.8519,0.0,0.0,0.0,0.0,0.0,0.0,0.0,0.0,0.0,0.0,0.0,0.0,0.0,0.0,0.0,0.0,-1.6522,-1.6522,-1.6522,-1.6522,0.0,0.0,0.0,-1.681,-1.7363,-1.794,-1.8814,-1.9938,-2.0456,-2.0746,-2.0746,-2.1342,-2.1307,-2.0888,-2.2668,-2.3485,-2.3543,-2.399,-2.4208,-2.4176,-2.3424,-2.309,-2.3178,-2.3816,-2.4393,-2.4958,-2.546,-2.6486,-2.7961,-1.533,-1.572,-1.6271,0.0,-1.6985,-1.7029,0.0,0.0,0.0,0.0,-2.2472,-2.3668,-2.2958,-2.3168,-2.2954,-2.1859,-2.0523,0.0,0.0,0.0,0.0,-1.8113,-1.995,-1.9429,-1.5968,-1.8012,0.0,-1.5968,0.0,0.0,-1.8167,0.0,0.0,0.0,0.0,0.0,-1.8242,-1.8745,-1.8449,-1.7569,-1.7846,-1.7588,0.0,0.0,-1.6047,-1.6077,-1.6367,-1.6542,-1.6823,-1.7972,-1.8501,-1.8715,-1.8927,-1.8874,-1.8608,-1.8058,-1.7743,-1.7578,-1.7578,-1.7578,-1.7797,-1.8501,-1.8555,-1.8501,0.0,0.0,0.0,0.0,0.0,0.0,0.0,0.0,0.0,0.0,0.0,0.0,0.0,0.0,0.0,-1.7112,0.0,0.0,0.0,-1.6522,-1.6522,-1.6522,-1.6522,0.0,0.0,0.0,0.0,-1.742,-1.8317,-1.8918,-1.9253,-1.9787,-2.0055,-2.0055,-2.0232,-2.0463,-2.0768,-2.1208,-2.1908,-2.2665,-2.2732,-2.3043,-2.3365,-2.3198,-2.3389,-2.3828,-2.4393,-2.5197,-2.605,-2.6189,-2.6531,-2.7003,-1.5675,0.0,0.0,-1.7579,0.0,0.0,-1.7665,0.0,0.0,-2.0005,-2.2457,0.0,-2.2072,-2.2509,-2.2477,-2.1165,-2.0215,0.0,-1.9748,0.0,0.0,-1.8145,-1.9405,-1.8785,-1.586,-1.6889,0.0,-1.5618,0.0,0.0,-1.8124,0.0,0.0,0.0,0.0,-1.917,0.0,-1.8412,-1.8018,-1.7216,-1.7373,0.0,0.0,-1.6029,-1.5795,-1.5751,-1.6085,-1.6069,-1.6094,-1.7154,-1.7605,-1.7797,-1.8112,-1.8015,-1.7688,-1.7246,-1.6922,-1.6631,-1.6631,-1.6631,-1.68,-1.7578,-1.7512,-1.7457,-1.8058,-1.795,-1.7633,0.0,0.0,-1.7633,0.0,0.0,0.0,0.0,0.0,0.0,0.0,0.0,0.0,0.0,0.0,0.0,0.0,0.0,-1.6238,-1.6466,0.0,0.0,0.0,0.0,0.0,-1.7739,-1.9045,-1.9623,-1.9371,-2.015,-2.0288,-1.9798,-2.0062,-2.0351,-2.0743,-2.1167,-2.1732,-2.2322,-2.2573,-2.2849,-2.3078,-2.3078,-2.3477,-2.4079,-2.4858,-2.5686,-2.6533,-2.6533,-2.6533,-2.6615,0.0,0.0,0.0,0.0,0.0,0.0,0.0,-1.9436,0.0,-1.8952,0.0,-2.3037,-2.0292,-2.1267,-2.1546,-2.0026,0.0,-1.9174,-1.8803,-1.9476,-1.9189,-1.7599,-1.8226,-1.7656,-1.5518,-1.5192,0.0,0.0,0.0,0.0,0.0,0.0,0.0,0.0,0.0,0.0,0.0,-1.7879,-1.7482,0.0,-1.677,-1.6267,-1.5594,-1.5656,-1.5532,-1.541,-1.541,-1.5176,-1.4975,-1.5711,-1.6203,-1.6595,-1.7246,-1.7034,-1.6492,-1.6368,-1.5921,-1.541,-1.541,-1.541,-1.5584,-1.6322,-1.6036,-1.5853,-1.7191,-1.6978,-1.6492,-1.6379,-1.6866,-1.7191,0.0,0.0,0.0,0.0,0.0,0.0,0.0,0.0,0.0,0.0,0.0,0.0,0.0,0.0,0.0,0.0,0.0,0.0,0.0,0.0,0.0,-1.8292,-1.9773,-2.0376,-2.0024,0.0,-2.0891,-2.0137,-2.0501,-2.0794,-2.097,-2.187,-2.2347,-2.2447,-2.2924,-2.3078,-2.3078,-2.3078,-2.3527,-2.4217,-2.5285,-2.6013,-2.6533,-2.6533,-2.6502,-2.6716,0.0,0.0,0.0,0.0,0.0,-1.8182,-1.839,-1.9073,-1.9561,-1.9629,-2.1707,-2.2429,-2.0643,-2.1814,-2.1983,-2.0056,-1.9531,0.0,0.0,0.0,0.0,-1.8425,-1.7933,-1.7108,-1.6007,-1.6158,-1.6155,0.0,0.0,0.0,0.0,0.0,0.0,0.0,0.0,0.0,-1.7051,-1.7622,0.0,-1.5508,-1.6252,-1.5925,-1.4982,-1.5338,-1.54,-1.541,-1.541,-1.5361,-1.5408,-1.6141,-1.6419,-1.6539,-1.6652,-1.6595,-1.6379,-1.5748,-1.5526,-1.541,-1.541,-1.541,-1.5584,-1.6322,-1.6368,-1.6379,-1.6652,-1.6595,-1.6322,-1.57,-1.569,-1.613,-1.7191,0.0,0.0,0.0,0.0,0.0,0.0,0.0,0.0,0.0,0.0,0.0,0.0,0.0,0.0,0.0,0.0,0.0,0.0,0.0,0.0,0.0,-1.9572,0.0,0.0,0.0,-2.0702,-2.1857,-2.1054,-2.1142,-2.2033,-2.2221,-2.256,-2.3,-2.3027,-2.3078,-2.3078,-2.3078,-2.374,-2.4782,-2.5887,-2.6445,-2.6533,-2.6533,-2.6753,-2.7231,0.0,0.0,0.0,0.0,0.0,0.0,0.0,-2.0019,0.0,-1.9951,-2.1155,-2.1484,-2.0092,-2.0797,-2.0873,-1.9713,-1.9199,-1.8901,-1.893,-1.836,-1.7782,-1.7306,-1.6931,0.0,-1.5468,-1.5528,-1.5628,-1.5723,0.0,0.0,0.0,0.0,0.0,0.0,0.0,-1.7126,0.0,0.0,0.0,-1.5821,-1.592,-1.5571,-1.5127,-1.5332,-1.541,-1.541,-1.541,-1.541,-1.5468,-1.5806,-1.5921,-1.5921,-1.5921,-1.5921,-1.5864,-1.5526,-1.541,-1.541,-1.541,-1.541,-1.5468,-1.5864,-1.5921,-1.5921,-1.5921,-1.5921,-1.5806,-1.5468,-1.541,-1.5748,-1.681,-1.7907,0.0,0.0,0.0,0.0,0.0,0.0,0.0,0.0,0.0,0.0,0.0,0.0,0.0,0.0,0.0,0.0,0.0,0.0,0.0,0.0,0.0,0.0,0.0,0.0,0.0,-2.1882,-2.1631,-2.1794,-2.2322,-2.2611,-2.2887,-2.3078,-2.3078,-2.3078,-2.3175,-2.3766,-2.4494,-2.531,-2.6138,-2.6533,-2.6559,-2.6779,-2.7231,-2.7745,0.0,-1.8721,0.0,0.0,-2.0137,0.0,-2.0654,-2.1006,-2.0947,-2.0156,-2.0541,-2.0571,-1.9527,-1.9639,-1.9609,-1.9189,-1.8838,-1.8457,-1.8037,-1.7529,-1.6934,-1.624,-1.6025,-1.5605,-1.4932,-1.4922,-1.5127,0.0,0.0,0.0,0.0,0.0,0.0,0.0,0.0,0.0,0.0,0.0,-1.6436,-1.6208,-1.5633,-1.541,-1.541,-1.541,-1.541,-1.541,-1.541,-1.541,-1.541,-1.541,-1.541,-1.541,-1.541,-1.541,-1.541,-1.541,-1.541,-1.541,-1.541,-1.541,-1.541,-1.541,-1.541,-1.541,-1.541,-1.541,-1.541,-1.541,-1.5526,-1.5806,-1.6379,-1.709,0.0,0.0,0.0,0.0,0.0,0.0,0.0,0.0,0.0,0.0,0.0,0.0,0.0,0.0,0.0,0.0,0.0,0.0,0.0,0.0,0.0,-2.1091,-2.1016,0.0,-2.1983,-2.202,-2.2221,-2.2372,-2.2498,-2.2937,-2.3078,-2.3078,-2.3263,-2.3389,-2.3516,-2.4569,-2.5222,-2.5649,-2.6239,-2.6533,-2.6596,-2.708,-2.7632,-2.8122,0.0,0.0,0.0,0.0,0.0,0.0,-2.1172,-2.1211,-2.1064,-2.0566,-2.0232,-1.9968,-1.9863,-1.9551,-1.917,-1.874,-1.8662,-1.8457,-1.8037,-1.7246,-1.6758,-1.667,-1.5898,-1.5439,-1.5352,-1.5352,-1.5566,0.0,0.0,-1.6146,0.0,0.0,0.0,0.0,0.0,0.0,0.0,-1.6265,-1.6093,-1.5526,-1.541,-1.541,-1.541,-1.541,-1.541,-1.541,-1.541,-1.541,-1.541,-1.541,-1.541,-1.541,-1.541,-1.541,-1.541,-1.541,-1.541,-1.541,-1.541,-1.541,-1.541,-1.541,-1.541,-1.541,-1.541,-1.541,-1.541,-1.541,-1.5921,-1.6436,-1.6492,-1.709,-1.7578,0.0,0.0,0.0,0.0,0.0,0.0,0.0,0.0,0.0,0.0,-1.4891,0.0,0.0,0.0,0.0,0.0,0.0,0.0,-1.8684,0.0,-2.0665,-2.2146,-2.1267,-2.1807,-2.3753,-2.2774,-2.2573,-2.3002,-2.3053,-2.3078,-2.3103,-2.369,-2.4205,-2.4707,-2.5285,-2.5548,-2.5649,-2.6239,-2.6533,-2.6596,-2.708,-2.7632,-2.8185,0.0,0.0,0.0,0.0,0.0,0.0,0.0,-2.1787,-2.1465,-2.1025,-2.0352,-1.9814,-1.957,-1.915,-1.8721,-1.8301,-1.8262,-1.8086,-1.7666,-1.7314,-1.6885,-1.6357,-1.5996,-1.5684,-1.542,-1.541,-1.5625,0.0,0.0,0.0,0.0,0.0,0.0,0.0,0.0,-1.6108,-1.543,-1.6038,-1.5939,-1.541,-1.541,-1.541,-1.541,-1.541,-1.541,-1.541,-1.541,-1.541,-1.541,-1.541,-1.541,-1.541,-1.541,-1.541,-1.541,-1.541,-1.541,-1.541,-1.541,-1.541,-1.541,-1.541,-1.541,-1.541,-1.541,-1.541,-1.541,-1.541,-1.5633,-1.5864,-1.5864,-1.6083,-1.6301,-1.6301,0.0,0.0,0.0,0.0,0.0,0.0,0.0,0.0,0.0,0.0,0.0,0.0,0.0,0.0,0.0,0.0,0.0,-1.9347,0.0,-2.0803,-2.1807,-2.1707,-2.2272,-2.3477,-2.3376,-2.3251,-2.3103,-2.3841,-2.4142,-2.4155,-2.4393,-2.4795,-2.531,-2.5511,-2.5799,-2.6138,-2.6445,-2.6533,-2.6596,-2.708,-2.7632,-2.8185,-2.2041,0.0,-2.1807,0.0,-2.2266,-2.2129,-2.2305,-2.1973,-2.1582,-2.1279,-2.0469,-1.9756,-1.9336,-1.8896,-1.8467,-1.8047,-1.8008,-1.7881,-1.7588,-1.7334,-1.6914,-1.6289,-1.6133,0.0,-1.542,-1.5537,-1.5693,-1.5869,-1.6318,0.0,0.0,0.0,0.0,0.0,-1.5928,-1.582,-1.543,-1.5742,-1.5762,-1.5586,-1.5469,-1.5488,-1.5586,-1.5459,-1.541,-1.541,-1.541,-1.541,-1.541,-1.541,-1.541,-1.541,-1.541,-1.541,-1.541,-1.541,-1.541,-1.541,-1.541,-1.541,-1.541,-1.541,-1.541,-1.541,-1.541,-1.541,-1.541,-1.541,-1.541,-1.541,-1.541,-1.541,-1.541,-1.541,0.0,0.0,0.0,0.0,0.0,0.0,-1.5209,-1.4795,-1.4365,0.0,0.0,0.0,0.0,0.0,0.0,0.0,0.0,0.0,0.0,0.0,-2.1732,-2.2121,-2.2585,-2.3078,-2.3715,-2.3791,-2.3427,-2.4381,-2.4908,-2.5046,-2.5046,-2.536,-2.585,-2.585,-2.6088,-2.6533,-2.6533,-2.6533,-2.6596,-2.708,-2.7532,-2.7959,-2.2422,-2.25,-2.25,-2.251,-2.251,-2.2363,-2.1953,-2.1523,-2.124,-2.123,-2.0469,-1.9756,-1.9336,-1.8896,-1.8467,-1.8047,-1.8008,-1.8008,-1.8008,-1.7207,-1.6665,0.0,0.0,-1.5859,-1.542,-1.583,-1.585,-1.542,0.0,0.0,-1.5439,0.0,-1.6125,-1.6115,-1.6125,-1.582,-1.541,-1.542,-1.5664,-1.6076,-1.5586,-1.5674,-1.6066,-1.5576,-1.541,-1.541,-1.541,-1.541,-1.541,-1.541,-1.541,-1.541,-1.541,-1.541,-1.541,-1.541,-1.541,-1.541,-1.541,-1.541,-1.541,-1.541,-1.541,-1.541,-1.541,-1.541,-1.541,-1.541,-1.541,-1.541,-1.541,-1.541,-1.541,-1.541,0.0,0.0,0.0,0.0,0.0,0.0,-1.5156,-1.5234,-1.4814,0.0,0.0,0.0,0.0,0.0,0.0,0.0,0.0,-1.8487,-1.9922,0.0,-2.2284,-2.2309,-2.2585,-2.3078,-2.3715,-2.4004,-2.4004,-2.4569,-2.5109,-2.5586,-2.5586,-2.5912,-2.6521,-2.6521,-2.6521,-2.6533,-2.6533,-2.6533,-2.6596,-2.708,-2.7293,-2.7444,-2.2861,-2.2715,-2.251,-2.251,-2.251,-2.2373,-2.1953,-2.1514,-2.123,-2.123,-2.0723,-2.0195,-1.9766,-1.9336,-1.8906,0.0,-1.8437,-1.832,0.0,-1.7754,-1.748,-1.7187,-1.7041,-1.6621,-1.5869,-1.5986,-1.585,-1.541,0.0,0.0,0.0,-1.6056,-1.5908,-1.5635,-1.5928,-1.582,-1.5449,-1.6055,-1.6221,-1.6135,-1.624,-1.6396,-1.6465,-1.6025,-1.5859,-1.582,-1.5518,-1.541,-1.541,-1.541,-1.541,-1.541,-1.541,-1.541,-1.541,-1.541,-1.541,-1.541,-1.541,-1.541,-1.541,-1.541,-1.541,-1.541,-1.541,-1.541,-1.541,-1.541,-1.541,-1.541,-1.541,-1.541,-1.541,-1.541,-1.541,0.0,0.0,0.0,0.0,0.0,-1.5156,-1.5244,0.0,-1.5166,0.0,0.0,0.0,0.0,0.0,0.0,0.0,0.0,-2.0563,0.0,-2.2297,-2.3075,-2.3552,-2.3728,-2.4657,-2.5297,-2.5674,-2.5448,-2.5649,-2.6189,-2.6189,-2.6289,-2.6533,-2.6533,-2.6533,-2.6533,-2.6533,-2.6533,-2.6546,-2.6653,-2.7205,-2.7846,-2.2852,-2.2568,-2.2275,-2.2275,-2.2139,-2.1894,-2.1455,-2.1162,-2.0986,-2.0986,-2.0418,-1.9906,-1.9553,-1.8844,0.0,-1.8611,-1.8496,-1.8291,-1.8027,-1.7861,-1.7656,-1.7393,-1.7383,-1.6973,-1.6145,-1.623,0.0,-1.541,-1.5684,-1.582,-1.582,-1.582,-1.5674,-1.542,-1.5693,-1.5664,-1.5449,-1.6006,-1.5979,-1.5689,-1.6069,-1.6143,-1.598,-1.5865,-1.582,-1.5781,-1.5508,-1.541,-1.541,-1.541,-1.541,-1.541,-1.541,-1.541,-1.541,-1.541,-1.541,-1.541,-1.541,-1.541,-1.541,-1.541,-1.541,-1.541,-1.541,-1.541,-1.541,-1.541,-1.541,-1.541,-1.541,-1.541,-1.541,-1.541,-1.541,-1.541,-1.541,0.0,0.0,0.0,0.0,0.0,0.0,-1.541,-1.5703,0.0,0.0,0.0,0.0,0.0,0.0,-1.9469,-2.0974,0.0,-2.2623,-2.354,-2.4004,-2.4017,-2.5084,-2.59,-2.6521,-2.6088,-2.6113,-2.6533,-2.6533,-2.6533,-2.6533,-2.6533,-2.6533,-2.6533,-2.6533,-2.6533,-2.6533,-2.6533,-2.6892,-2.7469,-2.2349,-2.2029,-2.1841,0.0,-2.151,0.0,-2.0684,-2.0605,-2.0596,-2.0489,-1.9599,-1.8948,-1.8841,-1.7673,-1.7301,-1.8418,0.0,0.0,0.0,-1.7646,-1.7432,-1.7432,-1.7432,-1.7012,-1.6062,-1.6451,-1.6299,-1.541,-1.541,-1.541,-1.541,-1.541,-1.541,-1.541,-1.541,-1.5352,-1.5294,-1.5323,-1.5138,-1.4834,-1.5229,-1.5194,-1.4994,-1.5319,-1.5459,-1.5449,-1.542,-1.541,-1.541,-1.541,-1.541,-1.541,-1.541,-1.541,-1.541,-1.541,-1.541,-1.541,-1.541,-1.541,-1.541,-1.541,-1.541,-1.541,-1.541,-1.541,-1.541,-1.541,-1.541,-1.541,-1.541,-1.541,-1.541,-1.541,-1.541,-1.541,-1.541,0.0,0.0,0.0,0.0,0.0,-1.541,-1.5781,-1.5859,0.0,0.0,0.0,0.0,0.0,-1.919,-1.9313,-2.1243,-2.2598,-2.3188,-2.3766,-2.4092,-2.418,-2.5134,-2.59,-2.6533,-2.6533,-2.6533,-2.6533,-2.6533,-2.6533,-2.6533,-2.6533,-2.6533,-2.6533,-2.6533,-2.6533,-2.6533,-2.6533,-2.6546,-2.6647,0.0,0.0,-2.1019,-2.1019,-2.1655,-2.1953,-2.1191,-2.1074,-2.062,-1.9566,-1.9195,-1.8593,-1.749,-1.6807,-1.6706,-1.7442,-1.7456,-1.7563,-1.7959,-1.792,-1.7861,-1.7861,-1.7861,-1.7177,-1.5651,-1.6344,-1.6299,-1.541,-1.541,-1.541,-1.541,-1.541,-1.541,-1.541,-1.541,-1.505,-1.4529,-1.4842,-1.4595,-1.3996,-1.5025,-1.5423,-1.5405,-1.5821,-1.5908,-1.5869,-1.5527,-1.541,-1.541,-1.541,-1.541,-1.541,-1.541,-1.541,-1.541,-1.541,-1.541,-1.541,-1.541,-1.541,-1.541,-1.541,-1.541,-1.541,-1.541,-1.541,-1.541,-1.541,-1.541,-1.541,-1.541,-1.541,-1.541,-1.541,-1.541,-1.541,-1.541,-1.541,0.0,0.0,-1.541,-1.541,-1.541,-1.5508,-1.5664,0.0,0.0,0.0,0.0,-1.8226,-1.9282,-1.9276,-2.1243,-2.2786,-2.3791,-2.4343,-2.5046,-2.5942,-2.5686,-2.59,-2.6533,-2.6533,-2.6533,-2.6533,-2.6533,-2.6533,-2.6533,-2.6533,-2.6533,-2.6533,-2.6533,-2.6533,-2.6533,-2.6533,-2.6798,-2.7042,-1.9074,-1.9608,-2.0404,-2.0679,-2.1391,-2.1768,-2.1309,-2.0656,-1.994,-1.9073,-1.8141,-1.7171,-1.6404,-1.5525,-1.556,-1.6899,-1.6918,-1.7241,-1.7949,-1.8008,-1.7794,-1.7364,-1.7354,-1.6554,-1.4885,-1.5274,-1.5267,-1.4864,-1.5235,-1.541,-1.541,-1.541,-1.5518,-1.5703,-1.5276,-1.4948,-1.4683,-1.4346,-1.3924,-1.36,-1.4515,-1.4907,-1.4951,-1.554,-1.5573,-1.5245,-1.5371,-1.5167,-1.4932,-1.5294,-1.541,-1.541,-1.541,-1.541,-1.541,-1.541,-1.541,-1.541,-1.541,-1.5557,-1.5703,-1.5703,-1.5703,-1.5654,-1.5459,-1.5723,-1.5957,-1.5752,-1.5879,-1.5957,-1.5742,-1.5703,-1.5644,-1.5439,-1.541,-1.541,-1.541,-1.541,0.0,-1.5684,-1.5703,-1.5791,-1.5996,-1.6201,-1.6328,-1.6367,-1.6963,0.0,-1.7041,-1.867,-1.9475,-1.9321,-2.0943,-2.2175,-2.3007,-2.3597,-2.4482,-2.5804,-2.5045,-2.5069,-2.5804,-2.5358,-2.5134,-2.5134,-2.5134,-2.5134,-2.5134,-2.5134,-2.5134,-2.5205,-2.5652,-2.5804,-2.5873,-2.6314,-2.6653,-2.6866,-1.7726,-1.8333,-1.958,-2.0443,-2.0987,-2.1238,-2.0989,-1.9925,-1.894,-1.8559,-1.6838,-1.5598,-1.5389,-1.4351,-1.4332,-1.6228,-1.6512,-1.7009,-1.8037,-1.8047,-1.7579,-1.6636,-1.6636,-1.5789,-1.3974,-1.3778,-1.3874,-1.4213,-1.494,-1.539,-1.5508,-1.539,-1.5525,-1.5872,-1.4932,-1.4575,-1.4667,-1.3636,-1.3124,-1.3052,-1.3605,-1.3846,-1.3906,-1.4746,-1.4688,-1.4273,-1.4991,-1.4874,-1.451,-1.5177,-1.541,-1.542,-1.5488,-1.5508,-1.5527,-1.5586,-1.5615,-1.5586,-1.5449,-1.5684,-1.5957,-1.5957,-1.6076,-1.6027,-1.5596,-1.6143,-1.6621,-1.624,-1.6465,-1.6592,-1.6143,-1.6125,-1.5947,-1.5566,-1.5459,-1.543,-1.5498,0.0,-1.5644,-1.6016,-1.6123,-1.6309,-1.6699,-1.7129,-1.7256,-1.6943,-1.7656,-1.7978,-1.7686,-1.9008,-1.9665,-1.9422,-2.0651,-2.1531,-2.2021,-2.2432,-2.3401,-2.4779,-2.3822,-2.3895,-2.4707,-2.3891,-2.3514,-2.3514,-2.3514,-2.3514,-2.3514,-2.3514,-2.3514,-2.3588,-2.4409,-2.4862,-2.5075,-2.5955,-2.6383,-2.6533,-1.6175,-1.6279,-1.7156,-1.9618,-2.1203,-2.1627,-2.0107,-1.9652,-1.8749,-1.6468,-1.5944,-1.527,-1.4056,-1.3749,-1.3932,-1.4821,-1.5783,-1.6902,-1.8414,-1.8213,-1.7579,-1.6636,-1.6636,-1.5515,-1.3124,-1.247,-1.2862,-1.4213,-1.4729,-1.5341,-1.5967,-1.528,-1.5001,-1.5056,-1.405,-1.3145,-1.2367,-1.2345,-1.1853,-1.1115,-1.1856,-1.2197,-1.2258,-1.3061,-1.3726,-1.4213,-1.4332,-1.4746,-1.5225,-1.5352,-1.541,-1.5478,-1.585,-1.5957,-1.6035,-1.6416,-1.6523,-1.6367,-1.5615,-1.5459,-1.5508,-1.5508,-1.5791,-1.6105,-1.6037,-1.6357,-1.6709,-1.6641,-1.668,-1.6592,-1.6143,-1.6125,-1.6105,-1.5977,-1.5654,-1.5537,-1.5908,0.0,-1.6047,-1.6115,-1.6396,-1.665,-1.6665,-1.7129,-1.75,-1.7793,-1.8262,-1.8672,-1.8975,-1.9256,-1.9525,-1.9821,-2.1069,-2.2032,-2.2592,-2.2682,-2.3033,-2.3734,-2.31,-2.3122,-2.3745,-2.3588,-2.3514,-2.3514,-2.3514,-2.3514,-2.3514,-2.3514,-2.3514,-2.3514,-2.3672,-2.4264,-2.5016,-2.5158,-2.5804,-2.6533,-1.6056,-1.7959,-1.9436,-1.8384,-1.963,-2.0246,-1.8929,-1.8036,-1.7105,-1.5884,-1.522,-1.4594,-1.3978,-1.3881,-1.4221,-1.5109,-1.6015,-1.6758,-1.7503,-1.7532,-1.7122,-1.6234,-1.5468,-1.4214,-1.2436,-1.2299,-1.2634,-1.3404,-1.4008,-1.4542,-1.4925,-1.4334,-1.4216,-1.4405,-1.33,-1.2595,-1.2375,-1.1768,-1.1645,-1.1731,-1.1917,-1.2287,-1.2727,-1.304,-1.3104,-1.3053,-1.3906,-1.4154,-1.4145,-1.4628,-1.505,-1.5303,-1.4796,-1.4985,-1.5386,-1.5806,-1.6329,-1.6699,-1.6523,-1.6123,-1.5879,-1.6357,-1.6445,-1.6426,-1.6426,-1.6943,-1.7353,-1.7129,-1.7266,-1.7285,-1.6855,-1.6582,-1.6426,-1.6426,-1.585,0.0,0.0,-1.6426,-1.6592,-1.7061,-1.749,-1.7852,-1.8086,-1.8291,-1.8486,-1.8682,-1.8877,-1.917,-1.96,-1.9619,-1.9824,-2.0254,-2.0866,-2.1291,-2.1584,-2.1584,-2.1977,-2.2702,-2.1902,-2.1988,-2.2702,-2.2188,-2.1973,-2.1973,-2.1973,-2.1973,-2.1973,-2.1973,-2.1973,-2.1973,-2.2478,-2.2999,-2.3441,-2.3963,-2.448,-2.4909,-1.6181,-1.8597,-1.9984,-1.6748,-1.7203,-1.7962,-1.7522,-1.6443,-1.5621,-1.5379,-1.4566,-1.4088,-1.4088,-1.4088,-1.4412,-1.5296,-1.6025,-1.65,-1.65,-1.6615,-1.6306,-1.5479,-1.4053,-1.2877,-1.1948,-1.2199,-1.2475,-1.2595,-1.3341,-1.38,-1.3827,-1.3437,-1.3453,-1.3623,-1.2435,-1.2109,-1.2343,-1.1386,-1.148,-1.2204,-1.1934,-1.221,-1.2727,-1.2727,-1.2367,-1.195,-1.3174,-1.3415,-1.3194,-1.3796,-1.4472,-1.4921,-1.3924,-1.4115,-1.4769,-1.5147,-1.5936,-1.6783,-1.7132,-1.6738,-1.6377,-1.7061,-1.7061,-1.6885,-1.6885,-1.7461,-1.792,-1.7598,-1.7793,-1.7881,-1.7461,-1.7109,-1.6885,-1.6885,0.0,0.0,0.0,-1.7031,-1.7314,-1.8066,-1.8535,-1.8916,-1.9258,-1.9375,-1.9434,-1.9434,-1.9521,-1.9727,-2.0049,-2.0068,-2.0225,-2.0557,-2.0566,-2.0566,-2.0566,-2.0566,-2.0934,-2.1669,-2.0934,-2.1011,-2.1669,-2.0934,-2.0566,-2.0566,-2.0566,-2.0566,-2.0566,-2.0566,-2.0566,-2.0634,-2.1364,-2.1811,-2.2103,-2.285,-2.3294,-2.3514,-1.5844,-1.5255,-1.4641,-1.4349,-1.4358,-1.4796,-1.5733,-1.5794,-1.5379,-1.4334,-1.4173,-1.4088,-1.4088,-1.4088,-1.4166,-1.425,-1.5199,-1.5741,-1.5741,-1.5283,-1.4774,-1.4328,-1.2846,-1.1962,-1.187,-1.1646,-1.1755,-1.223,-1.2984,-1.3442,-1.3586,-1.3131,-1.2785,-1.2512,-1.1514,-1.0978,-1.0769,-1.0954,-1.0913,-1.0749,-1.0728,-1.0778,-1.0778,-1.0778,-1.1247,-1.1834,-1.195,-1.2594,-1.3377,-1.3441,-1.3727,-1.4065,-1.4361,-1.4468,-1.461,-1.5043,-1.5852,-1.6615,-1.6715,-1.6665,-1.6699,-1.6768,-1.7061,-1.7334,-1.7334,-1.7686,-1.7998,-1.7969,-1.7988,-1.7881,-1.7461,-1.7363,-1.7334,-1.7334,0.0,0.0,-1.7793,-1.792,-1.8086,-1.8535,-1.8975,-1.9248,-1.9287,-1.9639,-1.9873,-1.9873,-2.0244,-2.0488,-2.0518,-2.0518,-2.0527,-2.0566,-2.0566,-2.0566,-2.0566,-2.0566,-2.0644,-2.0712,-2.0644,-2.0644,-2.0712,-2.0644,-2.0566,-2.0566,-2.0566,-2.0566,-2.0566,-2.0566,-2.0566,-2.0644,-2.0644,-2.1221,-2.2027,-2.2103,-2.2702,-2.3514,-1.5776,-1.4927,-1.4205,-1.4422,-1.4235,-1.4223,-1.465,-1.4734,-1.4573,-1.4166,-1.4088,-1.4088,-1.4088,-1.4088,-1.4088,-1.4088,-1.5054,-1.5462,-1.4734,-1.497,-1.4469,-1.3082,-1.2655,-1.2325,-1.2144,-1.2024,-1.2053,-1.2277,-1.2403,-1.2438,-1.2531,-1.2002,-1.1619,-1.15,-1.0996,-1.0732,-1.0631,-1.0681,-1.0768,-1.0828,-1.0828,-1.0828,-1.0848,-1.1029,-1.1172,-1.1417,-1.213,-1.2606,-1.2983,-1.2983,-1.3391,-1.3757,-1.3078,-1.3252,-1.3739,-1.4142,-1.4942,-1.5738,-1.5729,-1.5945,-1.629,-1.655,-1.6129,-1.5648,-1.5954,-1.6307,-1.6732,-1.7389,-1.7135,-1.6899,-1.7502,-1.7343,-1.725,-1.7509,0.0,-1.7822,-1.8682,-1.8799,-1.8965,-1.9385,-1.9814,-2.0078,-2.0078,-2.0225,-2.0312,-2.0312,-2.0469,-2.0566,-2.0566,-2.0566,-2.0566,-2.0566,-2.0566,-2.0566,-2.0566,-2.0566,-2.0566,-2.0566,-2.0566,-2.0566,-2.0576,-2.0859,-2.083,-2.0576,-2.0859,-2.082,-2.0566,-2.0566,-2.0566,-2.0566,-2.0566,-2.0779,-2.1155,-2.1155,-2.1375,-2.168,-1.5609,-1.5066,-1.4579,-1.4508,-1.4429,-1.4289,-1.4115,-1.4088,-1.4088,-1.4088,-1.4088,-1.4088,-1.4088,-1.4088,-1.4088,-1.4088,-1.4734,-1.4894,-1.4173,-1.462,-1.4158,-1.2553,-1.2714,-1.2605,-1.2311,-1.2305,-1.2211,-1.2031,-1.2011,-1.1864,-1.159,-1.1369,-1.1216,-1.1122,-1.0922,-1.0828,-1.0828,-1.0828,-1.0949,-1.1129,-1.1129,-1.1129,-1.1149,-1.1349,-1.1303,-1.1223,-1.2027,-1.2373,-1.2459,-1.2459,-1.2853,-1.324,-1.2287,-1.2428,-1.2985,-1.3659,-1.4333,-1.5001,-1.5324,-1.5455,-1.5641,-1.614,-1.5647,-1.5021,-1.5295,-1.5536,-1.5906,-1.6538,-1.6362,-1.6228,-1.7009,-1.6867,-1.6781,-1.7116,-1.7614,-1.8157,-1.8851,-1.9261,-1.9648,-2.0068,-2.0381,-2.0566,-2.0566,-2.0566,-2.0625,-2.0762,-2.0644,-2.0566,-2.0566,-2.0566,-2.0566,-2.0566,-2.0566,-2.0566,-2.0566,-2.0566,-2.0566,-2.0566,-2.0566,-2.0635,-2.0781,-2.0947,-2.0937,-2.0791,-2.1103,-2.0977,-2.0576,-2.0713,-2.0693,-2.0566,-2.0566,-2.0566,-2.0566,-2.0566,-2.0566,-2.0566,-1.5233,-1.5518,-1.5445,-1.4278,-1.4458,-1.4553,-1.4168,-1.4088,-1.4088,-1.4088,-1.4088,-1.4088,-1.4088,-1.4088,-1.4088,-1.4088,-1.4088,-1.4088,-1.4088,-1.4088,-1.3687,-1.2869,-1.2829,-1.2612,-1.2311,-1.2305,-1.2017,-1.143,-1.2011,-1.1857,-1.1009,-1.1597,-1.171,-1.1423,-1.1423,-1.1423,-1.1423,-1.1423,-1.1423,-1.1423,-1.1423,-1.1423,-1.1423,-1.143,-1.143,-1.143,-1.143,-1.1623,-1.187,-1.187,-1.2064,-1.2305,-1.2305,-1.2305,-1.258,-1.385,-1.4171,-1.4464,-1.5683,-1.5327,-1.4719,-1.542,-1.5814,-1.5902,-1.5626,-1.5822,-1.5902,-1.5626,-1.5839,-1.6008,-1.6008,-1.6008,-1.6008,-1.6008,-1.6942,-1.7854,-1.824,-1.9222,-2.0078,-2.0508,-2.0566,-2.0566,-2.0566,-2.0576,-2.0762,-2.1211,-2.083,-2.0576,-2.0566,-2.0576,-2.0576,-2.0566,-2.0566,-2.0566,-2.0566,-2.0566,-2.0566,-2.0566,-2.0566,-2.0801,-2.1221,-2.0781,-2.082,-2.124,-2.124,-2.0986,-2.0605,-2.1055,-2.0977,-2.0576,-2.0576,-2.0576,-2.0576,-2.0576,-2.0576,-2.0576,-1.4741,-1.4652,-1.4537,-1.4375,-1.4322,-1.4282,-1.4115,-1.4088,-1.4088,-1.4088,-1.4088,-1.4088,-1.4088,-1.4088,-1.4088,-1.4088,-1.4088,-1.4088,-1.4088,-1.4088,-1.3874,-1.3394,-1.3373,-1.3133,-1.2625,-1.2612,-1.2425,-1.2037,-1.2011,-1.1864,-1.1603,-1.1577,-1.151,-1.1423,-1.1423,-1.1423,-1.1423,-1.1423,-1.1423,-1.1423,-1.1423,-1.1423,-1.145,-1.1657,-1.1737,-1.1764,-1.1964,-1.2098,-1.2171,-1.2171,-1.2231,-1.2305,-1.2305,-1.2445,-1.2708,-1.3099,-1.3355,-1.3549,-1.3945,-1.3971,-1.4062,-1.4734,-1.4425,-1.4016,-1.3924,-1.4145,-1.4496,-1.5248,-1.5028,-1.4938,-1.564,-1.5802,-1.5802,-1.5802,-1.6895,-1.7997,-1.8725,-1.9259,-1.9776,-2.0508,-2.084,-2.1035,-2.1035,-2.1309,-2.1543,-2.168,-2.1572,-2.1357,-2.1055,-2.1328,-2.1211,-2.0586,-2.0869,-2.0889,-2.0566,-2.0566,-2.0566,-2.0566,-2.0889,-2.1103,-2.125,-2.1719,-2.1846,-2.1709,-2.2002,-2.1885,-2.1504,-2.1631,-2.1611,-2.1494,-2.1494,-2.1494,-2.1455,-2.1143,-2.123,-2.1445,-1.4583,-1.4515,-1.4421,-1.4389,-1.4302,-1.4222,-1.4108,-1.4088,-1.4088,-1.4088,-1.4088,-1.4088,-1.4088,-1.4088,-1.4088,-1.4088,-1.4088,-1.4088,-1.4088,-1.4088,-1.4008,-1.3828,-1.3814,-1.348,-1.2835,-1.2822,-1.2545,-1.2131,-1.2071,-1.1984,-1.187,-1.1804,-1.177,-1.177,-1.177,-1.177,-1.177,-1.177,-1.177,-1.177,-1.177,-1.177,-1.179,-1.1971,-1.2037,-1.2064,-1.2238,-1.2305,-1.2305,-1.2305,-1.2378,-1.2498,-1.2625,-1.2786,-1.2953,-1.3066,-1.3233,-1.3407,-1.3527,-1.3681,-1.3939,-1.4303,-1.3945,-1.3527,-1.3407,-1.3694,-1.4088,-1.4557,-1.4552,-1.4613,-1.502,-1.5261,-1.5383,-1.5261,-1.643,-1.7673,-1.8624,-1.9286,-1.9843,-2.0263,-2.0552,-2.0712,-2.0712,-2.0938,-2.1358,-2.1885,-2.2041,-2.1943,-2.1514,-2.1748,-2.1641,-2.1103,-2.1348,-2.1357,-2.1094,-2.1084,-2.0996,-2.083,-2.1279,-2.1582,-2.1748,-2.21,-2.2217,-2.2148,-2.2402,-2.2275,-2.1885,-2.1885,-2.1885,-2.1865,-2.1699,-2.1738,-2.1855,-2.1592,-2.166,-2.1846,-1.4536,-1.4696,-1.4716,-1.4182,-1.4309,-1.4396,-1.4128,-1.4088,-1.4088,-1.4088,-1.4088,-1.4088,-1.4088,-1.4088,-1.4088,-1.4088,-1.4088,-1.4088,-1.4088,-1.4088,-1.4088,-1.4088,-1.4062,-1.3667,-1.2923,-1.2903,-1.2614,-1.1944,-1.2211,-1.2191,-1.1911,-1.2178,-1.2305,-1.2305,-1.2305,-1.2305,-1.2305,-1.2305,-1.2305,-1.2305,-1.2305,-1.2305,-1.2305,-1.2305,-1.2305,-1.2305,-1.2305,-1.2305,-1.2305,-1.2331,-1.2518,-1.2876,-1.3113,-1.3227,-1.33,-1.3567,-1.3579,-1.3748,-1.4048,-1.4128,-1.4128,-1.4162,-1.4162,-1.4088,-1.3788,-1.4135,-1.4376,-1.3868,-1.4402,-1.4796,-1.4262,-1.4603,-1.4877,-1.4603,-1.5658,-1.6888,-1.807,-1.9119,-1.9724,-1.9867,-1.9894,-1.9911,-2.0081,-2.0201,-2.0754,-2.1909,-2.2353,-2.2383,-2.1963,-2.1982,-2.1963,-2.1885,-2.1924,-2.1924,-2.1885,-2.1924,-2.1728,-2.1299,-2.1738,-2.2139,-2.25,-2.2158,-2.2207,-2.2568,-2.2568,-2.2353,-2.2002,-2.2002,-2.2002,-2.1953,-2.1562,-2.165,-2.1992,-2.1953,-2.1963,-2.2002,-1.4195,-1.4235,-1.4235,-1.4108,-1.4135,-1.4162,-1.4095,-1.4088,-1.4088,-1.4088,-1.4088,-1.4088,-1.4088,-1.4088,-1.4088,-1.4088,-1.4088,-1.4088,-1.4088,-1.4088,-1.4088,-1.4088,-1.3868,-1.3647,-1.3454,-1.3447,-1.3153,-1.2634,-1.2694,-1.2498,-1.2204,-1.2271,-1.2305,-1.2305,-1.2305,-1.2305,-1.2305,-1.2305,-1.2305,-1.2305,-1.2305,-1.2305,-1.2305,-1.2305,-1.2305,-1.2305,-1.2305,-1.2305,-1.2338,-1.2572,-1.2768,-1.2876,-1.3113,-1.3367,-1.3561,-1.3546,-1.3808,-1.4055,-1.4349,-1.4429,-1.4482,-1.4716,-1.4776,-1.4696,-1.4396,-1.4429,-1.4549,-1.4656,-1.483,-1.4923,-1.4796,-1.4877,-1.4943,-1.4877,-1.5285,-1.6014,-1.6888,-1.7336,-1.784,-1.8535,-1.8924,-1.9538,-2.0503,-2.1671,-2.2505,-2.2775,-2.2949,-2.2822,-2.2402,-2.2685,-2.2568,-2.1904,-2.2207,-2.2217,-2.1894,-2.2207,-2.2168,-2.1748,-2.2178,-2.2432,-2.2519,-2.2754,-2.292,-2.2998,-2.2998,-2.2949,-2.2861,-2.2861,-2.2861,-2.2861,-2.2764,-2.2783,-2.2822,-2.25,-2.2588,-2.2861,-1.4088,-1.4088,-1.4088,-1.4088,-1.4088,-1.4088,-1.4088,-1.4088,-1.4088,-1.4088,-1.4088,-1.4088,-1.4088,-1.4088,-1.4088,-1.4088,-1.4088,-1.4088,-1.4088,-1.4088,-1.4088,-1.4088,-1.3941,-1.3854,-1.3854,-1.3714,-1.3347,-1.2822,-1.2822,-1.2592,-1.2305,-1.2305,-1.2305,-1.2311,-1.2452,-1.2438,-1.2311,-1.2452,-1.2432,-1.2305,-1.2305,-1.2305,-1.2305,-1.2305,-1.2305,-1.2305,-1.2305,-1.2392,-1.2579,-1.3026,-1.3173,-1.3227,-1.3534,-1.3734,-1.3854,-1.3854,-1.3968,-1.4155,-1.4442,-1.4522,-1.4589,-1.489,-1.4963,-1.4923,-1.477,-1.4836,-1.4943,-1.4957,-1.5184,-1.5291,-1.5017,-1.519,-1.5331,-1.519,-1.5418,-1.591,-1.701,-1.7219,-1.753,-1.7897,-1.8218,-1.8592,-1.9216,-2.0561,-2.1587,-2.2217,-2.1676,-2.1496,-2.1907,-2.2105,-2.202,-2.1597,-2.2342,-2.2705,-2.248,-2.2705,-2.2705,-2.249,-2.2705,-2.2812,-2.2822,-2.3037,-2.3135,-2.3135,-2.3135,-2.3135,-2.3125,-2.292,-2.2959,-2.3125,-2.292,-2.2959,-2.3086,-2.2666,-2.2519,-2.2539,-1.4088,-1.4088,-1.4088,-1.4088,-1.4088,-1.4088,-1.4088,-1.4088,-1.4088,-1.4088,-1.4088,-1.4088,-1.4088,-1.4088,-1.4088,-1.4088,-1.4088,-1.4088,-1.4088,-1.4088,-1.4088,-1.4088,-1.4041,-1.4035,-1.4088,-1.3748,-1.332,-1.2903,-1.2903,-1.2645,-1.2305,-1.2351,-1.2378,-1.2385,-1.2714,-1.2688,-1.2398,-1.2699,-1.2625,-1.2305,-1.2358,-1.2345,-1.2311,-1.2358,-1.2378,-1.2385,-1.2438,-1.2619,-1.2913,-1.346,-1.3559,-1.3701,-1.4055,-1.4162,-1.4168,-1.4222,-1.4235,-1.4302,-1.4589,-1.4669,-1.4736,-1.5037,-1.511,-1.511,-1.511,-1.5257,-1.5344,-1.515,-1.5491,-1.5678,-1.5204,-1.5504,-1.5752,-1.5504,-1.5671,-1.6197,-1.7225,-1.7412,-1.7412,-1.7412,-1.7598,-1.7692,-1.7692,-1.8772,-1.9943,-2.0935,-2.0034,-1.9943,-2.0935,-2.1203,-2.1293,-2.1293,-2.2492,-2.3135,-2.3135,-2.3135,-2.3135,-2.3135,-2.3135,-2.3135,-2.3135,-2.3135,-2.3135,-2.3135,-2.3135,-2.3135,-2.3105,-2.2764,-2.2822,-2.3105,-2.2754,-2.2832,-2.3086,-2.2666,-2.2334,-2.209,-1.4088,-1.4088,-1.4088,-1.4088,-1.4088,-1.4088,-1.4088,-1.4088,-1.4088,-1.4088,-1.4088,-1.4088,-1.4088,-1.4088,-1.4088,-1.4088,-1.4088,-1.4088,-1.4088,-1.4088,-1.4088,-1.4088,-1.3841,-1.3821,-1.4082,-1.3547,-1.3227,-1.3146,-1.3146,-1.2859,-1.2311,-1.2565,-1.2761,-1.2761,-1.2802,-1.2802,-1.2782,-1.3019,-1.2819,-1.2325,-1.2585,-1.2532,-1.2331,-1.2585,-1.2761,-1.2719,-1.2993,-1.3113,-1.32,-1.3534,-1.3559,-1.3741,-1.4289,-1.4462,-1.4509,-1.477,-1.485,-1.491,-1.5204,-1.5277,-1.5351,-1.5638,-1.5712,-1.5712,-1.5712,-1.5545,-1.5458,-1.5665,-1.5772,-1.5805,-1.5732,-1.5772,-1.5812,-1.5778,-1.5805,-1.5825,-1.6015,-1.6015,-1.6015,-1.6015,-1.7037,-1.7692,-1.7692,-1.8772,-1.9588,-1.9761,-1.9579,-1.9579,-1.9761,-2.0747,-2.1293,-2.1293,-2.2492,-2.3135,-2.3135,-2.3135,-2.3135,-2.3135,-2.3135,-2.3135,-2.3135,-2.3135,-2.3135,-2.3135,-2.3135,-2.3135,-2.3135,-2.3076,-2.3086,-2.3135,-2.3076,-2.3086,-2.3086,-2.2666,-2.2705,-2.292,-1.4088,-1.3555,-1.3294,-1.3997,-1.3555,-1.3294,-1.3997,-1.4088,-1.4088,-1.4088,-1.4088,-1.4088,-1.4088,-1.4088,-1.4088,-1.4088,-1.4088,-1.4088,-1.4088,-1.4088,-1.4088,-1.4088,-1.3961,-1.3955,-1.4082,-1.3667,-1.3454,-1.3454,-1.3287,-1.3073,-1.2812,-1.2946,-1.3006,-1.3013,-1.3173,-1.306,-1.2856,-1.3253,-1.3006,-1.2345,-1.2819,-1.2826,-1.2585,-1.2893,-1.3006,-1.3046,-1.3347,-1.3454,-1.352,-1.3981,-1.4135,-1.4208,-1.4629,-1.477,-1.4796,-1.493,-1.4963,-1.503,-1.5317,-1.5398,-1.5464,-1.5758,-1.5832,-1.5832,-1.5832,-1.5732,-1.5671,-1.5805,-1.5832,-1.5832,-1.5832,-1.5832,-1.5832,-1.5832,-1.5832,-1.5832,-1.5832,-1.5832,-1.5832,-1.5832,-1.6292,-1.6669,-1.6669,-1.7117,-1.7762,-1.8411,-1.7855,-1.7762,-1.8503,-1.967,-2.0305,-2.0305,-2.2129,-2.3135,-2.3135,-2.3135,-2.3135,-2.3135,-2.3135,-2.3135,-2.3135,-2.3135,-2.3135,-2.3135,-2.3135,-2.3135,-2.3135,-2.3135,-2.3135,-2.3135,-2.3135,-2.2998,-2.2764,-2.2578,-2.248,-2.2441]}]]